[[{"header":{"parameterUnit":"m.s-1","parameterCategory":1,"la1":30.6,"la2":28.766,"lo1":-90.7593,"lo2":-88.6598,"dy":0.0162,"dx":0.0183,"nx":116,"ny":114,"refTime":"2024-06-26T12:00:00:Z","depth":0,"parameterNumber":2,"parameterNumberName":"U-component_of_WINDS"},"data":[0.0,0.0,0.0,0.0,0.0,0.0,0.0,0.0,0.0,0.0,0.0,0.0,0.0,0.0,0.0,0.0,0.0,0.0,0.0,0.0,0.0,0.0,0.0,0.0,0.0,0.0,0.0,0.0,0.0,0.0,0.0,0.0,0.0,0.0,0.0,0.0,0.0,0.0,0.0,0.0,0.0,0.0,0.0,0.0,0.0,0.0,0.0,0.0,0.0,0.0,0.0,0.0,0.0,0.0,0.0,0.0,0.0,0.0,0.0,0.0,0.0,0.0,0.0,0.0,0.0,0.0,0.0,0.0,0.0,0.0,0.0,0.0,0.0,0.0,0.0,0.0,0.0,0.0,0.0,0.0,0.0,0.0,0.0,0.0,0.0,0.0,0.0,0.0,0.0,0.0,0.0,0.0,0.0,0.0,0.0,0.0,0.0,0.0,0.0,0.0,0.0,0.0,0.0,0.0,0.0,0.0,0.0,0.0,0.0,0.0,0.0,0.0,0.0,0.0,0.0,0.0,0.0,0.0,0.0,0.0,0.0,0.0,0.0,0.0,0.0,0.0,0.0,0.0,0.0,0.0,0.0,0.0,0.0,0.0,0.0,0.0,0.0,0.0,0.0,0.0,0.0,0.0,0.0,0.0,0.0,0.0,0.0,0.0,0.0,0.0,0.0,0.0,0.0,0.0,0.0,0.0,0.0,0.0,0.0,0.0,0.0,0.0,0.0,0.0,0.0,0.0,0.0,0.0,0.0,0.0,0.0,0.0,0.0,0.0,0.0,0.0,0.0,0.0,0.0,0.0,0.0,0.0,0.0,0.0,0.0,0.0,0.0,0.0,0.0,0.0,0.0,0.0,0.0,0.0,0.0,0.0,0.0,0.0,0.0,0.0,0.0,0.0,0.0,0.0,0.0,0.0,0.0,0.0,0.0,0.0,0.0,0.0,0.0,0.0,0.0,0.0,0.0,0.0,0.0,0.0,0.0,0.0,0.0,0.0,0.0,0.0,0.0,0.0,0.0,0.0,0.0,0.0,0.0,0.0,0.0,0.0,0.0,0.0,0.0,0.0,0.0,0.0,0.0,0.0,0.0,0.0,0.0,0.0,0.0,0.0,0.0,0.0,0.0,0.0,0.0,0.0,0.0,0.0,0.0,0.0,0.0,0.0,0.0,0.0,0.0,0.0,0.0,0.0,0.0,0.0,0.0,0.0,0.0,0.0,0.0,0.0,0.0,0.0,0.0,0.0,0.0,0.0,0.0,0.0,0.0,0.0,0.0,0.0,0.0,0.0,0.0,0.0,0.0,0.0,0.0,0.0,0.0,0.0,0.0,0.0,0.0,0.0,0.0,0.0,0.0,0.0,0.0,0.0,0.0,0.0,0.0,0.0,0.0,0.0,0.0,0.0,0.0,0.0,0.0,0.0,0.0,0.0,0.0,0.0,0.0,0.0,0.0,0.0,0.0,0.0,0.0,0.0,0.0,0.0,0.0,0.0,0.0,0.0,0.0,0.0,0.0,0.0,0.0,0.0,0.0,0.0,0.0,0.0,0.0,0.0,0.0,0.0,0.0,0.0,0.0,0.0,0.0,0.0,0.0,0.0,0.0,0.0,0.0,0.0,0.0,0.0,0.0,0.0,0.0,0.0,0.0,0.0,0.0,0.0,0.0,0.0,0.0,0.0,0.0,0.0,0.0,0.0,0.0,0.0,0.0,0.0,0.0,0.0,0.0,0.0,0.0,0.0,0.0,0.0,0.0,0.0,0.0,0.0,0.0,0.0,0.0,0.0,0.0,0.0,0.0,0.0,0.0,0.0,0.0,0.0,0.0,0.0,0.0,0.0,0.0,0.0,0.0,0.0,0.0,0.0,0.0,0.0,0.0,0.0,0.0,0.0,0.0,0.0,0.0,0.0,0.0,0.0,0.0,0.0,0.0,0.0,0.0,0.0,0.0,0.0,0.0,0.0,0.0,0.0,0.0,0.0,0.0,0.0,0.0,0.0,0.0,0.0,0.0,0.0,0.0,0.0,0.0,0.0,0.0,0.0,0.0,0.0,0.0,0.0,0.0,0.0,0.0,0.0,0.0,0.0,0.0,0.0,0.0,0.0,0.0,0.0,0.0,0.0,0.0,0.0,0.0,0.0,0.0,0.0,0.0,0.0,0.0,0.0,0.0,0.0,0.0,0.0,0.0,0.0,0.0,0.0,0.0,0.0,0.0,0.0,0.0,0.0,0.0,0.0,0.0,0.0,0.0,0.0,0.0,0.0,0.0,0.0,0.0,0.0,0.0,0.0,0.0,0.0,0.0,0.0,0.0,0.0,0.0,0.0,0.0,0.0,0.0,0.0,0.0,0.0,0.0,0.0,0.0,0.0,0.0,0.0,0.0,0.0,0.0,0.0,0.0,0.0,0.0,0.0,0.0,0.0,0.0,0.0,0.0,0.0,0.0,0.0,0.0,0.0,0.0,0.0,0.0,0.0,0.0,0.0,0.0,0.0,0.0,0.0,0.0,0.0,0.0,0.0,0.0,0.0,0.0,0.0,0.0,0.0,0.0,0.0,0.0,0.0,0.0,0.0,0.0,0.0,0.0,0.0,0.0,0.0,0.0,0.0,0.0,0.0,0.0,0.0,0.0,0.0,0.0,0.0,0.0,0.0,0.0,0.0,0.0,0.0,0.0,0.0,0.0,0.0,0.0,0.0,0.0,0.0,0.0,0.0,0.0,0.0,0.0,0.0,0.0,0.0,0.0,0.0,0.0,0.0,0.0,0.0,0.0,0.0,0.0,0.0,0.0,0.0,0.0,0.0,0.0,0.0,0.0,0.0,0.0,0.0,0.0,0.0,0.0,0.0,0.0,0.0,0.0,0.0,0.0,0.0,0.0,0.0,0.0,0.0,0.0,0.0,0.0,0.0,0.0,0.0,0.0,0.0,0.0,0.0,0.0,0.0,0.0,0.0,0.0,0.0,0.0,0.0,0.0,0.0,0.0,0.0,0.0,0.0,0.0,0.0,0.0,0.0,0.0,0.0,0.0,0.0,0.0,0.0,0.0,0.0,0.0,0.0,0.0,0.0,0.0,0.0,0.0,0.0,0.0,0.0,0.0,0.0,0.0,0.0,0.0,0.0,0.0,0.0,0.0,0.0,0.0,0.0,0.0,0.0,0.0,0.0,0.0,0.0,0.0,0.0,0.0,0.0,0.0,0.0,0.0,0.0,0.0,0.0,0.0,0.0,0.0,0.0,0.0,0.0,0.0,0.0,0.0,0.0,0.0,0.0,0.0,0.0,0.0,0.0,0.0,0.0,0.0,0.0,0.0,0.0,0.0,0.0,0.0,0.0,0.0,0.0,0.0,0.0,0.0,0.0,0.0,0.0,0.0,0.0,0.0,0.0,0.0,0.0,0.0,0.0,0.0,0.0,0.0,0.0,0.0,0.0,0.0,0.0,0.0,0.0,0.0,0.0,0.0,0.0,0.0,0.0,0.0,0.0,0.0,0.0,0.0,0.0,0.0,0.0,0.0,0.0,0.0,0.0,0.0,0.0,0.0,0.0,0.0,0.0,0.0,0.0,0.0,0.0,0.0,0.0,0.0,0.0,0.0,0.0,0.0,0.0,0.0,0.0,0.0,0.0,0.0,0.0,0.0,0.0,0.0,0.0,0.0,0.0,0.0,0.0,0.0,0.0,0.0,0.0,0.0,0.0,0.0,0.0,0.0,0.0,0.0,0.0,0.0,0.0,0.0,0.0,0.0,0.0,0.0,0.0,0.0,0.0,0.0,0.0,0.0,0.0,0.0,0.0,0.0,0.0,0.0,0.0,0.0,0.0,0.0,0.0,0.0,0.0,0.0,0.0,0.0,0.0,0.0,0.0,0.0,0.0,0.0,0.0,0.0,0.0,0.0,0.0,0.0,0.0,0.0,0.0,0.0,0.0,0.0,0.0,0.0,0.0,0.0,0.0,0.0,0.0,0.0,0.0,0.0,0.0,0.0,0.0,0.0,0.0,0.0,0.0,0.0,0.0,0.0,0.0,0.0,0.0,0.0,0.0,0.0,0.0,0.0,0.0,0.0,0.0,0.0,0.0,0.0,0.0,0.0,0.0,0.0,0.0,0.0,0.0,0.0,0.0,0.0,0.0,0.0,0.0,0.0,0.0,0.0,0.0,0.0,0.0,0.0,0.0,0.0,0.0,0.0,0.0,0.0,0.0,0.0,0.0,0.0,0.0,0.0,0.0,0.0,0.0,0.0,0.0,0.0,0.0,0.0,0.0,0.0,0.0,0.0,0.0,0.0,0.0,0.0,0.0,0.0,0.0,0.0,0.0,0.0,0.0,0.0,0.0,0.0,0.0,0.0,0.0,0.0,0.0,0.0,0.0,0.0,0.0,0.0,0.0,0.0,0.0,0.0,0.0,0.0,0.0,0.0,0.0,0.0,0.0,0.0,0.0,0.0,0.0,0.0,0.0,0.0,0.0,0.0,0.0,0.0,0.0,0.0,0.0,0.0,0.0,0.0,0.0,0.0,0.0,0.0,0.0,0.0,0.0,0.0,0.0,0.0,0.0,0.0,0.0,0.0,0.0,0.0,0.0,0.0,0.0,0.0,0.0,0.0,0.0,0.0,0.0,0.0,0.0,0.0,0.0,0.0,0.0,0.0,0.0,0.0,0.0,0.0,0.0,0.0,0.0,0.0,0.0,0.0,0.0,0.0,0.0,0.0,0.0,0.0,0.0,0.0,0.0,0.0,0.0,0.0,0.0,0.0,0.0,0.0,0.0,0.0,0.0,0.0,0.0,0.0,0.0,0.0,0.0,0.0,0.0,0.0,0.0,0.0,0.0,0.0,0.0,0.0,0.0,0.0,0.0,0.0,0.0,0.0,0.0,0.0,0.0,0.0,0.0,0.0,0.0,0.0,0.0,0.0,0.0,0.0,0.0,0.0,0.0,0.0,0.0,0.0,0.0,0.0,0.0,0.0,0.0,0.0,0.0,0.0,0.0,0.0,0.0,0.0,0.0,0.0,0.0,0.0,0.0,0.0,0.0,0.0,0.0,0.0,0.0,0.0,0.0,0.0,0.0,0.0,0.0,0.0,0.0,0.0,0.0,0.0,0.0,0.0,0.0,0.0,0.0,0.0,0.0,0.0,0.0,0.0,0.0,0.0,0.0,0.0,0.0,0.0,0.0,0.0,0.0,0.0,0.0,0.0,0.0,0.0,0.0,0.0,0.0,0.0,0.0,0.0,0.0,0.0,0.0,0.0,0.0,0.0,0.0,0.0,0.0,0.0,0.0,0.0,0.0,0.0,0.0,0.0,0.0,0.0,0.0,0.0,0.0,0.0,0.0,0.0,0.0,0.0,0.0,0.0,0.0,0.0,0.0,0.0,0.0,0.0,0.0,0.0,0.0,0.0,0.0,0.0,0.0,0.0,0.0,0.0,0.0,0.0,0.0,0.0,0.0,0.0,0.0,0.0,0.0,0.0,0.0,0.0,0.0,0.0,0.0,0.0,0.0,0.0,0.0,0.0,0.0,0.0,0.0,0.0,0.0,0.0,0.0,0.0,0.0,0.0,0.0,0.0,0.0,0.0,0.0,0.0,0.0,0.0,0.0,0.0,0.0,0.0,0.0,0.0,0.0,0.0,0.0,0.0,0.0,0.0,0.0,0.0,0.0,0.0,0.0,0.0,0.0,0.0,0.0,0.0,0.0,0.0,0.0,0.0,0.0,0.0,0.0,0.0,0.0,0.0,0.0,0.0,0.0,0.0,0.0,0.0,0.0,0.0,0.0,0.0,0.0,0.0,0.0,0.0,0.0,0.0,0.0,0.0,0.0,0.0,0.0,0.0,0.0,0.0,0.0,0.0,0.0,0.0,0.0,0.0,0.0,0.0,0.0,0.0,0.0,0.0,0.0,0.0,0.0,0.0,0.0,0.0,0.0,0.0,0.0,0.0,0.0,0.0,0.0,0.0,0.0,0.0,0.0,0.0,0.0,0.0,0.0,0.0,0.0,0.0,0.0,0.0,0.0,0.0,0.0,0.0,0.0,0.0,0.0,0.0,0.0,0.0,0.0,0.0,0.0,0.0,0.0,0.0,0.0,0.0,0.0,0.0,0.0,0.0,0.0,-1.748,0.0,0.0,0.0,0.0,0.0,0.0,0.0,0.0,0.0,0.0,0.0,0.0,0.0,0.0,0.0,0.0,0.0,0.0,0.0,0.0,0.0,0.0,0.0,0.0,-0.8646,-0.9106,-0.9106,-0.9159,-0.9159,-0.9106,0.0,0.0,0.0,0.0,0.0,-0.8577,-0.8564,-0.8778,-0.9232,-0.9512,-1.0167,-1.1156,-1.0995,-1.0474,-0.9646,0.0,0.0,0.0,0.0,0.0,0.0,0.0,0.0,0.0,0.0,0.0,0.0,0.0,0.0,0.0,0.0,0.0,0.0,0.0,0.0,0.0,0.0,0.0,0.0,0.0,0.0,0.0,0.0,0.0,0.0,0.0,0.0,0.0,0.0,0.0,0.0,0.0,0.0,0.0,0.0,0.0,0.0,0.0,0.0,0.0,0.0,0.0,0.0,0.0,0.0,0.0,0.0,0.0,0.0,0.0,0.0,0.0,0.0,0.0,0.0,0.0,0.0,0.0,0.0,0.0,0.0,0.0,0.0,0.0,0.0,0.0,-1.8132,0.0,0.0,0.0,0.0,0.0,0.0,0.0,0.0,0.0,0.0,0.0,0.0,0.0,0.0,0.0,0.0,0.0,0.0,0.0,0.0,0.0,-0.7928,-0.8021,-0.8564,-0.8925,-0.9031,-0.8991,-0.8978,-0.9031,-0.8938,0.0,0.0,0.0,-0.8831,-0.8884,-0.9165,-0.9512,-0.9913,-1.0701,-1.161,-1.2625,-1.2973,-1.2567,-1.1384,-1.1182,0.0,0.0,0.0,0.0,0.0,0.0,0.0,0.0,0.0,0.0,0.0,0.0,0.0,0.0,0.0,0.0,0.0,0.0,0.0,0.0,0.0,0.0,0.0,0.0,0.0,0.0,0.0,0.0,0.0,0.0,0.0,0.0,0.0,0.0,0.0,0.0,0.0,0.0,0.0,0.0,0.0,0.0,0.0,0.0,0.0,0.0,0.0,0.0,0.0,0.0,0.0,0.0,0.0,0.0,0.0,0.0,0.0,0.0,0.0,0.0,0.0,0.0,0.0,-2.0395,-2.1115,-2.1788,-2.1686,-2.1744,-2.1814,-2.027,-1.9205,-1.8503,0.0,0.0,0.0,0.0,0.0,0.0,0.0,0.0,0.0,0.0,0.0,0.0,0.0,0.0,0.0,0.0,0.0,0.0,0.0,0.0,-0.8123,-0.8631,-0.8991,-0.9336,-0.99,-0.9713,-0.9673,-0.9927,-0.9416,0.0,0.0,-0.8938,-0.8925,-0.9123,-0.9472,-1.002,-1.0822,-1.2438,-1.344,-1.3868,-1.4416,-1.4563,-1.4335,-1.332,-1.2545,-1.1997,0.0,0.0,0.0,0.0,0.0,0.0,0.0,0.0,0.0,0.0,0.0,0.0,0.0,0.0,0.0,0.0,0.0,0.0,0.0,0.0,0.0,0.0,0.0,0.0,0.0,0.0,0.0,0.0,0.0,0.0,0.0,0.0,0.0,0.0,0.0,0.0,0.0,0.0,0.0,0.0,0.0,-1.1182,-1.1583,0.0,0.0,0.0,0.0,0.0,0.0,0.0,0.0,0.0,0.0,0.0,0.0,0.0,0.0,-1.809,-1.9543,-2.0424,-2.0929,-2.2004,-2.2596,-2.2678,-2.2935,-2.2976,-2.2717,-2.224,0.0,-2.0453,-1.9787,0.0,0.0,0.0,0.0,0.0,0.0,0.0,0.0,0.0,0.0,0.0,0.0,0.0,0.0,0.0,0.0,0.0,0.0,0.0,0.0,0.0,-0.9606,-1.0154,-1.0568,-1.0488,-1.0408,-1.0367,-0.982,-0.9419,-0.919,-0.9057,-0.9192,-0.9486,-1.01,-1.1182,-1.2732,-1.3841,-1.479,-1.5565,-1.5818,-1.6126,-1.6406,-1.5725,-1.4629,-1.328,-1.2999,0.0,0.0,0.0,0.0,0.0,0.0,0.0,0.0,0.0,0.0,0.0,0.0,0.0,0.0,0.0,0.0,0.0,0.0,0.0,0.0,0.0,0.0,0.0,0.0,0.0,0.0,0.0,0.0,0.0,0.0,0.0,0.0,0.0,0.0,0.0,0.0,0.0,0.0,0.0,-1.1343,-1.2599,-1.3066,-1.3227,-1.3267,0.0,0.0,0.0,0.0,0.0,0.0,0.0,0.0,0.0,-1.8664,-1.9679,-2.0294,-2.0454,-2.141,-2.2214,-2.2687,-2.3243,-2.3748,-2.3895,-2.4036,-2.3977,-2.3816,-2.3668,-2.3256,-2.236,-2.1022,-1.9984,-1.9085,0.0,0.0,0.0,0.0,-1.7374,-1.8044,0.0,0.0,0.0,0.0,0.0,0.0,0.0,0.0,0.0,0.0,0.0,0.0,-0.9499,-1.0234,-1.0915,-1.1503,-1.1423,-1.1263,-1.1196,-1.0421,-0.9886,-0.9593,-0.9499,-0.9633,-1.0007,-1.1182,-1.2652,-1.4416,-1.5164,-1.6005,-1.6927,-1.7088,-1.7395,-1.7809,-1.7582,-1.6473,-1.4723,-1.4282,-1.3454,0.0,0.0,0.0,0.0,0.0,0.0,0.0,0.0,0.0,0.0,0.0,0.0,0.0,0.0,0.0,0.0,0.0,0.0,0.0,0.0,0.0,0.0,0.0,0.0,0.0,0.0,0.0,0.0,0.0,0.0,0.0,0.0,0.0,0.0,0.0,0.0,0.0,0.0,-1.2719,-1.3908,-1.4563,-1.4776,-1.4923,0.0,0.0,0.0,0.0,0.0,0.0,-1.8317,-1.9439,-2.0307,-2.0882,-2.1697,-2.2258,-2.2552,-2.314,-2.3661,-2.4115,-2.4396,-2.4649,-2.4863,-2.4714,-2.4714,-2.4714,-2.4402,-2.4127,-2.3523,-2.1978,-2.1002,-2.0401,-1.9666,-1.9519,-1.9653,-1.9212,-1.9519,-2.0147,0.0,0.0,0.0,0.0,0.0,0.0,0.0,0.0,0.0,0.0,0.0,-0.9384,-1.043,-1.0782,-1.1543,-1.2973,-1.2572,-1.2345,0.0,-1.157,-1.0795,-1.0564,-1.0221,-1.0341,-1.0915,-1.2906,-1.4389,-1.5324,-1.6473,-1.7208,-1.7555,-1.813,-1.8424,-1.8437,-1.8424,-1.7729,-1.6513,-1.5671,-1.479,-1.3868,0.0,0.0,0.0,0.0,0.0,0.0,0.0,0.0,0.0,0.0,0.0,0.0,0.0,0.0,0.0,0.0,0.0,0.0,0.0,0.0,0.0,0.0,0.0,0.0,0.0,0.0,0.0,0.0,0.0,0.0,0.0,0.0,0.0,0.0,0.0,0.0,0.0,0.0,0.0,-1.6059,-1.666,0.0,0.0,0.0,0.0,-1.7809,-1.8691,-1.9573,-2.0468,-2.1363,-2.2124,-2.2712,-2.334,-2.3794,-2.4088,-2.4676,-2.4983,-2.5024,-2.5304,-2.5451,-2.5464,-2.5006,-2.4853,-2.4853,-2.4073,-2.3451,-2.3254,-2.3119,-2.2832,-2.2258,-2.1937,-2.1817,-2.183,-2.1804,-2.1991,-2.2271,0.0,0.0,0.0,-0.8578,-0.8578,-0.8578,-0.8521,-0.8617,-0.8791,-0.896,-0.952,-1.0333,-1.139,-1.2317,-1.3154,-1.3926,-1.3804,-1.3559,-1.3066,-1.2118,-1.1343,-1.0862,-1.0915,-1.1597,-1.2959,-1.4442,-1.5645,-1.6526,-1.7328,-1.7969,-1.845,-1.8664,-1.8878,-1.9052,-1.8851,-1.8531,-1.8063,-1.6981,-1.6126,-1.5391,-1.4202,-1.308,0.0,0.0,0.0,0.0,0.0,0.0,0.0,0.0,0.0,0.0,0.0,0.0,0.0,0.0,0.0,0.0,0.0,0.0,0.0,0.0,0.0,0.0,0.0,0.0,0.0,0.0,0.0,0.0,0.0,0.0,0.0,0.0,0.0,0.0,0.0,0.0,0.0,-1.7595,-1.8223,0.0,0.0,-1.8958,-1.9372,-1.996,-2.0655,-2.1443,-2.2338,-2.3033,-2.3688,-2.4275,-2.4863,-2.5224,-2.5331,-2.5905,-2.6199,-2.6199,-2.6493,-2.664,-2.664,-2.616,-2.584,-2.5519,-2.4541,-2.3804,-2.3212,-2.315,-2.293,-2.2675,-2.3158,-2.3119,-2.295,-2.3051,-2.2769,-2.2408,-0.8492,-0.8802,0.0,-0.9105,-0.9105,-0.9065,-0.8926,-0.9139,-0.937,-0.956,-1.0459,-1.1522,-1.2633,-1.3751,-1.4712,-1.529,-1.5106,-1.4643,-1.409,-1.3042,-1.2236,-1.1749,-1.2136,-1.3066,-1.4643,-1.5725,-1.666,-1.7448,-1.805,-1.8597,-1.9078,-1.9172,-1.9372,-1.9653,-1.9452,-1.9359,-1.9305,-1.8424,-1.7528,-1.662,-1.5551,-1.4469,-1.3494,0.0,0.0,0.0,0.0,0.0,0.0,0.0,0.0,0.0,0.0,0.0,0.0,0.0,0.0,0.0,0.0,0.0,0.0,0.0,0.0,0.0,0.0,0.0,0.0,0.0,0.0,0.0,0.0,0.0,0.0,0.0,0.0,0.0,0.0,0.0,-1.8076,-1.8971,-1.9693,-2.0214,-2.0508,-2.0802,-2.1256,-2.1951,-2.2458,-2.3073,-2.3875,-2.4476,-2.5024,-2.5504,-2.5999,-2.6293,-2.64,-2.6774,-2.6974,-2.6974,-2.7175,-2.7268,-2.7268,-2.6626,-2.6121,-2.5627,-2.4459,-2.3422,-2.2622,-2.2633,-2.2727,-2.2698,-2.3719,-2.4031,-2.3881,-2.3974,-2.3451,-2.2645,-0.8668,-0.9235,-0.9723,-0.9723,-0.9723,-0.9625,-0.9368,-0.977,-1.0136,-1.014,-1.1471,-1.2883,-1.4119,-1.4973,-1.5937,-1.7146,-1.6272,-1.5662,-1.5634,-1.4335,-1.3393,-1.3119,-1.3831,-1.4683,-1.5845,-1.674,-1.7475,-1.8076,-1.8664,-1.9092,-1.9386,-1.9679,-1.996,-2.0227,-2.0227,-2.0227,-2.0214,-1.9933,-1.8985,-1.7582,-1.67,-1.5805,-1.4897,0.0,0.0,0.0,0.0,0.0,0.0,0.0,0.0,0.0,0.0,0.0,0.0,0.0,0.0,0.0,0.0,0.0,0.0,0.0,0.0,0.0,0.0,0.0,0.0,0.0,0.0,0.0,0.0,0.0,0.0,0.0,0.0,0.0,-1.6727,-1.805,-1.9319,-2.0187,-2.1069,-2.1724,-2.2017,-2.2311,-2.2859,-2.3741,-2.4088,-2.4516,-2.509,-2.5665,-2.6119,-2.6413,-2.6694,-2.6987,-2.7281,-2.7281,-2.7295,-2.7295,-2.7295,-2.7295,-2.7295,-2.6475,-2.5817,-2.5157,-2.3488,-2.231,-2.1976,-2.1976,-2.2132,-2.2698,-2.3781,-2.4495,-2.4996,-2.4931,-2.4278,-2.3267,-0.8967,-0.9505,-0.9902,-0.9902,-0.9902,-0.9862,-0.9686,-1.0112,-1.0696,-1.1336,-1.2564,-1.3901,-1.5202,-1.649,-1.7279,-1.722,-1.707,-1.6556,-1.5485,-1.4582,-1.4076,-1.4099,-1.4883,-1.5805,-1.6767,-1.7662,-1.8303,-1.8677,-1.9265,-1.9599,-1.9693,-1.9973,-2.016,-2.0227,-2.0227,-2.0227,-2.0227,-2.0147,-1.988,-1.9412,-1.8317,-1.7221,-1.6166,0.0,0.0,0.0,0.0,0.0,0.0,0.0,0.0,0.0,0.0,0.0,0.0,0.0,0.0,0.0,0.0,0.0,0.0,0.0,0.0,0.0,0.0,0.0,0.0,0.0,0.0,0.0,0.0,0.0,0.0,0.0,0.0,-1.7903,-1.7983,-1.9452,-2.0762,-2.1416,-2.2298,-2.2953,-2.3247,-2.3728,-2.4222,-2.469,-2.5197,-2.5638,-2.6012,-2.6386,-2.672,-2.7014,-2.7308,-2.7495,-2.7575,-2.7789,-2.7896,-2.7896,-2.7896,-2.7896,-2.7896,-2.7071,-2.6386,-2.5711,-2.4017,-2.3065,-2.273,-2.2392,-2.2441,-2.3207,-2.4243,-2.4554,-2.4517,-2.4735,-2.3356,-2.1146,-0.9159,-0.9751,-1.0157,-1.0157,-1.0137,-1.0155,-1.0207,-1.0581,-1.1204,-1.2198,-1.3485,-1.4854,-1.6364,-1.7613,-1.8394,-1.8448,-1.8091,-1.7584,-1.6907,-1.61,-1.5706,-1.5583,-1.6374,-1.7141,-1.7711,-1.8496,-1.8991,-1.9292,-1.9626,-1.992,-2.0174,-2.0334,-2.0481,-2.0601,-2.0601,-2.0601,-2.0601,-2.0601,-2.0535,-2.0361,-1.9679,-1.8691,-1.7555,-1.6901,-1.5965,-1.4977,-1.4723,-1.4108,-1.3307,-1.2599,0.0,0.0,0.0,0.0,0.0,0.0,0.0,0.0,0.0,0.0,0.0,0.0,0.0,0.0,0.0,0.0,0.0,0.0,0.0,0.0,0.0,0.0,0.0,0.0,-1.8624,-1.972,-2.008,-2.1015,-2.1884,-2.2472,-2.334,-2.3941,-2.4115,-2.4663,-2.517,-2.5598,-2.5945,-2.6319,-2.6734,-2.7028,-2.7268,-2.7442,-2.7736,-2.7883,-2.7883,-2.8056,-2.8136,-2.8136,-2.8136,-2.8136,-2.8136,-2.7474,-2.6796,0.0,-2.4909,-2.4132,-2.3654,-2.3121,-2.3371,0.0,0.0,0.0,0.0,0.0,-2.3123,-2.114,-0.9403,-0.9999,-1.0467,-1.0447,-1.039,-1.0469,-1.0818,-1.1094,-1.1657,-1.2889,-1.4218,-1.568,-1.7327,-1.8352,-1.9191,-1.9841,-1.9081,-1.8581,-1.8631,-1.8112,-1.7629,-1.7225,-1.8166,-1.8665,-1.8766,-1.9277,-1.9726,-1.9918,-1.9986,-2.0281,-2.0805,-2.0708,-2.0869,-2.1109,-2.1109,-2.1109,-2.1109,-2.1109,-2.0962,-2.0722,-2.0695,-2.0,-1.8865,-1.7796,-1.7007,-1.6393,-1.5845,-1.5431,-1.503,-1.4175,0.0,0.0,0.0,0.0,0.0,0.0,0.0,0.0,0.0,0.0,0.0,0.0,0.0,0.0,0.0,0.0,0.0,0.0,0.0,0.0,0.0,0.0,0.0,0.0,-2.0361,-2.1563,-2.2445,-2.2632,-2.2873,-2.3407,-2.4195,-2.4716,-2.4783,-2.5291,-2.5838,-2.64,-2.6493,-2.676,-2.7281,0.0,0.0,0.0,0.0,-2.8136,-2.8136,-2.8136,-2.8136,-2.8136,-2.8136,-2.8136,-2.815,-2.7643,-2.7304,-2.6796,-2.5921,-2.5239,-2.4885,-2.4143,-2.4496,-2.5701,-2.5545,-2.6007,-2.6488,-2.4849,-2.3434,-2.2372,-1.0291,-1.0568,-1.0867,-1.0791,-1.0677,-1.0762,-1.1206,-1.1374,-1.203,-1.3632,-1.4811,-1.5952,-1.7285,-1.8471,-1.9068,-1.8653,-1.8777,-1.8615,0.0,0.0,-1.8707,-1.8753,-1.9448,-2.0071,-2.0722,-2.0802,-2.084,-2.0968,-2.0874,-2.0931,-2.1053,-2.1034,-2.1056,-2.1109,-2.1109,-2.1109,-2.1109,-2.1109,-2.1082,-2.1002,-2.0775,-2.012,-1.9252,-1.9025,-1.8424,-1.7662,-1.7288,-1.682,-1.6273,-1.5618,-1.4897,-1.4122,-1.3307,0.0,0.0,0.0,0.0,0.0,0.0,0.0,0.0,0.0,0.0,0.0,0.0,0.0,0.0,0.0,0.0,0.0,0.0,0.0,0.0,-2.0762,-2.167,-2.2485,-2.338,-2.3915,-2.4249,-2.4369,-2.4743,-2.5184,-2.5651,-2.6012,-2.636,-2.6707,-2.7175,-2.7495,-2.7602,-2.7896,0.0,-2.8056,-2.811,-2.8136,-2.8136,-2.8136,-2.8136,-2.8136,0.0,0.0,-2.815,-2.7643,-2.7474,-2.7304,-2.6443,-2.6103,-2.6273,-2.5908,-2.6261,-2.7096,-2.6427,-2.6326,-2.6423,-2.4498,-2.3377,-2.2633,-1.1465,-1.1351,-1.1244,-1.1207,-1.1019,-1.1056,-1.1716,-1.1727,-1.222,-1.3736,-1.4654,-1.56,-1.6658,-1.7735,-1.8299,-1.8138,-1.8919,0.0,0.0,-2.0189,-2.0786,-2.0933,-2.1522,-2.1926,-2.1899,-2.2238,-2.2199,-2.1906,-2.1904,-2.1849,-2.1645,-2.142,-2.1235,-2.1109,-2.1109,-2.1109,-2.1109,-2.1109,-2.1109,-2.1096,-2.0949,-2.0454,-1.9773,-1.9479,-1.8905,-1.8223,-1.7929,-1.7528,-1.7074,-1.6633,-1.6005,-1.5271,-1.4536,-1.3694,-1.2772,0.0,0.0,0.0,0.0,0.0,0.0,0.0,0.0,0.0,0.0,0.0,0.0,0.0,0.0,-1.7689,0.0,0.0,-2.0628,-2.179,-2.2739,-2.3527,-2.4115,-2.4703,-2.5024,-2.4877,-2.5251,-2.5692,-2.6132,-2.644,-2.6787,-2.7228,-2.7535,-2.7762,-2.7909,-2.8056,-2.8136,-2.8136,-2.8136,-2.8136,-2.8136,-2.8136,-2.8136,-2.8136,-2.8136,-2.8136,-2.8136,-2.7981,-2.7812,-2.7812,-2.7292,-2.7292,-2.7461,-2.7292,-2.7461,-2.7799,-2.7486,-2.7236,-2.6961,-2.5842,-2.4948,-2.4028,-1.2507,-1.2126,-1.1748,-1.1653,-1.1518,-1.1634,-1.232,-1.2294,-1.2605,-1.3761,-1.4393,-1.5074,-1.5861,-1.6586,-1.7246,-1.7765,0.0,0.0,0.0,-2.2008,-2.2733,-2.299,-2.3583,-2.364,-2.319,-2.3699,-2.3737,-2.3093,-2.3142,-2.2857,-2.2355,-2.1978,-2.1614,-2.1362,-2.1362,-2.1362,-2.1362,-2.1362,-2.1362,-2.1235,-2.1235,-2.0762,-2.0174,-1.9653,-1.9078,-1.8531,-1.817,-1.7849,-1.7528,-1.7181,-1.6714,-1.6152,-1.5444,-1.4776,-1.4055,-1.3039,-1.2478,0.0,0.0,0.0,0.0,0.0,0.0,0.0,0.0,0.0,-1.7528,-1.8303,-1.9225,-2.004,-2.0561,-2.1336,-2.2111,-2.2752,-2.3661,-2.4409,-2.4756,-2.5211,-2.5424,-2.5197,-2.5638,-2.6092,-2.644,-2.6734,-2.7134,-2.7655,-2.7749,-2.7896,-2.8136,-2.8136,-2.8136,-2.8136,-2.8136,-2.8136,-2.8136,-2.8136,-2.8136,-2.8136,-2.8136,-2.8136,-2.8136,-2.8136,-2.8136,-2.8136,-2.8136,-2.8136,-2.8136,-2.8136,-2.8136,-2.8136,-2.8136,-2.7989,-2.7776,-2.7236,-2.6592,-2.5677,-1.2861,-1.2756,-1.2579,-1.233,-1.2519,-1.281,-1.3197,-1.3303,-1.3598,-1.4377,-1.4604,-1.4901,-1.5406,-1.5641,-1.6174,-1.7042,-1.8644,0.0,-2.0736,-2.2314,-2.3629,-2.4509,-2.4693,-2.5058,-2.5664,-2.5673,-2.5393,-2.5094,-2.4569,-2.4054,-2.3355,-2.2731,-2.2355,-2.1978,-2.2355,-2.223,-2.1992,-2.2355,-2.2104,-2.1488,-2.1488,-2.0997,-2.0201,-1.988,-1.9386,-1.8798,-1.825,-1.7849,-1.7502,-1.6941,-1.654,-1.6259,-1.6152,-1.5551,-1.479,-1.4389,0.0,-1.3494,-1.3681,-1.4496,-1.5378,-1.5738,-1.6513,-1.7355,0.0,0.0,-1.9559,-1.9907,-2.0895,-2.179,-2.2111,-2.2699,-2.3407,-2.4249,-2.4502,-2.4783,-2.5331,-2.5478,-2.5504,-2.5464,-2.5758,-2.6172,-2.672,-2.7041,-2.7348,-2.7669,-2.7949,-2.811,-2.8136,-2.8136,-2.8136,-2.8136,-2.8136,-2.8136,-2.8136,-2.8136,-2.8136,-2.8136,-2.8136,-2.8136,-2.8136,-2.8136,-2.8136,-2.8136,-2.8136,-2.8136,-2.8136,-2.8136,-2.8136,-2.8136,-2.8136,-2.8123,-2.8056,-2.7315,-2.7017,-2.6721,-1.299,-1.3025,-1.299,-1.2885,-1.2997,-1.319,-1.3524,-1.3625,-1.3892,-1.4402,-1.4503,-1.4574,-1.4759,-1.5034,-1.5704,-1.6747,-1.8182,-1.9715,-2.1326,-2.2802,-2.4068,-2.505,-2.5628,-2.602,-2.6169,-2.6662,-2.6733,-2.6255,-2.5846,-2.523,-2.4456,-2.3728,-2.323,-2.2981,-2.3106,-2.323,-2.3216,-2.323,-2.2981,-2.2716,-2.2281,-2.1704,-2.0977,-2.0498,-1.971,-1.873,-1.8235,-1.768,0.0,0.0,-1.6346,-1.5981,-1.5965,-1.5645,-1.519,-1.507,-1.4977,0.0,-1.5484,-1.6219,0.0,0.0,-1.8477,-1.9279,-1.988,-2.0695,-2.1403,-2.1697,-2.2432,-2.306,-2.318,-2.3554,-2.4008,0.0,-2.493,-2.5237,-2.5478,-2.5665,-2.5705,-2.5531,-2.5625,-2.5932,-2.652,-2.6987,-2.7388,-2.7682,-2.7976,-2.8136,-2.8136,-2.8136,-2.8136,-2.8136,-2.8136,-2.8136,-2.8136,-2.8136,-2.8136,-2.8136,-2.8136,-2.8136,-2.8136,-2.8136,-2.8136,-2.8136,-2.8136,-2.8136,-2.8136,-2.8136,-2.8136,-2.8136,-2.8136,-2.8136,-2.8123,-2.7848,-2.7689,-2.7324,-1.299,-1.3129,-1.3248,-1.3433,-1.3545,-1.3664,-1.3886,-1.4163,-1.445,-1.4698,-1.4609,-1.444,-1.4167,-1.4509,-1.5127,-1.6094,-1.748,-1.916,-2.1211,-2.2656,-2.3971,-2.5199,-2.5952,-2.6461,-2.6673,-2.73,-2.753,-2.7128,-2.683,-2.6202,-2.5391,-2.4881,-2.4454,-2.4086,-2.4425,-2.4579,-2.4687,-2.4486,-2.4209,-2.3809,-2.3217,-2.2453,-2.1683,-2.092,-1.9983,-1.8858,-1.8193,-1.7456,0.0,0.0,-1.6068,-1.5645,-1.5589,-1.5523,-1.551,-1.5498,-1.5899,-1.642,-1.6941,0.0,0.0,-1.9199,-2.0067,-2.0869,-2.1456,-2.2084,-2.2619,-2.2926,-2.334,-2.3647,-2.3647,-2.3955,0.0,-2.4703,-2.5184,-2.5545,-2.5625,-2.5745,-2.5718,-2.5424,-2.5398,-2.5585,-2.6092,-2.668,-2.7215,-2.7669,-2.7896,-2.8056,-2.8136,-2.8136,-2.8136,-2.8136,-2.8136,-2.8136,-2.8136,-2.8136,-2.8136,-2.8136,-2.8136,-2.8136,-2.8136,-2.8136,-2.8136,-2.8136,-2.8136,-2.8136,-2.8136,-2.8136,-2.8136,-2.8136,-2.8136,-2.8136,-2.8136,-2.8136,-2.8003,-2.7776,-1.2815,-1.3025,-1.3408,-1.3972,-1.4412,-1.4631,-1.4514,-1.5211,-1.5691,-1.5603,-1.5153,-1.4558,-1.3736,-1.3908,-1.4304,-1.4821,-1.6426,-1.8144,-1.9863,-2.1582,-2.332,-2.5019,-2.5527,-2.6367,-2.7637,-2.7767,-2.7867,-2.7936,-2.745,-2.6849,-2.629,-2.5949,-2.5625,-2.5403,-2.6489,-2.6537,-2.605,-2.6287,-2.5658,-2.4427,-2.4063,-2.3162,-2.1926,-2.1243,-2.0358,-1.9439,-1.8148,0.0,-1.6109,-1.5705,-1.5504,-1.5317,-1.4984,-1.5218,0.0,-1.5738,-1.6633,0.0,0.0,0.0,-1.988,-2.0481,-2.1283,-2.2084,-2.2672,-2.2832,-2.2939,-2.3247,-2.3327,-2.334,-2.334,-2.3808,-2.4396,-2.497,-2.5317,-2.5611,-2.5905,-2.5705,-2.5424,-2.513,-2.509,-2.5211,0.0,-2.6066,-2.6774,-2.7629,-2.7709,-2.7843,-2.8123,-2.8136,-2.8136,-2.8136,-2.8136,-2.8136,-2.8136,-2.8136,-2.8136,-2.8136,-2.8136,-2.8136,-2.8136,-2.8136,-2.8136,-2.8136,-2.8136,-2.8136,-2.8136,-2.8136,-2.8136,-2.8136,-2.8136,-2.8136,-2.8136,-2.8136,-2.8136,-2.8083,-1.2756,-1.3332,-1.3871,-1.4047,-1.4737,-1.524,-1.5175,-1.5581,-1.5913,-1.5869,-1.5311,0.0,0.0,0.0,0.0,0.0,-1.584,-1.7227,-1.8945,-2.043,-2.1855,-2.3301,-2.4336,-2.5195,-2.5937,-2.6559,-2.6917,-2.7008,-2.6892,-2.6683,-2.6403,-2.6346,-2.6294,-2.6197,-2.6812,-2.7105,-2.707,-2.6681,-2.6179,-2.5749,-2.4522,-2.3661,-2.2967,-2.1745,-2.0617,-1.9546,0.0,0.0,-1.6221,-1.5524,-1.5101,-1.4851,-1.4614,0.0,0.0,-1.6491,-1.7261,-1.8076,0.0,0.0,-2.0615,-2.159,-2.2205,-2.2672,-2.3073,-2.3327,-2.338,-2.3086,-2.318,-2.326,-2.306,-2.3354,-2.3808,-2.4409,-2.4903,-2.5331,-2.5625,-2.5571,-2.5478,-2.5384,-2.5197,0.0,0.0,0.0,0.0,-2.7362,-2.7589,-2.7829,-2.8123,-2.8136,-2.8136,-2.8136,-2.8136,-2.8136,-2.8136,-2.8136,-2.8136,-2.8136,-2.8136,-2.8136,-2.8136,-2.8136,-2.8136,-2.8136,-2.8136,-2.8136,-2.8136,-2.8136,-2.8136,-2.8136,-2.8136,-2.8136,-2.8136,-2.8136,-2.8136,-2.8096,-1.289,-1.3521,-1.4051,-1.4411,-1.4977,0.0,0.0,0.0,0.0,0.0,0.0,0.0,0.0,0.0,0.0,0.0,0.0,-1.6211,-1.7617,-1.9062,-2.0449,-2.1758,-2.291,-2.3848,-2.459,-2.5156,-2.5625,-2.599,-2.5977,-2.6012,-2.6008,-2.6114,-2.619,-2.6208,-2.6719,-2.6995,-2.7086,-2.6571,-2.6171,-2.5865,-2.4589,-2.3723,-2.3224,-2.1781,-2.0606,0.0,0.0,0.0,-1.6228,-1.5575,-1.5166,-1.4959,0.0,0.0,-1.6021,-1.719,-1.8036,-1.8878,-1.9853,-2.0695,-2.151,-2.2365,-2.2886,-2.3233,-2.3434,-2.346,-2.33,-2.2806,-2.2699,-2.2605,-2.2298,-2.2565,-2.3073,-2.3781,-2.4476,-2.5064,-2.5464,-2.5598,-2.5625,-2.5518,-2.5344,0.0,0.0,0.0,0.0,-2.7228,-2.7535,-2.7829,-2.8123,-2.8136,-2.8136,-2.8136,-2.8136,-2.8136,-2.8136,-2.8136,-2.8136,-2.8136,-2.8136,-2.8136,-2.8136,-2.8136,-2.8136,-2.8136,-2.8136,-2.8136,-2.8136,-2.8136,-2.8136,-2.8136,-2.8136,-2.8136,-2.8136,-2.8136,-2.8136,-2.8123,-1.3136,-1.3543,-1.4034,0.0,0.0,0.0,0.0,0.0,0.0,0.0,0.0,0.0,0.0,0.0,0.0,0.0,0.0,0.0,-1.6037,-1.7598,0.0,-2.041,-2.1289,-2.2344,-2.3594,-2.3652,-2.4062,-2.4863,-2.4639,-2.4679,-2.5179,-2.5343,-2.5452,-2.5471,-2.6072,-2.6244,-2.604,-2.5906,-2.5415,-2.4857,-2.4003,-2.3333,-2.2574,-2.1368,0.0,0.0,0.0,0.0,0.0,0.0,0.0,0.0,0.0,0.0,0.0,-1.7822,-1.8918,-1.9973,-2.0601,-2.159,-2.2512,-2.2832,-2.3327,-2.3741,-2.3714,-2.3233,-2.2699,-2.2378,-2.1844,-2.1349,0.0,0.0,-2.2191,-2.3086,-2.4008,-2.4823,-2.5411,-2.5772,-2.5879,0.0,0.0,0.0,0.0,0.0,0.0,-2.7241,0.0,-2.7829,-2.8123,-2.8136,-2.8136,-2.8136,-2.8136,-2.8136,-2.8136,-2.8136,-2.8136,-2.8136,-2.8136,-2.8136,-2.8136,-2.8136,-2.8136,-2.8136,-2.8136,-2.8136,-2.8136,-2.8136,-2.8136,-2.8136,-2.8136,-2.8136,-2.8136,-2.8136,-2.8136,-2.8136,0.0,0.0,0.0,0.0,0.0,0.0,0.0,0.0,0.0,0.0,0.0,0.0,0.0,0.0,0.0,0.0,0.0,0.0,-1.5527,0.0,0.0,0.0,0.0,-2.041,-2.1367,-2.1719,0.0,0.0,0.0,-2.3135,-2.3252,-2.3919,-2.4268,-2.4287,-2.4694,-2.4888,-2.4755,-2.4442,-2.4268,-2.3967,0.0,-2.2294,-2.1959,0.0,0.0,0.0,0.0,0.0,0.0,0.0,0.0,0.0,0.0,0.0,-1.7876,0.0,0.0,-2.0681,-2.1697,-2.2352,-2.2873,-2.3407,-2.3487,-2.3327,-2.2873,-2.2311,-2.1683,-2.0935,-2.0334,-1.9907,-1.9826,0.0,0.0,-2.1857,-2.33,0.0,-2.5104,-2.5812,0.0,0.0,0.0,-2.664,-2.7001,-2.7241,0.0,0.0,-2.7655,-2.7829,-2.8123,-2.8136,-2.8136,-2.8136,-2.8136,-2.8136,-2.8136,-2.8136,-2.8136,-2.8136,-2.8136,-2.8136,-2.8136,-2.8136,-2.8136,-2.8136,-2.8136,-2.8136,-2.8136,-2.8136,-2.8136,-2.8136,-2.8136,-2.8136,-2.8136,-2.8136,-2.8136,-2.8136,0.0,0.0,0.0,0.0,0.0,0.0,0.0,0.0,0.0,0.0,0.0,0.0,0.0,0.0,0.0,0.0,0.0,0.0,0.0,0.0,0.0,0.0,0.0,-1.8848,-1.9707,-1.9961,-2.0273,0.0,0.0,0.0,0.0,-2.2148,-2.2383,-2.2383,-2.2617,-2.2734,-2.2715,-2.248,0.0,0.0,0.0,0.0,0.0,0.0,0.0,0.0,0.0,0.0,0.0,0.0,0.0,-1.6619,-1.762,-1.832,-1.8958,-1.972,0.0,-2.1456,-2.2365,-2.2832,-2.318,-2.3661,-2.3447,-2.2966,-2.2365,-2.1577,-2.0695,-1.9679,-1.8998,0.0,-1.8424,0.0,0.0,0.0,0.0,0.0,-2.4943,-2.5838,-2.6493,0.0,-2.6934,0.0,-2.7428,-2.7602,-2.7749,0.0,-2.7896,-2.7963,-2.8136,-2.8136,-2.8136,-2.8136,-2.8136,-2.8136,-2.8136,-2.8136,-2.8136,-2.8136,-2.8136,-2.8136,-2.8136,-2.8136,-2.8136,-2.8136,0.0,-2.8136,-2.8136,-2.8136,-2.8136,-2.8136,-2.8136,-2.8136,-2.8136,-2.8136,-2.8136,-2.8136,0.0,0.0,0.0,0.0,0.0,0.0,0.0,0.0,0.0,0.0,0.0,0.0,0.0,0.0,0.0,0.0,0.0,0.0,0.0,0.0,0.0,0.0,0.0,-1.7578,0.0,0.0,0.0,0.0,0.0,0.0,0.0,0.0,0.0,0.0,0.0,0.0,0.0,0.0,0.0,0.0,0.0,0.0,0.0,0.0,0.0,0.0,0.0,0.0,0.0,0.0,-1.764,-1.7789,-1.8769,-1.9456,-2.008,-2.0628,-2.139,-2.2164,-2.2766,-2.3113,-2.338,-2.3594,-2.3193,-2.2565,-2.1857,-2.0788,-1.9626,-1.849,0.0,-1.7235,-1.7061,0.0,-1.8784,-2.0214,0.0,-2.3247,-2.4703,-2.5758,-2.6507,-2.6841,-2.7175,-2.7482,-2.7736,-2.7762,-2.7869,-2.8123,-2.8136,-2.8136,-2.8136,-2.8136,-2.8136,-2.8136,-2.8136,-2.8136,-2.8136,-2.8136,-2.8136,-2.8136,-2.8136,-2.8136,-2.8136,-2.8136,-2.8136,-2.8136,0.0,0.0,-2.8136,-2.8136,-2.8136,-2.8136,-2.8136,-2.8136,-2.8136,-2.8136,-2.8136,-2.8136,0.0,0.0,0.0,0.0,0.0,0.0,0.0,-1.2286,-1.2149,-1.2483,-1.2605,0.0,0.0,0.0,0.0,0.0,0.0,0.0,0.0,0.0,0.0,0.0,0.0,0.0,0.0,0.0,0.0,0.0,0.0,0.0,0.0,0.0,0.0,0.0,0.0,0.0,0.0,0.0,0.0,0.0,0.0,0.0,0.0,0.0,0.0,0.0,0.0,0.0,0.0,0.0,-1.847,-1.8796,-1.9453,-2.0213,-2.0949,-2.1296,-2.1844,-2.2472,-2.3086,-2.3287,-2.3273,-2.3073,-2.2579,-2.179,-2.0481,-1.9265,0.0,0.0,0.0,-1.5912,-1.6339,-1.6954,0.0,-1.9025,0.0,0.0,0.0,0.0,-2.6587,0.0,0.0,0.0,0.0,0.0,0.0,0.0,0.0,0.0,-2.8136,-2.8136,-2.8136,-2.8136,-2.8136,-2.8136,-2.8136,-2.8136,-2.8136,-2.8136,-2.8136,-2.8136,-2.8136,-2.8136,-2.8136,-2.8136,0.0,0.0,-2.8136,-2.8136,-2.8136,-2.8136,-2.8136,-2.8136,-2.8136,-2.8136,-2.8136,-2.8136,0.0,0.0,0.0,0.0,0.0,0.0,0.0,-1.1593,-1.1758,-1.2447,-1.2598,-1.2659,-1.2663,-1.2513,-1.2499,0.0,0.0,0.0,0.0,0.0,0.0,0.0,0.0,0.0,0.0,0.0,0.0,0.0,0.0,0.0,0.0,0.0,0.0,0.0,0.0,0.0,0.0,0.0,0.0,0.0,0.0,0.0,0.0,0.0,0.0,0.0,0.0,0.0,0.0,0.0,-1.9033,-1.9561,-2.0259,-2.1124,-2.1908,-2.2226,-2.2476,-2.2822,-2.343,-2.3346,-2.3046,-2.2899,-2.2191,-2.1189,-1.988,0.0,0.0,0.0,0.0,-1.4803,-1.5084,0.0,0.0,0.0,0.0,0.0,0.0,0.0,0.0,0.0,0.0,0.0,0.0,0.0,0.0,0.0,0.0,0.0,-2.8136,-2.8136,-2.8136,-2.8136,-2.8136,-2.8136,-2.8136,-2.8136,-2.8136,-2.8136,-2.8136,-2.8136,-2.8136,-2.8136,-2.8136,-2.8136,-2.8136,0.0,-2.8136,-2.8136,-2.8136,-2.8136,-2.8136,-2.8136,-2.8136,-2.8136,-2.8136,-2.8136,0.0,0.0,0.0,0.0,0.0,0.0,0.0,-1.132,-1.1736,-1.2752,-1.2975,-1.2948,-1.2809,-1.2552,-1.2519,0.0,0.0,0.0,0.0,0.0,0.0,0.0,0.0,0.0,0.0,0.0,0.0,0.0,0.0,0.0,0.0,0.0,0.0,0.0,0.0,0.0,0.0,0.0,0.0,0.0,0.0,0.0,0.0,0.0,0.0,0.0,0.0,0.0,0.0,0.0,-1.9428,-2.0194,-2.1064,-2.1817,-2.2486,-2.2889,-2.2976,-2.3236,-2.3653,-2.3351,-2.2875,-2.2619,-2.175,-2.0575,-1.9279,-1.7702,0.0,0.0,-1.4309,-1.3935,-1.4068,0.0,0.0,0.0,0.0,0.0,0.0,0.0,0.0,0.0,0.0,0.0,0.0,0.0,0.0,0.0,0.0,0.0,0.0,-2.8136,-2.8136,-2.8136,-2.8136,-2.8136,-2.8136,-2.8136,-2.8136,-2.8136,-2.8136,-2.8136,-2.8136,-2.8136,-2.8136,-2.8136,-2.8136,0.0,0.0,-2.8136,-2.8136,-2.8136,-2.8136,-2.8136,-2.8136,-2.8136,-2.8136,-2.8136,0.0,0.0,0.0,0.0,0.0,0.0,0.0,-1.1815,-1.2294,-1.298,-1.3672,-1.398,-1.3723,-1.298,-1.2445,0.0,0.0,0.0,0.0,0.0,0.0,0.0,0.0,0.0,0.0,0.0,0.0,0.0,0.0,0.0,0.0,0.0,0.0,0.0,0.0,0.0,0.0,0.0,0.0,0.0,0.0,0.0,0.0,0.0,0.0,0.0,0.0,0.0,0.0,0.0,0.0,-2.03,-2.1414,-2.2054,-2.2378,-2.2778,0.0,0.0,-2.3476,-2.3278,-2.2739,-2.1934,-2.0989,-1.9867,-1.8143,0.0,0.0,-1.4402,-1.3694,-1.3454,-1.3988,-1.4616,-1.5337,0.0,0.0,0.0,0.0,0.0,0.0,0.0,0.0,0.0,0.0,0.0,0.0,0.0,0.0,0.0,0.0,-2.8136,-2.8136,-2.8136,-2.8136,-2.8136,-2.8136,-2.8136,-2.8136,-2.8136,-2.8136,-2.8136,-2.8136,-2.8136,-2.8136,-2.8136,0.0,0.0,0.0,-2.8136,-2.8136,-2.8136,-2.8136,-2.8136,-2.8136,-2.8136,-2.8136,-2.8136,0.0,0.0,0.0,0.0,0.0,0.0,-1.1439,-1.1847,-1.2462,-1.3471,-1.4345,-1.4678,-1.446,-1.4169,-1.3665,-1.2842,0.0,0.0,0.0,0.0,0.0,0.0,0.0,0.0,0.0,0.0,0.0,0.0,0.0,0.0,0.0,0.0,0.0,0.0,0.0,0.0,0.0,0.0,0.0,0.0,0.0,0.0,0.0,0.0,0.0,0.0,0.0,0.0,0.0,0.0,0.0,0.0,-2.0558,-2.1015,0.0,0.0,-2.3365,-2.3171,-2.3379,-2.307,-2.2413,-2.1558,-2.0628,-1.9546,-1.7943,0.0,-1.503,-1.4028,-1.3347,-1.3053,-1.348,-1.4041,-1.4723,-1.5605,-1.6941,-1.8437,0.0,0.0,0.0,0.0,0.0,0.0,0.0,0.0,0.0,0.0,0.0,0.0,0.0,-2.8136,-2.8136,-2.8136,-2.8136,-2.8136,-2.8136,-2.8136,-2.8136,-2.8136,-2.8136,-2.8136,-2.8136,-2.8136,-2.8136,-2.8136,0.0,0.0,0.0,-2.8136,-2.8136,-2.8136,-2.8136,-2.8136,-2.8136,-2.8136,-2.8136,-2.8136,0.0,0.0,0.0,0.0,0.0,-1.0516,-1.1822,-1.2293,-1.2881,-1.3952,-1.485,-1.5274,-1.4983,-1.4902,-1.4499,-1.3569,-1.3499,0.0,0.0,0.0,0.0,0.0,0.0,0.0,0.0,0.0,0.0,0.0,0.0,0.0,0.0,0.0,0.0,0.0,0.0,0.0,0.0,0.0,0.0,0.0,0.0,0.0,0.0,0.0,0.0,0.0,0.0,0.0,0.0,0.0,0.0,0.0,0.0,0.0,0.0,0.0,-2.2926,-2.2579,-2.2985,-2.2552,-2.1737,-2.0953,-2.0,-1.8918,0.0,0.0,-1.4576,-1.3694,-1.3039,-1.2732,-1.3133,-1.3694,-1.4349,-1.5137,-1.6326,-1.7675,-1.9199,0.0,0.0,0.0,0.0,0.0,0.0,0.0,0.0,0.0,0.0,0.0,0.0,-2.8136,-2.8136,-2.8136,-2.8136,-2.8136,-2.8136,-2.8136,-2.8136,-2.8136,-2.8136,-2.8136,-2.8136,-2.8136,-2.8136,-2.8136,0.0,0.0,0.0,-2.8136,-2.8136,-2.8136,-2.8136,-2.8136,-2.8136,-2.8136,-2.8136,-2.8136,0.0,0.0,0.0,0.0,0.0,0.0,-1.2624,-1.3355,-1.3898,-1.426,-1.5233,-1.5718,-1.5371,-1.4925,-1.4554,-1.4126,-1.4034,0.0,0.0,0.0,0.0,0.0,0.0,0.0,0.0,0.0,0.0,0.0,0.0,0.0,0.0,0.0,0.0,0.0,0.0,0.0,0.0,0.0,0.0,0.0,0.0,0.0,-1.8008,0.0,0.0,0.0,0.0,0.0,0.0,0.0,0.0,0.0,0.0,0.0,0.0,0.0,-2.1794,-2.2071,-2.1985,-2.1334,-2.0642,-1.9932,-1.8931,-1.7756,0.0,-1.5378,-1.4282,-1.34,-1.2732,-1.2492,-1.3093,-1.3694,-1.4282,-1.487,-1.6192,-1.7462,-1.837,0.0,0.0,0.0,0.0,0.0,0.0,0.0,0.0,0.0,0.0,0.0,0.0,0.0,-2.8136,-2.8136,-2.8136,-2.8136,-2.8136,-2.8136,-2.8136,-2.8136,-2.8136,-2.8136,-2.8136,-2.8136,-2.8136,0.0,0.0,0.0,0.0,-2.8136,-2.8136,-2.8136,-2.8136,-2.8136,-2.8136,-2.8136,-2.8136,-2.8136,0.0,0.0,0.0,0.0,0.0,0.0,0.0,-1.353,-1.414,-1.4633,-1.5159,-1.5359,-1.4939,-1.4909,-1.4602,-1.3873,-1.3457,0.0,0.0,0.0,0.0,0.0,0.0,0.0,0.0,0.0,-1.6374,-1.6529,-1.7263,0.0,0.0,0.0,0.0,0.0,0.0,0.0,0.0,0.0,0.0,0.0,0.0,-1.7239,-1.7539,0.0,0.0,0.0,0.0,0.0,0.0,0.0,0.0,0.0,0.0,0.0,0.0,-1.7908,-1.9301,-2.0484,-2.0378,-2.012,-1.9626,-1.8762,-1.8009,-1.7181,-1.6192,-1.507,-1.4028,-1.3347,-1.2732,-1.2492,-1.3093,-1.352,-1.4041,-1.483,-1.6019,0.0,0.0,0.0,0.0,0.0,0.0,0.0,0.0,0.0,0.0,0.0,0.0,0.0,0.0,0.0,-2.8136,-2.8136,-2.8136,-2.8136,-2.8136,-2.8136,-2.8136,-2.8136,-2.8136,-2.8136,-2.8136,-2.8136,0.0,0.0,0.0,0.0,0.0,-2.8136,-2.8136,-2.8136,-2.8136,-2.8136,-2.8136,-2.8136,-2.8136,-2.8136,0.0,0.0,0.0,0.0,0.0,0.0,0.0,-1.3862,-1.427,-1.4758,-1.5018,-1.5049,-1.4728,-1.4619,-1.4347,-1.381,-1.3224,0.0,0.0,0.0,0.0,0.0,0.0,0.0,0.0,-1.5988,-1.6459,-1.6613,-1.7329,-1.7784,-1.7933,-1.7241,0.0,0.0,0.0,0.0,0.0,0.0,0.0,0.0,-1.6408,-1.6767,-1.7109,0.0,0.0,0.0,0.0,0.0,0.0,0.0,0.0,0.0,0.0,0.0,0.0,0.0,-1.6979,-1.8033,0.0,-1.8254,-1.7908,-1.7324,-1.6847,-1.6286,-1.5511,-1.4603,-1.3748,-1.316,-1.2732,-1.2625,-1.312,-1.3627,-1.4229,-1.5003,-1.6112,0.0,0.0,0.0,0.0,0.0,0.0,0.0,0.0,0.0,0.0,0.0,0.0,0.0,0.0,0.0,-2.8136,-2.8136,-2.8136,-2.8136,-2.8136,-2.8136,-2.8136,-2.8136,-2.8136,-2.8136,-2.8136,-2.8136,0.0,0.0,0.0,0.0,0.0,-2.8136,-2.8136,-2.8136,-2.8136,-2.8136,-2.8136,-2.8136,-2.8136,-2.8136,0.0,0.0,0.0,0.0,0.0,0.0,0.0,-1.4175,-1.4403,-1.4585,-1.4744,-1.4757,-1.463,-1.4163,-1.3842,-1.3842,-1.3234,0.0,0.0,0.0,0.0,0.0,0.0,0.0,0.0,-1.5834,-1.6555,-1.693,-1.7409,-1.7825,-1.823,-1.7478,-1.6884,-1.6386,0.0,0.0,0.0,0.0,0.0,0.0,-1.6172,-1.6534,0.0,0.0,0.0,0.0,0.0,0.0,0.0,0.0,0.0,0.0,0.0,0.0,0.0,0.0,0.0,0.0,0.0,-1.5913,-1.5746,-1.5658,-1.5524,-1.5164,-1.4616,-1.4015,0.0,-1.2943,-1.2822,-1.2929,-1.3173,-1.3961,-1.4736,-1.5324,0.0,0.0,0.0,0.0,0.0,0.0,0.0,0.0,0.0,0.0,0.0,0.0,0.0,0.0,0.0,0.0,-2.8136,-2.8136,-2.8136,-2.8136,-2.8136,-2.8136,-2.8136,-2.8136,-2.8136,-2.8136,-2.8136,-2.8136,0.0,0.0,0.0,0.0,0.0,-2.8136,-2.8136,-2.8136,-2.8136,-2.8136,-2.8136,-2.8136,-2.8136,-2.8136,0.0,0.0,0.0,0.0,0.0,0.0,0.0,0.0,0.0,0.0,-1.4103,-1.4121,-1.3882,-1.3516,-1.3273,0.0,0.0,0.0,0.0,0.0,0.0,0.0,0.0,0.0,0.0,-1.5425,-1.6015,-1.6637,-1.7045,-1.7412,-1.7757,-1.6991,-1.6316,-1.5546,-1.4552,-1.3802,0.0,0.0,0.0,0.0,-1.5359,-1.5696,0.0,0.0,0.0,0.0,-1.5723,-1.5544,0.0,0.0,0.0,0.0,0.0,0.0,0.0,0.0,-1.3425,-1.2945,-1.3257,0.0,-1.5075,-1.4892,-1.4603,-1.4362,0.0,-1.3547,-1.2919,-1.2849,0.0,-1.2906,-1.344,-1.4269,-1.5044,0.0,0.0,0.0,0.0,0.0,0.0,0.0,0.0,0.0,0.0,0.0,0.0,0.0,0.0,0.0,0.0,0.0,-2.8136,-2.8136,-2.8136,-2.8136,-2.8136,-2.8136,-2.8136,-2.8136,-2.8136,-2.8136,-2.8136,-2.8136,0.0,0.0,0.0,0.0,-2.8136,-2.8136,-2.8136,-2.8136,-2.8136,-2.8136,-2.8136,-2.8136,-2.8136,-2.8136,0.0,0.0,0.0,0.0,0.0,0.0,0.0,0.0,0.0,0.0,0.0,-1.381,-1.3525,-1.3258,0.0,0.0,0.0,0.0,0.0,0.0,0.0,0.0,0.0,0.0,-1.4363,-1.5096,-1.5888,-1.6646,-1.6934,-1.7364,-1.7861,-1.6846,-1.6111,-1.5545,-1.4277,-1.3443,0.0,0.0,0.0,0.0,-1.5115,0.0,0.0,0.0,0.0,0.0,-1.5117,-1.5022,0.0,-1.5021,-1.4862,-1.4547,0.0,0.0,0.0,0.0,-1.2743,-1.224,-1.2333,-1.3141,-1.3899,-1.3881,-1.4001,-1.4055,-1.3908,0.0,0.0,0.0,0.0,-1.3507,-1.3961,0.0,0.0,0.0,0.0,0.0,0.0,0.0,0.0,0.0,0.0,0.0,0.0,0.0,0.0,0.0,0.0,0.0,0.0,0.0,-2.8136,-2.8136,-2.8136,-2.8136,-2.8136,-2.8136,-2.8136,-2.8136,-2.8136,-2.8136,-2.8136,-2.8136,0.0,0.0,0.0,0.0,-2.8136,-2.8136,-2.8136,-2.8136,-2.8136,-2.8136,-2.8136,-2.8136,-2.8136,-2.8123,0.0,0.0,0.0,0.0,0.0,0.0,0.0,0.0,0.0,0.0,0.0,0.0,0.0,0.0,0.0,0.0,0.0,0.0,0.0,0.0,0.0,0.0,0.0,-1.3659,-1.3907,-1.4923,-1.5854,-1.6682,-1.6946,-1.7395,-1.7994,-1.6748,-1.5983,-1.5498,-1.4175,-1.3348,0.0,0.0,0.0,-1.4706,-1.5079,0.0,0.0,0.0,0.0,0.0,0.0,0.0,0.0,-1.4869,-1.4845,-1.4606,-1.4469,0.0,0.0,0.0,0.0,0.0,-1.2333,-1.2627,-1.2906,-1.3307,-1.3788,-1.4095,-1.3895,0.0,0.0,0.0,0.0,0.0,0.0,0.0,0.0,0.0,0.0,0.0,0.0,0.0,0.0,0.0,0.0,0.0,0.0,0.0,0.0,0.0,0.0,0.0,0.0,0.0,0.0,-2.8136,-2.8136,-2.8136,-2.8136,-2.8136,-2.8136,-2.8136,-2.8136,-2.8136,-2.8136,-2.8136,-2.8136,0.0,0.0,0.0,-2.8136,-2.8136,-2.8136,-2.8136,-2.8136,-2.8136,-2.8136,-2.8136,-2.811,-2.803,0.0,0.0,0.0,0.0,0.0,0.0,0.0,0.0,0.0,0.0,0.0,0.0,0.0,0.0,0.0,0.0,0.0,0.0,0.0,0.0,0.0,0.0,-1.3477,-1.3659,-1.3907,-1.4805,-1.5468,-1.5965,-1.6472,-1.6911,-1.7177,-1.6521,-1.5418,-1.4035,-1.3569,-1.3203,-1.3009,-1.3709,-1.4249,-1.4706,0.0,0.0,0.0,0.0,0.0,0.0,0.0,0.0,0.0,-1.4184,-1.4212,-1.4327,-1.401,0.0,0.0,0.0,0.0,0.0,-1.2054,-1.2641,-1.3333,-1.4122,-1.4389,-1.4509,-1.471,0.0,0.0,0.0,0.0,0.0,0.0,0.0,0.0,0.0,0.0,0.0,0.0,0.0,0.0,0.0,0.0,0.0,0.0,0.0,0.0,0.0,0.0,0.0,0.0,0.0,0.0,-2.8136,-2.8136,-2.8136,-2.8136,-2.8136,-2.8136,-2.8136,-2.8136,-2.8136,-2.8136,-2.8136,-2.8136,0.0,0.0,-2.8136,-2.8136,-2.8136,-2.8136,-2.8136,-2.8136,-2.8136,-2.8136,-2.8136,-2.7989,-2.7682,0.0,0.0,0.0,0.0,0.0,0.0,0.0,0.0,0.0,0.0,0.0,0.0,0.0,0.0,0.0,0.0,0.0,0.0,0.0,0.0,0.0,-1.3496,-1.384,-1.4122,-1.4261,-1.5013,-1.5464,-1.5702,-1.6436,-1.6841,-1.6789,-1.6354,-1.5481,-1.433,-1.4174,-1.3894,-1.3571,-1.4249,-1.4725,-1.4961,0.0,0.0,0.0,0.0,0.0,0.0,0.0,0.0,0.0,0.0,-1.3838,-1.3667,-1.358,0.0,0.0,0.0,0.0,0.0,-1.226,-1.2912,-1.3734,-1.4923,-1.511,-1.507,-1.5364,0.0,0.0,0.0,0.0,0.0,0.0,0.0,0.0,0.0,0.0,0.0,0.0,0.0,0.0,0.0,0.0,0.0,0.0,0.0,0.0,0.0,0.0,0.0,0.0,0.0,0.0,0.0,-2.8136,-2.8136,-2.8136,-2.8136,-2.8136,-2.8136,-2.8136,-2.8136,-2.8136,-2.8136,-2.8136,-2.8136,0.0,-2.8136,-2.8136,-2.8136,-2.8136,-2.8136,-2.8136,-2.8136,-2.8123,-2.7963,-2.7615,-2.7188,0.0,0.0,0.0,0.0,0.0,0.0,0.0,0.0,0.0,0.0,0.0,0.0,0.0,0.0,0.0,0.0,0.0,0.0,0.0,0.0,-1.3105,-1.3633,-1.4176,-1.4582,-1.4736,-1.5387,-1.5687,-1.5642,-1.6492,-1.6775,-1.6592,-1.6316,-1.5734,-1.4985,-1.4913,-1.4568,-1.4189,-1.4784,-1.5098,-1.5215,0.0,0.0,0.0,0.0,0.0,0.0,0.0,0.0,0.0,0.0,0.0,0.0,0.0,0.0,0.0,-1.1747,-1.1525,-1.157,-1.2271,-1.2983,-1.3975,-1.5378,-1.5658,-1.5712,-1.6139,0.0,0.0,0.0,0.0,0.0,0.0,0.0,0.0,0.0,0.0,0.0,0.0,0.0,0.0,0.0,0.0,0.0,0.0,0.0,0.0,0.0,0.0,0.0,0.0,0.0,0.0,0.0,-2.8043,-2.8043,-2.8043,-2.8043,-2.807,-2.8136,-2.8136,-2.8136,-2.8136,-2.8136,-2.8136,-2.8136,-2.8136,-2.8136,-2.8136,-2.807,-2.8043,-2.803,-2.8144,-2.7936,-2.7896,-2.7602,-2.7215,-2.6814,0.0,0.0,0.0,0.0,0.0,0.0,0.0,0.0,0.0,0.0,0.0,0.0,0.0,0.0,0.0,0.0,0.0,0.0,0.0,0.0,-1.3242,-1.4009,-1.433,-1.4715,-1.5142,-1.5793,-1.6062,-1.5771,-1.6445,-1.6664,-1.6582,-1.6439,-1.597,-1.5274,-1.5095,-1.4873,-1.4647,-1.502,-1.5215,-1.5215,-1.5215,0.0,0.0,0.0,0.0,0.0,0.0,0.0,0.0,0.0,0.0,0.0,0.0,0.0,-1.156,-1.1247,-1.1205,-1.1315,-1.18,-1.2759,-1.3935,-1.5124,-1.5818,0.0,-1.7261,-1.7475,0.0,-1.7862,0.0,0.0,0.0,0.0,0.0,0.0,0.0,0.0,0.0,0.0,0.0,0.0,0.0,0.0,0.0,0.0,0.0,0.0,0.0,0.0,0.0,0.0,0.0,0.0,0.0,-2.7736,-2.7736,-2.7736,-2.7869,-2.8136,-2.8136,-2.8136,-2.8136,-2.8136,-2.8136,-2.8136,-2.8136,-2.8136,-2.8123,-2.7829,-2.7722,-2.7709,-2.762,-2.7499,-2.7105,-2.6987,-2.6854,-2.6787,0.0,0.0,0.0,0.0,0.0,0.0,0.0,0.0,0.0,0.0,0.0,0.0,0.0,0.0,0.0,0.0,0.0,0.0,0.0,0.0,-1.3145,-1.3711,-1.4141,-1.4618,-1.5179,-1.6115,-1.637,-1.5896,-1.6316,-1.6911,-1.7594,-1.6706,-1.621,-1.5932,-1.5333,-1.4854,-1.4588,-1.4725,-1.4784,-1.4784,-1.4784,-1.4222,0.0,0.0,0.0,0.0,0.0,0.0,0.0,0.0,-1.1114,-1.1279,-1.1138,-1.1113,-1.1059,-1.0933,-1.1084,-1.1451,-1.1984,-1.3013,-1.4202,-1.5378,-1.6246,0.0,0.0,-1.8571,-1.9052,-1.9345,-1.988,0.0,0.0,0.0,0.0,0.0,0.0,0.0,0.0,0.0,0.0,0.0,0.0,0.0,0.0,0.0,0.0,0.0,0.0,0.0,0.0,0.0,0.0,0.0,0.0,-2.7428,-2.7428,-2.7428,-2.7482,-2.7602,-2.7602,-2.7602,-2.7602,-2.7602,-2.7602,-2.7602,-2.7602,-2.7602,-2.7589,-2.7468,-2.7428,-2.7415,-2.7485,-2.7161,-2.6974,-2.6867,-2.672,-2.6533,0.0,0.0,0.0,0.0,0.0,0.0,0.0,0.0,0.0,0.0,0.0,0.0,0.0,0.0,0.0,0.0,0.0,0.0,-1.2891,-1.2891,-1.3066,-1.3496,-1.393,-1.4487,-1.5116,-1.603,-1.6312,-1.5961,-1.6283,-1.6867,-1.7604,-1.6581,-1.5968,-1.5834,-1.5159,-1.4623,-1.435,-1.435,-1.435,-1.435,-1.4231,-1.3647,0.0,0.0,0.0,0.0,0.0,0.0,0.0,0.0,-1.0334,-1.0378,-1.0477,-1.0546,-1.0635,-1.0826,-1.1034,-1.1463,-1.2225,-1.3253,-1.4389,0.0,0.0,0.0,-1.8811,-1.9506,-2.004,-2.0428,0.0,0.0,0.0,0.0,0.0,0.0,0.0,0.0,0.0,0.0,0.0,0.0,0.0,0.0,0.0,0.0,0.0,0.0,0.0,0.0,0.0,0.0,0.0,0.0,0.0,-2.7121,-2.7121,-2.7121,-2.7081,-2.6987,-2.6987,-2.7081,-2.7268,-2.7268,-2.7268,-2.7268,-2.7268,-2.7268,-2.7255,-2.7161,-2.7068,-2.6987,-2.6987,-2.6867,-2.6867,-2.6867,-2.6573,-2.6386,0.0,0.0,0.0,0.0,0.0,0.0,0.0,0.0,0.0,0.0,0.0,0.0,0.0,0.0,0.0,0.0,0.0,0.0,-1.2891,-1.2891,-1.3066,-1.3477,-1.3768,-1.422,-1.4864,-1.5489,-1.5914,-1.6207,-1.6319,-1.6419,-1.6455,-1.5848,-1.5333,-1.4746,-1.4369,-1.413,-1.401,-1.401,-1.401,-1.395,-1.3631,-1.3065,-1.2342,0.0,0.0,0.0,0.0,0.0,0.0,0.0,-0.9314,-0.9452,-0.965,-0.9886,-1.0234,-1.0822,-1.0995,-1.1249,-1.2513,-1.3414,-1.4456,0.0,0.0,0.0,0.0,0.0,0.0,0.0,0.0,0.0,0.0,0.0,0.0,0.0,0.0,0.0,0.0,0.0,0.0,0.0,0.0,0.0,0.0,0.0,0.0,0.0,0.0,0.0,0.0,0.0,0.0,0.0,0.0,0.0,-2.6814,-2.6814,-2.668,-2.6386,-2.6386,-2.6694,-2.7255,-2.7255,-2.7255,-2.7255,-2.7255,-2.7255,-2.7241,-2.6934,-2.6653,-2.6386,-2.6386,-2.6386,-2.6386,-2.6386,-2.6386,-2.6386,0.0,0.0,0.0,0.0,0.0,0.0,0.0,0.0,0.0,0.0,0.0,0.0,0.0,0.0,0.0,0.0,0.0,0.0,-1.2891,-1.2891,-1.293,-1.3066,-1.3323,-1.3547,-1.3742,-1.4393,-1.542,-1.6792,-1.6591,-1.6528,-1.6671,-1.5871,-1.5303,-1.4967,-1.4013,-1.3468,-1.3247,-1.2816,-1.2597,-1.2597,-1.2474,-1.2145,-1.1604,0.0,0.0,0.0,0.0,0.0,0.0,0.0,0.0,0.0,-0.965,-0.9886,-1.0234,-1.0822,-1.1289,-1.1824,-1.2812,-1.4015,0.0,0.0,0.0,0.0,0.0,0.0,0.0,0.0,0.0,0.0,0.0,0.0,0.0,0.0,0.0,0.0,0.0,0.0,0.0,0.0,0.0,0.0,0.0,0.0,0.0,0.0,0.0,0.0,0.0,0.0,0.0,0.0,0.0,0.0,-2.652,-2.652,-2.648,-2.6386,-2.6386,-2.648,-2.6653,-2.6653,-2.6653,-2.6653,-2.6653,-2.6653,-2.664,-2.6547,-2.6466,-2.6386,-2.6386,-2.6386,-2.6386,-2.6386,-2.6386,-2.6386,0.0,0.0,0.0,0.0,0.0,0.0,0.0,0.0,0.0,0.0,0.0,-1.1267,0.0,0.0,0.0,0.0,0.0,0.0,0.0,-1.2891,-1.2891,-1.2891,-1.3075,-1.3239,-1.3394,-1.3911,-1.4715,-1.5858,-1.5701,-1.5757,-1.5952,-1.5079,-1.4536,-1.4272,-1.3413,-1.2789,-1.238,-1.1858,-1.1586,-1.1481,-1.1555,-1.1212,-1.074,0.0,0.0,0.0,0.0,0.0,0.0,0.0,0.0,0.0,-0.961,-0.9806,-1.01,-1.0929,-1.1503,-1.2144,-1.34,0.0,0.0,0.0,0.0,0.0,0.0,0.0,0.0,0.0,0.0,0.0,0.0,0.0,0.0,0.0,0.0,0.0,0.0,0.0,0.0,0.0,0.0,0.0,0.0,0.0,0.0,0.0,0.0,0.0,0.0,0.0,0.0,0.0,0.0,0.0,-2.6386,-2.6386,-2.6386,-2.6386,-2.6386,-2.6386,-2.6386,-2.6386,-2.6386,-2.6386,-2.6386,-2.6386,-2.6386,-2.6386,-2.6386,-2.6386,-2.6386,-2.6386,-2.6386,-2.6386,-2.6386,-2.6386,0.0,0.0,-0.7673,-0.7741,0.0,0.0,0.0,0.0,0.0,0.0,-1.1318,-1.1719,0.0,0.0,0.0,-1.2676,-1.2822,-1.2891,0.0,0.0,-1.2891,-1.2891,-1.2891,-1.3086,-1.3445,-1.3743,-1.3903,-1.3888,-1.4183,-1.4411,-1.4591,-1.3967,-1.3476,-1.3188,-1.2737,-1.2153,-1.1527,-1.1163,-1.0828,-1.0624,-1.0739,-1.0451,-0.9854,-0.9824,0.0,0.0,0.0,0.0,0.0,0.0,0.0,0.0,-0.9472,-0.9659,-0.9913,-1.1049,-1.1637,-1.2291,-1.4041,0.0,0.0,0.0,0.0,0.0,0.0,0.0,0.0,0.0,0.0,0.0,0.0,0.0,0.0,0.0,0.0,0.0,0.0,0.0,0.0,0.0,0.0,0.0,0.0,0.0,0.0,0.0,0.0,0.0,0.0,0.0,0.0,0.0,0.0,0.0,-2.6306,-2.6306,-2.6306,0.0,-2.6306,-2.6306,-2.6306,-2.636,-2.6386,-2.6386,-2.6386,-2.6386,-2.6386,-2.6386,-2.6386,-2.6386,-2.6386,-2.6386,-2.6386,-2.6386,-2.6386,-2.6386,0.0,0.0,-0.7503,-0.7334,0.0,0.0,0.0,0.0,-1.0506,-1.1116,-1.1669,-1.2085,-1.2382,-1.2578,0.0,-1.2676,-1.2822,-1.2891,-1.2891,0.0,-1.2891,-1.2891,-1.2891,-1.3036,-1.3343,-1.301,-1.2846,-1.2958,-1.3756,-1.4033,-1.3838,-1.4036,-1.3786,-1.3142,-1.2624,-1.1983,-1.1316,-1.0588,-1.0192,-0.9918,-0.9928,-0.9874,-0.9738,-0.9448,-0.9259,0.0,0.0,0.0,0.0,0.0,0.0,0.0,-0.9218,-0.9499,-0.9873,-1.0808,-1.1623,-1.2545,0.0,0.0,0.0,0.0,0.0,0.0,0.0,0.0,0.0,0.0,0.0,0.0,0.0,0.0,0.0,0.0,0.0,0.0,0.0,0.0,0.0,0.0,0.0,0.0,0.0,0.0,0.0,0.0,0.0,0.0,0.0,0.0,0.0,0.0,0.0,-2.5705,-2.5705,-2.5872,-2.5872,0.0,-2.5524,-2.5524,-2.5718,-2.6172,-2.6386,-2.6386,-2.6386,-2.6386,-2.6386,-2.6386,-2.6386,-2.6386,-2.6386,-2.6386,-2.6386,-2.6386,-2.6386,-2.6386,0.0,0.0,0.0,0.0,0.0,0.0,0.0,0.0,-1.0812,-1.1519,-1.1918,-1.2332,-1.2676,-1.2725,0.0,0.0,-1.2871,-1.2891,-1.2891,-1.2891,-1.2891,-1.2891,-1.2891,-1.2939,-1.3003,-1.2544,-1.2277,-1.2226,-1.2696,-1.3002,-1.3136,-1.3296,-1.324,-1.302,-1.2312,-1.1597,-1.0948,-1.0215,-0.9659,-0.9272,-0.9419,-0.9392,-0.9259,-0.9245,-0.9097,-0.9018,-0.8858,0.0,0.0,0.0,0.0,0.0,0.0,0.0,-0.9646,-1.0528,-1.1303,-1.2238,0.0,0.0,0.0,0.0,0.0,0.0,0.0,0.0,0.0,0.0,0.0,0.0,0.0,0.0,0.0,0.0,0.0,0.0,0.0,0.0,0.0,0.0,0.0,0.0,0.0,0.0,0.0,0.0,0.0,0.0,0.0,0.0,0.0,0.0,-2.5518,-2.5518,-2.5518,-2.5518,-2.5518,-2.5518,-2.5338,-2.5338,-2.5531,-2.5972,-2.6186,-2.6186,-2.6333,-2.6386,-2.6386,-2.6386,-2.6386,-2.6386,-2.6386,-2.6386,-2.6386,-2.6386,-2.6386,-2.6386,0.0,0.0,0.0,0.0,0.0,0.0,0.0,0.0,0.0,-1.1819,-1.2184,-1.248,-1.2871,-1.2891,-1.2891,0.0,0.0,0.0,-1.2891,-1.2891,-1.2891,-1.2891,-1.2871,-1.2774,-1.2627,-1.2215,-1.1819,-1.1519,-1.1535,0.0,0.0,0.0,-1.2617,-1.2769,-1.2096,-1.1356,-1.0577,-0.9927,-0.9339,-0.8831,-0.9072,-0.9018,-0.8831,-0.9017,-0.9018,-0.8804,-0.8804,-0.8804,-0.8804,-0.8804,0.0,0.0,0.0,0.0,-0.9336,-1.018,-1.0862,-1.173,0.0,0.0,0.0,0.0,0.0,0.0,0.0,0.0,0.0,0.0,0.0,0.0,0.0,0.0,0.0,0.0,0.0,0.0,0.0,0.0,0.0,0.0,0.0,0.0,0.0,0.0,0.0,0.0,0.0,0.0,0.0,0.0,-2.5358,-2.5358,-2.5358,-2.5358,-2.5358,-2.5192,-2.5192,-2.5358,-2.5192,-2.5192,-2.5371,-2.5665,-2.5838,-2.5892,-2.6132,-2.6239,-2.6239,-2.6239,-2.6239,-2.6239,-2.6239,-2.6239,-2.6239,-2.6239,-2.6239,-2.6239,0.0,0.0,0.0,0.0,0.0,0.0,0.0,0.0,0.0,0.0,-1.2431,-1.2725,-1.2871,-1.2891,-1.2891,-1.2891,-1.2891,-1.2891,-1.2891,0.0,0.0,-1.2891,-1.2774,-1.2627,-1.2382,-1.1819,-1.1318,-1.0812,-1.088,0.0,0.0,0.0,0.0,-1.2431,0.0,-1.1546,-1.0577,-0.9927,-0.9339,-0.8804,-0.8844,-0.8844,-0.8804,-0.8844,-0.8844,-0.8804,-0.8804,-0.8804,-0.8804,-0.8804,-0.8804,0.0,0.0,0.0,0.0,0.0,-1.0394,-1.1383,0.0,0.0,0.0,0.0,0.0,0.0,0.0,0.0,0.0,0.0,0.0,0.0,0.0,0.0,0.0,0.0,0.0,0.0,0.0,0.0,0.0,0.0,0.0,0.0,0.0,0.0,0.0,0.0,0.0,0.0,0.0,-2.473,-2.4756,-2.4756,-2.4756,-2.4756,-2.4756,-2.4743,-2.4743,-2.4756,-2.4743,-2.4743,-2.477,-2.5064,-2.5331,-2.5571,-2.5611,-2.5625,-2.5625,-2.5625,-2.5625,-2.5625,-2.5625,-2.5625,-2.5625,-2.5625,-2.5625,-2.5625,0.0,0.0,0.0,0.0,0.0,0.0,0.0,0.0,0.0,0.0,0.0,-1.2725,-1.2891,-1.2891,-1.2891,-1.2891,-1.2891,-1.2891,-1.2891,-1.2891,0.0,0.0,-1.2774,-1.2529,-1.2184,-1.1669,-1.1065,-1.0403,0.0,0.0,0.0,-1.236,-1.2802,0.0,0.0,0.0,-1.1009,-1.0421,-0.974,-0.9058,-0.9232,-0.9299,-0.9312,-0.9486,-0.9539,-0.9526,-0.9352,-0.9192,-0.9018,-0.8858,-0.8804,-0.8804,-0.8804,0.0,0.0,0.0,0.0,0.0,0.0,0.0,0.0,0.0,0.0,0.0,0.0,0.0,0.0,0.0,0.0,0.0,0.0,0.0,0.0,0.0,0.0,0.0,0.0,0.0,0.0,0.0,0.0,0.0,0.0,0.0,0.0,0.0,0.0,0.0,-2.4155,-2.4302,-2.4396,-2.4396,-2.4556,-2.4636,-2.4636,-2.4636,-2.4636,-2.4636,-2.4636,-2.4636,-2.4636,-2.477,-2.4997,-2.5277,-2.5438,-2.5518,-2.5518,-2.5518,-2.5518,-2.5518,-2.5518,-2.5518,-2.5518,-2.5518,-2.5518,-2.5518,0.0,0.0,0.0,0.0,0.0,0.0,0.0,0.0,0.0,0.0,0.0,-1.2774,-1.2891,0.0,0.0,0.0,-1.2891,-1.2891,-1.2891,0.0,0.0,0.0,0.0,-1.2382,-1.1968,-1.1368,-1.0761,0.0,0.0,0.0,-1.1098,-1.215,-1.2795,0.0,-1.2782,-1.2238,0.0,0.0,-1.0207,-0.9429,-0.9793,-0.9913,-0.994,-1.0314,-1.0448,-1.0408,-1.0114,-0.9833,0.0,0.0,0.0,0.0,0.0,0.0,0.0,0.0,0.0,0.0,0.0,0.0,0.0,0.0,0.0,0.0,0.0,0.0,0.0,0.0,0.0,0.0,0.0,0.0,0.0,0.0,0.0,0.0,0.0,0.0,0.0,0.0,0.0,0.0,0.0,0.0,0.0,0.0,0.0,0.0,-2.3768,-2.3981,-2.4102,-2.4102,-2.4302,-2.4422,-2.4422,-2.4422,-2.4449,-2.4529,-2.4529,-2.4569,-2.4636,-2.4636,-2.4756,-2.4983,-2.5197,-2.5291,-2.5291,-2.5291,-2.5291,-2.5291,-2.5291,-2.5291,-2.5291,-2.5291,-2.5291,-2.5291,0.0,0.0,0.0,0.0,0.0,0.0,0.0,0.0,0.0,0.0,0.0,-1.2871,-1.2891,-1.2891,-1.2891,-1.2891,-1.2891,-1.2891,-1.2891,0.0,0.0,0.0,0.0,0.0,-1.1519,-1.0812,0.0,0.0,0.0,0.0,-1.0672,-1.177,-1.2639,-1.32,-1.3454,-1.2933,-1.181,0.0,0.0,-1.01,-1.0394,-1.0577,-1.0645,-1.1142,-1.1356,-1.1316,-1.1022,0.0,0.0,0.0,0.0,0.0,0.0,0.0,-0.8804,0.0,0.0,0.0,0.0,0.0,0.0,0.0,0.0,0.0,0.0,0.0,0.0,0.0,0.0,0.0,0.0,0.0,0.0,0.0,0.0,0.0,0.0,0.0,0.0,0.0,0.0,0.0,0.0,0.0,0.0,0.0,0.0,0.0,-2.3768,-2.3781,-2.3794,-2.3794,-2.3808,-2.3808,-2.3808,-2.3808,-2.3955,-2.4222,-2.4222,-2.4369,-2.4636,-2.4636,-2.4649,-2.4663,-2.4676,-2.4676,-2.4676,-2.4676,-2.4676,-2.4676,-2.4676,-2.4676,-2.4676,-2.4676,-2.4676,-2.4676,0.0,0.0,0.0,0.0,0.0,0.0,0.0,0.0,0.0,0.0,0.0,0.0,0.0,-1.2774,-1.2725,-1.2627,-1.2627,0.0,0.0,0.0,0.0,0.0,0.0,0.0,0.0,0.0,0.0,0.0,0.0,-0.991,-1.0645,-1.157,-1.2345,-1.2933,-1.3427,-1.3307,-1.2692,-1.2091,0.0,-1.0982,-1.1276,-1.1516,-1.177,-1.2545,-1.2775,-1.2839,0.0,0.0,0.0,0.0,0.0,0.0,-0.9646,-0.9325,-0.9045,-0.8858,-0.9232,0.0,0.0,0.0,0.0,0.0,0.0,0.0,0.0,0.0,0.0,0.0,0.0,0.0,0.0,0.0,0.0,0.0,0.0,0.0,0.0,0.0,0.0,0.0,0.0,0.0,0.0,0.0,0.0,0.0,0.0,0.0,-2.3193,-2.338,-2.3487,-2.3487,-2.3674,-2.3768,-2.3768,-2.3924,-2.3977,-2.4085,-2.4085,-2.4139,-2.4246,-2.4275,-2.4356,-2.4369,-2.4556,-2.4636,-2.4636,-2.4636,-2.4636,-2.4636,-2.4636,-2.4636,-2.4636,-2.4636,-2.4636,-2.4636,0.0,0.0,0.0,-1.2234,0.0,-1.1779,-1.1631,-1.1895,-1.2018,-1.1772,0.0,0.0,0.0,0.0,-1.2529,-1.2382,-1.2332,-1.2382,-1.2529,-1.2578,0.0,0.0,0.0,0.0,0.0,0.0,0.0,0.0,0.0,0.0,0.0,-1.1169,-1.1837,-1.2331,-1.2933,-1.3146,0.0,0.0,0.0,-1.177,0.0,-1.2639,-1.2999,-1.3895,-1.4295,0.0,0.0,0.0,0.0,0.0,0.0,0.0,-1.0448,-0.9793,-0.915,-0.9005,-0.9165,0.0,-1.0416,0.0,0.0,0.0,0.0,0.0,0.0,0.0,0.0,0.0,0.0,0.0,0.0,0.0,0.0,0.0,0.0,0.0,0.0,0.0,0.0,0.0,0.0,0.0,0.0,0.0,0.0,0.0,0.0,0.0,-2.2712,-2.3006,-2.3166,-2.3166,-2.3367,-2.346,-2.346,-2.3614,-2.3682,-2.3789,-2.3634,-2.3674,-2.3781,-2.3968,-2.4062,-2.4075,-2.4369,-2.4543,-2.4636,-2.4636,-2.4636,-2.4636,-2.4636,-2.4636,-2.4636,-2.4636,-2.4636,-2.4636,-1.2036,-1.2085,-1.2135,-1.2283,-1.2139,-1.2014,-1.1995,-1.2153,-1.2153,-1.2041,0.0,0.0,0.0,0.0,0.0,-1.2104,-1.1936,-1.1968,-1.2283,-1.2283,0.0,0.0,0.0,0.0,0.0,0.0,0.0,0.0,0.0,0.0,0.0,0.0,-1.1102,-1.141,-1.1997,-1.2412,-1.2768,0.0,-1.2572,-1.2412,0.0,-1.3828,-1.4215,0.0,0.0,0.0,-1.5565,-1.5284,0.0,-1.4349,0.0,0.0,0.0,-1.0434,-0.9216,-0.9216,-0.9472,-0.982,0.0,0.0,0.0,0.0,0.0,0.0,0.0,0.0,0.0,0.0,0.0,0.0,0.0,0.0,0.0,0.0,0.0,0.0,0.0,0.0,0.0,0.0,0.0,0.0,0.0,0.0,0.0,0.0,0.0,-2.2405,-2.2405,-2.2672,-2.2846,-2.2846,-2.2846,-2.2859,-2.2859,-2.2859,-2.3157,-2.348,-2.3147,-2.3139,-2.343,-2.3741,-2.3754,-2.3768,-2.4062,-2.4356,-2.4609,-2.4623,-2.4636,-2.4636,-2.4636,-2.4636,-2.4636,-2.4636,-2.4636,-2.4636,-1.2085,-1.2017,-1.2036,-1.2283,-1.2337,-1.2292,-1.2033,-1.2405,-1.2531,0.0,0.0,0.0,-1.218,-1.1835,-1.1557,-1.1521,-1.137,-1.1418,-1.1719,-1.1819,-1.1819,-1.1819,-1.1418,-1.0913,-1.0249,0.0,0.0,0.0,0.0,0.0,0.0,-0.9833,-1.0207,0.0,-1.0875,-1.1209,-1.1516,-1.2158,0.0,0.0,-1.3454,-1.4082,0.0,0.0,0.0,0.0,0.0,-1.6981,-1.646,0.0,-1.503,-1.3935,0.0,-1.0889,-0.9913,-1.0127,-0.9953,-0.986,-1.0661,0.0,0.0,0.0,0.0,0.0,0.0,0.0,0.0,0.0,0.0,0.0,0.0,0.0,0.0,0.0,0.0,0.0,0.0,0.0,0.0,0.0,0.0,0.0,0.0,0.0,0.0,0.0,-2.2058,-2.2111,-2.2111,-2.2178,-2.2325,-2.2539,-2.2539,-2.2645,-2.2859,-2.2859,-2.2913,-2.2993,-2.2979,-2.302,-2.3113,-2.334,-2.3447,-2.3474,-2.3768,-2.3941,-2.4035,-2.4462,-2.4636,-2.4636,-2.4636,-2.4636,-2.4636,-2.4636,-2.4636,-2.4636,-1.1936,-1.1769,-1.1772,-1.2103,-1.2273,-1.2406,-1.2432,-1.2789,-1.2865,0.0,0.0,0.0,-1.2237,-1.1616,-1.1311,-1.1352,-1.1016,-1.0938,-1.1249,-1.1251,-1.1267,-1.1267,-1.0863,-1.0438,-0.994,-0.9472,-0.9106,0.0,-0.8857,-0.8898,-0.9072,-0.9365,-0.9593,-0.9766,-1.006,-1.0421,-1.0848,-1.149,0.0,0.0,-1.3881,0.0,0.0,-1.6673,-1.7341,0.0,0.0,0.0,-1.7662,-1.7315,-1.6286,0.0,0.0,-1.1784,-1.1035,-1.1089,-1.0862,-1.0728,-1.1369,-1.1724,0.0,0.0,0.0,0.0,0.0,0.0,0.0,0.0,0.0,0.0,0.0,0.0,0.0,0.0,0.0,0.0,0.0,0.0,0.0,0.0,0.0,0.0,0.0,0.0,0.0,0.0,-2.1737,-2.1857,-2.1977,-2.1991,-2.2058,-2.2231,-2.2231,-2.2325,-2.2647,-2.2768,-2.2835,-2.2835,-2.2942,-2.2859,-2.2873,-2.3046,-2.314,-2.3153,-2.346,-2.3581,-2.3621,-2.4088,-2.4342,-2.4449,-2.4449,-2.4529,-2.4636,-2.4636,-2.4636,-2.4636,0.0,-1.1453,-1.1439,-1.1886,-1.2114,-1.2431,-1.2896,-1.3131,-1.3167,0.0,-1.29,-1.2854,-1.243,-1.1736,-1.1284,-1.1316,-1.0835,-1.0592,-1.0817,-1.0661,-1.0608,-1.0608,-1.0182,-0.9806,-0.9562,-0.9211,-0.8962,-0.8804,-0.8804,-0.8804,-0.8818,-0.9072,-0.9137,-0.915,-0.9499,-0.994,-1.0551,-1.0835,0.0,-1.2903,-1.4322,-1.5484,0.0,0.0,-1.8036,0.0,-1.8918,-1.8878,-1.8664,-1.8571,-1.7208,0.0,0.0,-1.3066,-1.2452,-1.2225,-1.2091,-1.2091,-1.2412,-1.2498,-1.2711,-1.3433,0.0,0.0,-1.6422,-1.7695,0.0,0.0,0.0,0.0,0.0,0.0,0.0,0.0,0.0,0.0,0.0,0.0,0.0,0.0,0.0,0.0,0.0,0.0,-2.1109,-2.1109,-2.1349,-2.1617,-2.1871,-2.1884,-2.1897,-2.1937,-2.1937,-2.2096,-2.2281,-2.2552,-2.2821,-2.2835,-2.2821,-2.2819,-2.2819,-2.2846,-2.2859,-2.2873,-2.3153,-2.3273,-2.33,-2.3567,-2.3861,-2.4155,-2.4155,-2.4329,-2.4596,-2.4596,-2.4609,-2.4636,-1.1469,-1.1473,-1.15,-1.178,-1.2329,-1.2637,-1.2636,-1.3199,-1.3421,-1.2802,-1.2819,-1.2867,-1.3029,-1.2289,-1.1572,-1.1128,-1.0637,-1.0319,-1.029,-1.0053,-0.9976,-0.9976,-0.9769,-0.9562,-0.9263,-0.9106,-0.8962,-0.8804,-0.8804,-0.8804,-0.8804,-0.8871,-0.8884,-0.8898,-0.9192,-0.9526,-0.99,-1.0675,0.0,-1.2518,-1.4015,0.0,-1.6727,-1.7622,-1.8477,-1.9239,-1.9519,-1.9746,-1.9786,0.0,-1.7769,-1.6366,0.0,0.0,-1.3774,-1.3948,-1.3507,-1.3066,-1.3601,-1.3682,-1.3784,-1.4396,0.0,0.0,0.0,-1.8232,0.0,0.0,0.0,0.0,0.0,0.0,0.0,0.0,0.0,0.0,0.0,0.0,0.0,0.0,0.0,0.0,0.0,0.0,-2.1109,-2.1109,-2.1162,-2.1216,-2.1283,-2.1283,-2.139,-2.163,-2.163,-2.175,-2.2123,-2.219,-2.2217,-2.2217,-2.2365,-2.2498,-2.2512,-2.2752,-2.2859,-2.2859,-2.2926,-2.2953,-2.2953,-2.302,-2.3367,-2.3848,-2.3848,-2.4035,-2.4289,-2.4289,-2.4436,-2.4636,-1.1318,-1.1368,-1.142,-1.1693,-1.2151,-1.2506,-1.2565,-1.3021,-1.3236,-1.2916,-1.3071,-1.3243,-1.3326,-1.2843,-1.2294,-1.1682,-1.12,-1.0787,-1.0446,-1.0136,-0.9861,-0.9756,-0.9453,-0.9263,-0.9106,-0.8962,-0.8857,-0.8804,-0.8804,-0.8804,-0.8804,-0.8951,-0.9018,-0.9045,-0.9486,-0.9846,-1.018,0.0,-1.2024,-1.308,-1.4269,0.0,-1.662,-1.7809,-1.8731,-1.9426,-1.9867,-2.0107,-2.012,-1.9386,-1.8357,0.0,0.0,-1.6005,-1.5177,0.0,-1.4763,-1.4402,-1.4843,-1.4609,-1.446,-1.5021,0.0,0.0,0.0,0.0,0.0,0.0,0.0,0.0,0.0,0.0,0.0,0.0,0.0,0.0,0.0,0.0,0.0,0.0,0.0,0.0,0.0,0.0,-2.0792,-2.0668,-2.0802,-2.0895,-2.0895,-2.1029,-2.1176,-2.1323,-2.1336,-2.1403,-2.155,-2.1697,-2.1777,-2.1907,-2.2071,-2.2205,-2.2218,-2.2498,-2.2645,-2.2645,-2.2806,-2.2859,-2.2859,-2.2859,-2.3046,-2.334,-2.3487,-2.3728,-2.3981,-2.3981,-2.4075,-2.4222,-1.1368,-1.1316,-1.1361,-1.1758,-1.2134,-1.2414,-1.2693,-1.3009,-1.3224,-1.3461,-1.369,-1.3787,-1.3762,-1.3615,-1.3213,-1.2612,-1.2083,-1.1628,-1.1043,-1.0499,-1.0061,-0.9813,-0.9343,-0.9098,-0.9044,-0.8938,-0.8871,-0.8804,-0.8804,-0.8804,-0.8818,-0.9044,-0.9216,-0.9296,-0.9993,0.0,0.0,0.0,0.0,-1.3721,0.0,-1.5605,-1.6593,-1.7969,-1.8891,-1.9533,-2.0174,-2.0334,-2.016,-1.9693,0.0,-1.8063,-1.7622,-1.7007,0.0,0.0,0.0,0.0,0.0,0.0,0.0,0.0,0.0,-1.5509,0.0,0.0,0.0,-1.7412,0.0,0.0,0.0,0.0,0.0,0.0,0.0,0.0,0.0,0.0,0.0,0.0,0.0,0.0,0.0,0.0,-2.04,-2.0187,-2.0334,-2.0521,-2.0588,-2.0869,-2.1056,-2.1109,-2.1109,-2.1109,-2.1109,-2.1349,-2.147,-2.1612,-2.1764,-2.1897,-2.1911,-2.2205,-2.2365,-2.2432,-2.2672,-2.2806,-2.2859,-2.2859,-2.2859,-2.2886,-2.314,-2.342,-2.3688,-2.3688,-2.3728,-2.3808,-1.1819,-1.1679,-1.1755,-1.2219,-1.2546,-1.2787,-1.2964,-1.3614,-1.4378,-1.4984,-1.4587,-1.4432,-1.4692,0.0,0.0,-1.3466,0.0,0.0,-1.1827,0.0,-1.0389,-1.0094,-0.9798,-0.9459,-0.9192,-0.9137,-0.9058,-0.8804,-0.8804,-0.8804,-0.8818,-0.9044,-0.9379,-0.9673,-1.0514,0.0,0.0,0.0,-1.3026,0.0,-1.4883,-1.6032,0.0,-1.813,-1.9011,-1.9867,-2.0708,-2.0668,-2.0227,0.0,-1.9386,-1.8477,0.0,-1.7956,-1.7101,0.0,0.0,0.0,0.0,0.0,0.0,0.0,-1.6211,0.0,0.0,0.0,-1.7463,-1.7624,0.0,0.0,0.0,0.0,0.0,0.0,0.0,0.0,0.0,0.0,0.0,0.0,0.0,0.0,0.0,0.0,0.0,-1.9802,-1.9706,-1.9747,-2.0267,-2.0561,-2.0842,-2.1096,-2.1109,-2.1109,-2.1109,-2.1149,-2.1162,-2.1162,-2.1456,-2.1603,-2.1617,-2.1897,-2.2178,-2.2418,-2.2458,-2.2619,-2.2859,-2.2859,-2.2859,-2.2859,-2.2899,-2.31,-2.338,-2.338,-2.3541,-2.3768,-1.2166,-1.2039,-1.2059,-1.2422,-1.2605,-1.2789,-1.3103,-1.381,-1.4338,-1.4726,-1.5021,0.0,0.0,0.0,0.0,0.0,0.0,-1.3895,0.0,0.0,-1.1543,-1.0902,-1.0595,-1.0221,-0.9753,-0.9579,-0.9352,-0.9004,-0.8884,-0.8804,-0.8818,-0.9285,-0.9659,-0.998,-1.1035,0.0,-1.2485,0.0,0.0,0.0,0.0,0.0,0.0,-1.8428,-1.926,-2.0388,-2.1105,-2.1216,-2.1066,0.0,-2.0151,0.0,0.0,0.0,0.0,0.0,0.0,0.0,0.0,0.0,0.0,0.0,0.0,0.0,-1.5994,0.0,-1.635,0.0,0.0,0.0,0.0,0.0,0.0,0.0,0.0,0.0,0.0,0.0,0.0,0.0,0.0,0.0,0.0,0.0,0.0,0.0,0.0,-1.9897,-2.015,-2.1074,-2.1341,-2.1091,-2.1267,-2.1362,-2.1109,-2.1109,-2.1109,-2.1109,-2.1229,-2.1296,-2.1309,-2.1603,-2.1804,-2.1937,-2.2271,-2.2485,-2.2619,-2.2792,-2.2859,-2.2859,-2.2859,-2.2939,-2.306,-2.306,-2.314,-2.3273,-1.2783,-1.247,-1.2359,-1.2733,-1.2854,-1.3227,-1.4066,-1.4485,-1.4835,-1.5247,0.0,0.0,-1.598,-1.6593,0.0,0.0,-1.5992,-1.5524,0.0,0.0,-1.2959,-1.2078,-1.1677,-1.1156,-1.0488,-1.0194,-0.986,-0.9429,-0.9192,-0.9005,-0.8938,-0.9583,-1.0013,-1.0349,0.0,-1.2852,-1.3738,0.0,0.0,-1.7208,-1.8321,-1.9184,-1.9628,-1.932,-1.9891,-2.1036,-2.177,-2.2047,-2.1982,-2.1633,-2.0914,0.0,-1.98,0.0,0.0,0.0,0.0,0.0,-1.837,0.0,0.0,0.0,0.0,0.0,0.0,0.0,0.0,0.0,0.0,0.0,0.0,0.0,0.0,0.0,0.0,0.0,0.0,0.0,0.0,0.0,0.0,0.0,0.0,0.0,0.0,0.0,0.0,0.0,-2.0226,-2.1363,-2.1718,-2.1273,-2.145,-2.1488,-2.1109,-2.1109,-2.1109,-2.1109,-2.1109,-2.1109,-2.1122,-2.1336,-2.147,-2.1577,-2.2004,-2.2271,-2.2432,-2.2645,-2.2792,-2.2859,-2.2859,-2.2859,-2.2859,-2.2859,-2.2859,-2.2899,-1.3951,-1.308,0.0,-1.331,-1.357,-1.4285,-1.6218,-1.6222,-1.643,0.0,0.0,0.0,0.0,0.0,0.0,0.0,0.0,-1.7128,-1.6246,0.0,-1.4496,-1.3614,-1.3013,-1.2278,0.0,-1.1102,-1.0675,-1.0087,-0.9793,-0.9512,-0.919,-1.001,-1.0567,-1.0925,-1.2856,-1.4223,-1.5257,-1.6669,-1.7657,-1.8318,-1.9391,-2.0559,-2.1487,0.0,-2.1137,-2.1747,-2.2748,0.0,0.0,-2.2623,-2.1838,0.0,0.0,0.0,0.0,0.0,0.0,0.0,0.0,0.0,0.0,-1.7288,0.0,0.0,0.0,0.0,-1.5619,0.0,0.0,0.0,0.0,0.0,-1.5533,-1.5533,0.0,0.0,0.0,0.0,0.0,0.0,0.0,0.0,0.0,0.0,0.0,0.0,0.0,0.0,-2.0505,-2.1159,-2.1503,-2.1628,-2.1575,-2.1488,-2.1109,-2.1109,-2.1109,-2.1109,-2.1109,-2.1109,-2.1109,-2.1122,-2.1283,-2.155,-2.1577,-2.1897,-2.2418,-2.2432,-2.2605,-2.2859,-2.2859,-2.2859,-2.2859,-2.2859,-2.2859,-2.2859,0.0,0.0,0.0,0.0,0.0,-1.4961,-1.6542,-1.6976,0.0,0.0,0.0,0.0,0.0,0.0,-1.8878,0.0,0.0,-1.8183,-1.7488,-1.6607,0.0,0.0,0.0,-1.3801,0.0,-1.2211,-1.157,-1.0982,-1.0424,-1.0105,-0.9996,0.0,-1.1048,0.0,0.0,-1.4864,0.0,0.0,0.0,0.0,0.0,-2.3152,-2.3698,0.0,0.0,-2.3127,-2.3809,-2.4271,0.0,-2.4174,-2.3323,-2.2482,-2.1575,-2.0662,-2.0023,-1.9786,-1.9586,0.0,0.0,0.0,-1.8531,-1.813,0.0,0.0,0.0,0.0,0.0,0.0,0.0,0.0,0.0,0.0,-1.5122,-1.4794,-1.4792,0.0,0.0,0.0,0.0,0.0,0.0,0.0,0.0,0.0,0.0,0.0,0.0,0.0,0.0,-2.2103,-2.2567,-2.1503,-2.1775,-2.1659,-2.1109,-2.1109,-2.1109,-2.1109,-2.1109,-2.1109,-2.1109,-2.1109,-2.1162,-2.1269,-2.147,-2.167,-2.1871,-2.2258,-2.2472,-2.2592,-2.2779,-2.2859,-2.2859,-2.2859,-2.2859,-2.2859,-1.4963,0.0,0.0,0.0,0.0,0.0,0.0,0.0,0.0,0.0,-1.9138,0.0,-1.9555,0.0,-1.9786,0.0,-1.9599,-1.9252,-1.8557,-1.7876,0.0,-1.6486,-1.5992,0.0,0.0,0.0,-1.3006,-1.2123,-1.1681,-1.1199,-1.0826,0.0,0.0,0.0,0.0,0.0,0.0,0.0,-2.1462,0.0,0.0,-2.5086,0.0,0.0,-2.381,-2.449,0.0,-2.5684,-2.6034,-2.5561,-2.4859,-2.3931,-2.266,-2.1712,-2.097,-2.0497,-2.0227,-2.0,-2.0187,-1.9746,0.0,-1.8744,-1.7903,0.0,-1.6433,0.0,0.0,0.0,0.0,0.0,0.0,0.0,-1.5161,-1.4742,-1.4795,-1.4781,0.0,0.0,0.0,0.0,0.0,0.0,0.0,0.0,-1.8256,-1.8112,0.0,0.0,0.0,0.0,-2.267,-2.1759,-2.2045,-2.192,-2.1235,-2.1235,-2.1235,-2.1109,-2.1109,-2.1109,-2.1109,-2.1109,-2.1109,-2.1122,-2.1309,-2.1456,-2.159,-2.2071,-2.2325,-2.2445,-2.2752,-2.2859,-2.2859,-2.2859,-2.2859,-2.2859,0.0,0.0,0.0,0.0,-1.7312,0.0,0.0,0.0,-2.0652,0.0,-2.0654,-2.043,-2.0704,-2.0699,-2.0575,-2.0294,-2.0521,0.0,-1.9492,-1.9145,0.0,0.0,-1.7382,-1.6807,-1.5939,0.0,0.0,0.0,-1.3468,-1.2808,-1.1759,0.0,0.0,0.0,-1.5458,0.0,-1.9453,-2.1176,-2.3003,-2.4597,-2.5469,-2.6287,-2.6885,-2.6689,-2.6253,-2.5827,-2.6764,-2.7039,-2.7177,-2.7021,-2.6294,-2.5024,-2.3734,-2.2544,-2.1628,-2.0956,-2.051,-2.0281,-2.0281,-2.0067,-1.9706,-1.9132,0.0,0.0,0.0,0.0,-1.6794,0.0,0.0,0.0,0.0,0.0,0.0,-1.5354,-1.505,-1.4987,0.0,0.0,0.0,0.0,0.0,0.0,0.0,0.0,-1.7939,-1.8196,-1.8866,0.0,0.0,0.0,-2.2167,-2.1918,-2.2362,-2.2262,-2.1587,-2.1601,-2.1488,-2.1109,-2.1109,-2.1109,-2.1109,-2.1109,-2.1109,-2.1109,-2.1109,-2.1269,-2.155,-2.1844,-2.2138,-2.2432,-2.2726,-2.2846,-2.2859,-2.2859,-2.2859,-2.2859,-1.7122,-1.8066,-1.9102,0.0,-1.9602,-1.95,0.0,0.0,0.0,0.0,-2.144,-2.1292,-2.132,-2.119,-2.0983,-2.0869,-2.0762,0.0,0.0,0.0,0.0,-1.9239,-1.8531,-1.7943,-1.7463,-1.6704,0.0,-1.5259,0.0,0.0,-1.3427,0.0,0.0,0.0,0.0,0.0,-2.0173,-2.1784,-2.4085,-2.6551,-2.7172,-2.753,0.0,0.0,-2.773,-2.8116,-2.8086,-2.8343,-2.8719,-2.8241,-2.7383,-2.6277,-2.4715,-2.3346,-2.2228,-2.152,-2.1132,-2.0882,-2.0882,-2.0668,-2.0361,-1.9987,-1.9466,-1.8878,0.0,0.0,0.0,0.0,0.0,0.0,0.0,0.0,0.0,-1.5957,-1.5389,-1.5056,0.0,0.0,0.0,0.0,0.0,0.0,0.0,-1.7454,-1.7515,-1.727,-1.8823,0.0,0.0,0.0,0.0,-2.1254,-2.2052,-2.219,-2.1272,-2.1491,-2.1488,-2.1109,-2.1109,-2.1109,-2.1109,-2.1109,-2.1109,-2.1109,-2.1109,-2.1149,-2.1243,-2.155,-2.183,-2.2124,-2.2418,-2.2672,-2.2859,-2.2859,-2.2859,-2.2859,-1.8426,0.0,0.0,-2.2695,0.0,0.0,-2.2006,0.0,0.0,-2.2686,-2.2549,0.0,-2.2248,-2.1976,-2.1797,-2.1587,-2.145,0.0,-2.13,0.0,0.0,-2.0823,-2.0322,-1.9878,-1.9467,-1.8671,0.0,-1.6951,0.0,0.0,-1.4695,0.0,0.0,0.0,0.0,-1.8469,0.0,-2.3233,-2.5484,-2.7419,-2.8024,0.0,0.0,-2.848,-2.8773,-2.9331,-2.9213,-2.9313,-2.9549,-2.9076,-2.8104,-2.69,-2.5562,-2.3961,-2.2731,-2.1978,-2.1488,-2.1109,-2.1109,-2.0989,-2.0788,-2.0494,-2.0174,-1.9786,-1.9199,-1.9065,-1.8985,0.0,0.0,0.0,0.0,0.0,0.0,0.0,0.0,0.0,0.0,0.0,0.0,0.0,0.0,0.0,0.0,-1.6886,-1.6915,-1.6652,-1.7846,0.0,0.0,0.0,0.0,-2.1202,-2.2039,-2.2289,-2.1765,-2.1825,-2.1614,-2.1362,-2.1109,-2.1109,-2.1109,-2.1109,-2.1109,-2.1109,-2.1109,-2.1109,-2.1136,-2.143,-2.1657,-2.1844,-2.2258,-2.2605,-2.2859,-2.2859,-2.2859,-2.2859,0.0,0.0,0.0,0.0,0.0,0.0,0.0,-2.3758,0.0,-2.4106,0.0,-2.3758,-2.3405,-2.3106,-2.2731,-2.2355,0.0,-2.2366,-2.2342,-2.2451,-2.2442,-2.2406,-2.2348,-2.2142,-2.1606,-2.1046,-2.0116,0.0,0.0,-1.7064,-1.5648,0.0,0.0,0.0,0.0,0.0,0.0,-2.4828,-2.6836,0.0,-2.8179,-2.8709,-2.9122,-2.8947,-2.9213,-2.9804,-2.9804,-2.9922,-2.9922,-2.9549,-2.8582,-2.7263,-2.5928,-2.4456,-2.2981,-2.223,-2.1614,-2.1109,-2.1109,-2.1109,-2.1042,-2.0802,-2.0735,-2.0588,-2.004,-1.992,-1.984,-1.9546,-1.9239,-1.8865,0.0,0.0,0.0,0.0,0.0,0.0,0.0,0.0,0.0,0.0,0.0,0.0,0.0,-1.6338,-1.6265,-1.6244,0.0,0.0,0.0,0.0,0.0,-2.1415,-2.2235,0.0,-2.2671,0.0,-2.1978,-2.1614,-2.1362,-2.1109,-2.1109,-2.1109,-2.1109,-2.1109,-2.1109,-2.1109,-2.1122,-2.139,-2.1537,-2.167,-2.2205,-2.2605,-2.2859,-2.2859,-2.2859,-2.2859,0.0,0.0,0.0,0.0,0.0,-2.6308,-2.6654,-2.5858,-2.5216,-2.5537,-2.5545,-2.5332,-2.4778,-2.4456,-2.3961,-2.3355,-2.3355,0.0,0.0,0.0,0.0,-2.3779,-2.3505,-2.3288,-2.309,-2.2386,-2.1501,0.0,-1.9659,-1.8392,-1.678,0.0,0.0,0.0,0.0,0.0,-2.2949,-2.4697,0.0,-2.7266,-2.74,-2.7888,-2.8407,-2.7979,-2.848,-2.9549,-2.9549,-3.0039,-3.0645,-2.9667,-2.8701,-2.7624,-2.5806,-2.4224,-2.2856,-2.1978,-2.1362,-2.1109,-2.1109,-2.1109,-2.1096,-2.1042,-2.1029,-2.0949,-2.0601,-2.0521,-2.0441,-2.0147,-1.9853,-1.9546,-1.9199,0.0,0.0,0.0,0.0,0.0,0.0,0.0,0.0,0.0,0.0,0.0,0.0,0.0,-1.6138,0.0,0.0,0.0,0.0,0.0,0.0,0.0,0.0,0.0,0.0,0.0,-2.2606,-2.1992,-2.1614,-2.1362,-2.1109,-2.1109,-2.1109,-2.1109,-2.1109,-2.1109,-2.1109,-2.1162,-2.147,-2.1937,-2.2285,-2.2605,-2.2859,-2.2859,-2.2859,-2.2859,0.0,0.0,0.0,0.0,0.0,0.0,0.0,-2.8427,0.0,-2.7062,-2.6924,-2.6712,-2.6122,-2.5912,-2.5562,-2.4964,-2.4841,-2.5087,-2.5317,-2.5546,-2.579,-2.6139,-2.5973,0.0,-2.5594,-2.4684,-2.3705,-2.2679,-2.1149,-1.9548,-1.8086,-1.7292,-1.7038,-1.7329,0.0,-2.1426,0.0,0.0,0.0,-2.7663,-2.7541,-2.7849,-2.8346,-2.7931,-2.848,-2.9431,-2.9549,-3.0157,-3.0762,-2.9922,-2.8938,-2.7744,-2.6172,-2.4456,-2.2981,-2.2104,-2.1488,-2.1109,-2.1109,-2.1109,-2.1109,-2.1109,-2.1109,-2.1069,-2.0935,-2.0895,-2.0815,-2.0521,-2.0227,-1.984,-1.9252,-1.8279,0.0,0.0,0.0,0.0,0.0,0.0,0.0,0.0,0.0,0.0,0.0,0.0,0.0,0.0,0.0,0.0,0.0,0.0,0.0,0.0,0.0,0.0,0.0,0.0,0.0,-2.2355,-2.1853,-2.1362,-2.1109,-2.1109,-2.1109,-2.1109,-2.1109,-2.1109,-2.1109,-2.1109,-2.1363,-2.179,-2.2084,-2.2378,-2.2645,-2.2806,-2.2859,-2.2859,0.0,-2.6992,0.0,0.0,-2.8711,0.0,-3.0316,-3.0663,-3.0291,-2.8755,-2.86,-2.8336,-2.7712,-2.7626,-2.7349,-2.6675,-2.6554,-2.6796,-2.7263,-2.7383,-2.7624,-2.8224,-2.8224,-2.8045,-2.7786,-2.6897,-2.5751,0.0,-2.2565,0.0,0.0,-1.8368,-1.8203,-1.8789,0.0,0.0,0.0,0.0,-2.7131,-2.8014,-2.7712,-2.7884,-2.8361,-2.802,-2.848,-2.9431,-2.9667,-3.0294,-3.0762,-3.0157,-2.9194,-2.7864,-2.6432,-2.4718,-2.3106,-2.2355,-2.174,-2.1235,-2.1109,-2.1109,-2.1109,-2.1109,-2.1109,-2.1109,-2.1109,-2.1069,-2.0949,-2.0722,-2.0388,-1.9893,-1.9078,-1.829,0.0,0.0,0.0,0.0,0.0,0.0,0.0,0.0,0.0,0.0,0.0,0.0,0.0,0.0,0.0,0.0,0.0,0.0,0.0,0.0,0.0,-2.3015,-2.3876,0.0,-2.2907,0.0,-2.1978,-2.1488,-2.1109,-2.1109,-2.1109,-2.1109,-2.1109,-2.1109,-2.1109,-2.1109,-2.1283,-2.1577,-2.1871,-2.2164,-2.2458,-2.2752,-2.2996,-2.2996,0.0,0.0,0.0,0.0,0.0,0.0,0.0,-3.1543,-3.1789,-3.0982,-3.086,-3.0607,-2.9907,-2.9507,-2.9119,-2.8397,-2.8241,-2.8361,-2.8361,-2.8618,-2.8856,-2.8856,-2.8856,-2.8792,-2.8719,-2.7865,-2.6943,0.0,0.0,0.0,0.0,-1.9922,-2.0117,-2.0996,0.0,0.0,0.0,-2.6397,-2.7243,-2.8087,-2.7257,-2.7428,-2.802,-2.7435,-2.814,-2.9431,-2.9431,-3.0039,-3.0879,-3.0509,-2.9549,-2.8122,-2.6294,-2.4841,-2.3728,-2.248,-2.1853,-2.1488,-2.1235,-2.1109,-2.1109,-2.1109,-2.1109,-2.1109,-2.1109,-2.0909,-2.0708,-2.0681,-2.0227,-1.9653,-1.9038,-1.8637,-1.8223,0.0,0.0,0.0,0.0,0.0,0.0,0.0,0.0,0.0,0.0,0.0,0.0,0.0,0.0,0.0,0.0,0.0,0.0,-2.149,0.0,-2.3124,-2.3876,-2.3619,0.0,-2.2606,-2.223,-2.174,-2.1109,-2.1109,-2.1109,-2.1109,-2.1109,-2.1109,-2.1109,-2.1109,-2.1283,-2.1577,-2.1871,-2.2164,-2.2458,-2.2752,-2.3133,-2.3406,0.0,0.0,0.0,0.0,0.0,0.0,0.0,-3.2324,-3.2513,-3.2498,-3.2092,-3.1604,-3.1066,-3.0679,-3.0231,-2.9822,-2.9461,-2.945,-2.9667,-2.9804,-2.9922,-3.0176,-3.0176,-3.01,-3.0045,-2.9431,-2.8526,0.0,0.0,0.0,0.0,-2.1543,-2.1699,0.0,0.0,-2.5762,-2.6973,-2.7618,-2.8145,-2.8514,-2.7866,-2.7878,-2.8241,-2.802,-2.8719,-2.9667,-2.9903,-3.0392,-3.0879,-3.0509,-2.9686,-2.86,-2.7159,-2.5684,-2.4209,-2.323,-2.2355,-2.1614,-2.1488,-2.1235,-2.1109,-2.1362,-2.1362,-2.1488,-2.1614,-2.1382,-2.0999,-2.0686,-2.0066,-1.9466,-1.9239,-1.8811,-1.841,0.0,0.0,0.0,0.0,0.0,0.0,0.0,0.0,0.0,0.0,0.0,0.0,0.0,0.0,-1.657,-1.7079,0.0,0.0,-2.0902,0.0,-2.2355,-2.2969,-2.2955,-2.2715,-2.2355,-2.1992,-2.1614,-2.1109,-2.1109,-2.1109,-2.1109,-2.1109,-2.1109,-2.1109,-2.1109,-2.1176,-2.1309,-2.1862,-2.216,-2.259,-2.3292,-2.3798,-2.4224,-3.0605,0.0,-3.0976,0.0,-3.1816,-3.209,-3.2695,-3.2891,-3.3086,-3.3379,-3.291,-3.2377,-3.1996,-3.1706,-3.1455,-3.1118,-3.0596,-3.0466,-3.0702,-3.0586,-3.0645,-3.0898,-3.0898,0.0,-3.0898,-3.043,-2.9687,-2.8672,-2.709,0.0,0.0,-2.3496,0.0,0.0,-2.6348,-2.7422,-2.8301,-2.878,-2.8993,-2.904,-2.861,-2.86,-2.8719,-2.8719,-2.9313,-3.0039,-3.0274,-3.0645,-3.0879,-3.0645,-2.9922,-2.9094,-2.8002,-2.6415,-2.4826,-2.3976,-2.2981,-2.1978,-2.1866,-2.1614,-2.1488,-2.1727,-2.174,-2.1866,-2.2104,-2.1686,-2.1039,-2.0534,-1.9888,-1.9372,-1.9372,-1.8891,-1.849,-1.849,0.0,0.0,0.0,0.0,0.0,0.0,-1.665,-1.6849,0.0,0.0,0.0,0.0,0.0,-1.6634,-1.6955,0.0,0.0,0.0,0.0,0.0,0.0,-2.2215,-2.2219,-2.1978,-2.174,-2.1488,-2.1109,-2.1109,-2.1109,-2.1109,-2.1109,-2.1109,-2.1109,-2.1235,-2.1235,-2.1262,-2.2071,-2.2577,-2.2944,-2.3865,-2.4686,-2.5308,-3.1973,-3.2148,-3.2148,-3.2148,-3.25,-3.2793,-3.2793,-3.3144,-3.3418,-3.3418,-3.3418,-3.3242,-3.2832,-3.2773,-3.2617,-3.2207,-3.1758,-3.1504,-3.1504,-3.1113,-3.0898,0.0,0.0,-3.0898,-3.0898,-3.043,-2.998,-2.9551,0.0,0.0,-2.6348,-2.5898,-2.6387,-2.7637,-2.8066,-2.875,-2.957,-2.9679,-2.9775,-2.9922,-2.9549,-2.9431,-2.9431,-2.9431,-2.9785,-3.0392,-3.0392,-3.0645,-3.0898,-3.0898,-3.0411,-2.9686,-2.8379,-2.7159,-2.5823,-2.4471,-2.3604,-2.2981,-2.223,-2.2104,-2.2104,-2.2104,-2.2104,-2.2104,-2.2104,-2.1628,-2.0907,-1.9945,-1.9591,-1.9372,-1.9372,-1.8891,-1.849,-1.849,0.0,0.0,0.0,0.0,0.0,0.0,-1.7174,-1.7391,-1.6696,0.0,0.0,0.0,0.0,0.0,-1.6657,0.0,0.0,-1.9602,-1.9937,0.0,-2.154,-2.1622,-2.1624,-2.1614,-2.1754,-2.1502,-2.1109,-2.1109,-2.1109,-2.1109,-2.1109,-2.1109,-2.1109,-2.1488,-2.1614,-2.1642,-2.2709,-2.3206,-2.3662,-2.4684,-2.5712,-2.6676,-3.248,-3.2598,-3.2695,-3.2969,-3.3125,-3.3223,-3.3223,-3.334,-3.3418,-3.3418,-3.3418,-3.3379,-3.3242,-3.2969,-3.2734,0.0,-3.2207,-3.1953,0.0,-3.1562,-3.1328,-3.1328,-3.1055,-3.0898,-3.0898,-3.0742,-3.0449,-3.0,0.0,0.0,0.0,-2.7832,-2.8125,-2.8555,-2.9277,-2.9746,-3.0019,-3.0123,-3.0257,-3.0157,-2.9922,-2.9903,-3.002,-3.002,-3.0392,-3.0762,-3.0762,-3.0762,-3.0879,-3.0645,-3.0274,-2.9804,-2.8975,-2.7762,-2.6537,-2.5945,-2.4841,-2.3743,-2.323,-2.2731,-2.248,-2.248,-2.248,-2.248,-2.2731,-2.1996,-2.0893,-1.9932,-1.9591,-1.9372,-1.9372,-1.8891,-1.849,-1.849,-1.7809,0.0,0.0,0.0,0.0,0.0,-1.6755,-1.6876,0.0,-1.6514,0.0,0.0,0.0,0.0,0.0,0.0,0.0,0.0,-1.9564,0.0,-2.06,-2.1115,-2.1341,-2.1235,-2.1235,-2.1235,-2.1109,-2.1109,-2.1109,-2.1109,-2.1362,-2.1488,-2.1488,-2.2104,-2.2355,-2.2745,-2.3708,-2.4515,-2.5124,-2.6213,-2.7239,-2.8202,-3.2949,-3.3027,-3.3105,-3.3379,-3.3418,-3.3418,-3.3418,-3.3418,-3.3418,-3.3418,-3.3418,-3.3418,-3.3418,-3.3184,0.0,-3.3027,-3.2656,-3.2402,-3.2402,-3.1992,-3.168,-3.1523,-3.1269,-3.1055,-3.0898,0.0,0.0,-3.0449,-3.0019,-2.9531,-2.9023,-2.9277,-2.9492,-2.9687,-3.0215,-3.0449,-3.0469,-3.0509,-3.0626,-3.0528,-3.0411,-3.0411,-3.0626,-3.0626,-3.0762,-3.0898,-3.0898,-3.0898,-3.0879,-3.0509,-3.0039,-2.9686,-2.9094,-2.8241,-2.7263,-2.6918,-2.5823,-2.4718,-2.4348,-2.3728,-2.3106,-2.2981,-2.2856,-2.2827,-2.2835,-2.2033,-2.1054,-2.0316,-1.9788,-1.9332,-1.9225,-1.8811,-1.845,-1.8343,-1.7662,-1.7048,-1.674,0.0,0.0,0.0,0.0,0.0,0.0,-1.63,0.0,0.0,0.0,0.0,0.0,0.0,0.0,-1.8801,-1.9329,0.0,-2.0186,-2.0672,-2.094,-2.1109,-2.1109,-2.1109,-2.1109,-2.1109,-2.1109,-2.1362,-2.1614,-2.1978,-2.223,-2.2966,-2.3589,-2.3961,-2.5056,-2.5814,-2.6397,-2.7501,-2.8358,-2.935,-3.334,-3.3418,0.0,0.0,-3.3418,0.0,-3.3418,-3.3418,-3.3418,-3.3418,-3.3418,-3.3418,-3.3418,-3.3418,-3.3418,-3.3418,0.0,0.0,0.0,-3.2441,-3.2031,-3.1621,-3.1543,-3.1328,-3.0937,-3.0898,-3.0898,-3.0898,-3.0449,-3.0234,-3.0234,-3.0234,-3.0469,-3.0898,-3.0898,-3.0898,-3.0898,-3.0898,-3.0898,-3.0898,-3.0898,-3.0898,-3.0898,-3.0898,-3.0898,-3.0898,-3.0898,-3.0898,-3.0762,-3.0509,-2.9903,-2.9313,-2.8975,-2.8498,-2.7779,-2.7263,-2.6675,-2.5945,-2.5317,-2.4595,-2.3991,-2.3604,-2.323,-2.2893,-2.2573,-2.1769,-2.111,-2.0802,-2.0027,-1.9279,-1.8985,-1.8691,-1.8384,-1.8063,-1.7515,-1.7123,-1.6714,0.0,0.0,0.0,0.0,0.0,0.0,-1.6218,-1.6225,0.0,0.0,0.0,0.0,0.0,-1.775,-1.8523,-1.9058,-1.9679,-2.0254,-2.0561,-2.0842,-2.1109,-2.1109,-2.1109,-2.1109,-2.1109,-2.1235,-2.1614,-2.1978,-2.2606,-2.323,-2.4332,-2.4949,-2.5439,-2.6658,-2.7383,-2.7677,-2.8321,-2.9228,-3.0298,0.0,0.0,-3.3418,-3.3418,-3.3418,-3.3418,-3.3418,-3.3418,-3.3418,-3.3418,-3.3418,-3.3418,-3.3418,-3.3418,-3.3418,-3.3418,-3.332,-3.3281,-3.3281,-3.2871,-3.2598,-3.25,-3.1855,-3.1465,-3.1367,-3.1055,-3.0898,-3.0898,-3.0781,-3.0723,-3.0723,-3.0723,-3.0781,-3.0898,-3.0898,-3.0898,-3.0898,-3.0898,-3.0898,-3.0898,-3.0898,-3.0898,-3.0898,-3.0898,-3.0898,-3.0898,-3.0898,-3.0762,-3.0392,-2.9785,-2.9194,-2.86,-2.8002,-2.7521,-2.7297,-2.7642,-2.7159,-2.6327,-2.57,-2.4595,-2.3604,-2.2981,-2.2606,-2.227,-2.1959,-2.1282,-2.075,-2.0447,-1.9911,-1.9279,-1.8985,-1.8691,-1.8317,-1.7782,-1.7414,-1.7027,-1.6728,-1.6912,0.0,0.0,-1.6801,-1.6826,-1.6684,-1.6562,-1.6643,0.0,0.0,0.0,0.0,-1.809,-1.859,-1.9467,-1.9582,-1.9973,-2.0561,-2.0855,-2.1042,-2.1109,-2.1109,-2.1109,-2.1109,-2.1109,-2.1235,-2.1614,-2.248,-2.3216,-2.3961,-2.5423,-2.6399,-2.7021,-2.8122,-2.8719,-2.9076,-2.9643,-3.0244,-3.0806,-3.3418,-3.3418,-3.3418,-3.3418,-3.3418,-3.3418,-3.3418,-3.3418,-3.3418,-3.3418,-3.3418,-3.3418,-3.3418,-3.3418,-3.3418,-3.3418,-3.3418,-3.3418,-3.3418,-3.3203,-3.2988,-3.2793,-3.2344,-3.1914,-3.1523,-3.1289,-3.1074,-3.0898,-3.0898,-3.0898,-3.0898,-3.0898,-3.0898,-3.0898,-3.0898,-3.0898,-3.0898,-3.0898,-3.0898,-3.0898,-3.0898,-3.0898,-3.0898,-3.0898,-3.0898,-3.0898,-3.0898,-3.0645,-3.0274,-2.9667,-2.882,-2.7882,-2.728,-2.6796,-2.6432,-2.6796,-2.6675,-2.6205,-2.57,-2.4595,-2.3355,-2.2606,-2.223,-2.2062,-2.1894,-2.1382,-2.0835,-2.0534,-1.9996,-1.9439,-1.8998,-1.8691,-1.829,-1.7901,-1.751,-1.7258,-1.7288,-1.7329,0.0,-1.7442,-1.7524,-1.753,-1.7495,-1.7284,-1.7288,-1.7729,-1.7635,0.0,-1.83,-1.8731,-1.9152,-1.9577,-1.9891,-2.0214,-2.0668,-2.0962,-2.1109,-2.1109,-2.1109,-2.1235,-2.1362,-2.1362,-2.174,-2.2606,-2.3479,-2.4456,-2.5546,-2.6883,-2.7744,-2.8462,-2.9313,-2.9686,-2.9903,-3.0392,-3.0781,-3.1013,-3.3418,-3.3418,-3.3418,-3.3418,-3.3418,-3.3418,-3.3418,-3.3418,-3.3418,-3.3418,-3.3418,-3.3418,-3.3418,-3.3418,-3.3418,-3.3418,-3.3418,-3.3418,-3.3418,-3.3418,-3.3262,-3.291,-3.2832,-3.2422,-3.1641,-3.1484,-3.125,-3.0898,-3.0898,-3.0898,-3.0898,-3.0898,-3.0898,-3.0898,-3.0898,-3.0898,-3.0898,-3.0898,-3.0898,-3.0898,-3.0898,-3.0898,-3.0898,-3.0898,-3.0898,-3.0898,-3.0898,-3.0645,-3.0274,-2.9549,-2.8462,-2.728,-2.6554,-2.5823,-2.5333,-2.521,-2.5333,-2.5578,-2.5439,-2.4348,-2.3106,-2.2104,-2.1978,-2.1978,-2.1978,-2.1506,-2.1094,-2.0713,-2.0267,-1.9639,-1.9092,-1.883,-1.8509,-1.8218,-1.7946,-1.7853,-1.8094,0.0,-1.8444,-1.8673,-1.8423,-1.838,-1.8603,-1.809,-1.7956,-1.8517,-1.8317,-1.8326,-1.8897,-1.9292,-1.9466,-1.9559,-2.004,-2.0441,-2.0735,-2.0989,-2.1109,-2.1235,-2.1235,-2.1362,-2.174,-2.1866,-2.248,-2.3728,-2.4456,-2.5668,-2.7263,-2.8241,-2.8957,-2.9667,-3.0274,-3.0509,-3.0509,-3.0762,-3.0898,-3.0957,-3.3418,-3.3418,-3.3418,-3.3418,-3.3418,-3.3418,-3.3418,-3.3418,-3.3418,-3.3418,-3.3418,-3.3418,-3.3418,-3.3418,-3.3418,-3.3418,-3.3418,-3.3418,-3.3418,-3.3418,-3.3398,-3.332,-3.2988,-3.2559,-3.207,-3.1367,-3.0957,-3.0898,-3.0898,-3.0898,-3.0898,-3.0898,-3.0898,-3.0898,-3.0898,-3.0898,-3.0898,-3.0898,-3.0898,-3.0898,-3.0898,-3.0898,-3.0898,-3.0898,-3.0898,-3.0898,-3.0898,-3.0528,-2.9922,-2.9213,-2.8002,-2.6554,-2.5562,-2.4718,-2.3852,-2.3604,-2.3355,-2.3355,-2.4085,-2.3091,-2.1866,-2.1362,-2.1235,-2.1235,-2.1235,-2.1007,-2.0779,-2.0738,-2.0174,-1.9811,-1.9693,-1.9176,-1.8823,-1.8731,-1.8847,-1.9,-1.9305,0.0,-2.0397,-1.9892,-1.9864,-1.9599,-1.8947,-1.859,-1.849,-1.8824,-1.8811,-1.9038,-1.9626,-1.9706,-1.996,-2.0454,-2.0561,-2.0748,-2.1042,-2.1082,-2.1235,-2.1488,-2.1488,-2.1853,-2.248,-2.2731,-2.3464,-2.4456,-2.5439,-2.6658,-2.7984,-2.882,-2.9667,-3.0274,-3.0645,-3.0762,-3.0879,-3.0898,-3.0898,-3.0898,-3.3418,-3.3418,-3.3418,-3.3418,-3.3418,-3.3418,-3.3418,-3.3418,-3.3418,-3.3418,-3.3418,-3.3418,-3.3418,-3.3418,-3.3418,-3.3418,-3.3418,-3.3418,-3.3418,-3.3418,-3.3418,-3.3418,-3.3242,-3.2832,-3.2187,-3.1543,-3.1113,-3.0898,-3.0898,-3.0898,-3.0898,-3.0898,-3.0898,-3.0898,-3.0898,-3.0898,-3.0898,-3.0898,-3.0898,-3.0898,-3.0898,-3.0898,-3.0898,-3.0898,-3.0898,-3.0898,-3.0898,-3.0645,-3.0039,-2.945,-2.8122,-2.6658,-2.5684,-2.4456,-2.323,-2.2981,-2.2731,-2.2606,-2.2716,-2.223,-2.1488,-2.1235,-2.1109,-2.1109,-2.1109,-2.1002,-2.0869,-2.0708,-2.0577,-2.0495,-2.0372,-2.0144,-2.0197,-2.03,-2.0539,0.0,0.0,-2.1893,-2.2154,-2.19,-2.148,-2.0877,-1.9935,-1.9511,-1.9239,-1.9145,-1.9305,-1.9519,-1.9786,-2.0334,-2.0767,-2.1328,-2.1216,-2.1227,-2.1362,-2.174,-2.1992,-2.2104,-2.248,-2.2981,-2.3713,-2.3961,-2.4949,-2.6172,-2.69,-2.7864,-2.9076,-2.9667,-3.0274,-3.0645,-3.0879,-3.0898,-3.0898,-3.0898,-3.0898,-3.0898,-3.3418,-3.3418,-3.3418,-3.3418,-3.3418,-3.3418,-3.3418,-3.3418,-3.3418,-3.3418,-3.3418,-3.3418,-3.3418,-3.3418,-3.3418,-3.3418,-3.3418,-3.3418,-3.3418,-3.3418,-3.3418,-3.3418,-3.332,-3.2969,-3.2324,-3.1797,-3.1367,-3.1035,-3.0937,-3.0898,-3.0898,-3.0898,-3.0898,-3.0898,-3.0898,-3.0898,-3.0898,-3.0898,-3.0898,-3.0898,-3.0898,-3.0898,-3.0898,-3.0898,-3.0898,-3.0898,-3.0898,-3.0645,-3.0274,-2.9667,-2.8343,-2.69,-2.5928,-2.4456,-2.3106,-2.2731,-2.2606,-2.248,-2.174,-2.1614,-2.1614,-2.1362,-2.1235,-2.1235,-2.1235,-2.1235,-2.1168,-2.1189,-2.1341,-2.1394,-2.1384,-2.1554,-2.1768,-2.2166,0.0,0.0,0.0,-2.3808,-2.3773,-2.3695,-2.286,-2.2035,-2.1159,-2.05,-2.0067,-1.9918,-2.0137,-2.0328,-2.0598,-2.1161,-2.1712,-2.2196,-2.2006,-2.1866,-2.2104,-2.2606,-2.2981,-2.323,-2.3728,-2.4332,-2.5178,-2.5562,-2.6415,-2.7882,-2.8224,-2.8938,-3.0039,-3.0274,-3.0626,-3.0898,-3.0898,-3.0898,-3.0898,-3.0898,-3.0898,-3.0898,-3.3418,-3.3418,-3.3418,-3.3418,-3.3418,-3.3418,-3.3418,-3.3418,-3.3418,-3.3418,-3.3418,-3.3418,-3.3418,-3.3418,-3.3418,-3.3418,-3.3418,-3.3418,-3.3418,-3.3418,-3.3418,-3.3418,-3.3047,-3.2812,-3.2754,-3.1934,-3.1504,-3.1465,-3.1074,-3.0898,-3.0898,-3.0898,-3.0898,-3.0898,-3.0898,-3.0898,-3.0898,-3.0898,-3.0898,-3.0898,-3.0898,-3.0898,-3.0898,-3.0898,-3.0898,-3.0898,-3.0898,-3.0645,-3.0274,-2.9667,-2.8582,-2.728,-2.5928,-2.4718,-2.3479,-2.2731,-2.2606,-2.248,-2.174,-2.1866,-2.1978,-2.1614,-2.1614,-2.1614,-2.1614,-2.1614,-2.1727,-2.2327,-2.2224,-2.2378,-2.3172,-2.3222,-2.334,-2.4094,0.0,0.0,-2.5222,-2.5303,-2.5237,-2.4628,-2.3844,-2.2958,-2.2101,-2.1417,-2.1191,-2.1482,-2.154,-2.1802,-2.2413,-2.2486,-2.2892,-2.345,-2.2856,-2.2856,-2.3479,-2.3479,-2.3976,-2.4949,-2.4949,-2.5684,-2.6779,-2.7142,-2.7882,-2.8856,-2.9194,-2.9667,-3.0392,-3.0392,-3.0626,-3.0898,-3.0898,-3.0898,-3.0898,-3.0898,-3.0898,-3.0898,-3.3418,-3.3418,-3.3418,-3.3418,-3.3418,-3.3418,-3.3418,-3.3418,-3.3418,-3.3418,-3.3418,-3.3418,-3.3418,-3.3418,-3.3418,-3.3418,-3.3418,-3.3418,-3.3418,-3.3418,-3.3418,-3.3418,-3.3262,-3.3066,-3.2793,-3.2226,-3.1797,-3.1523,-3.1094,-3.0898,-3.0898,-3.0898,-3.0898,-3.0898,-3.0898,-3.0898,-3.0898,-3.0898,-3.0898,-3.0898,-3.0898,-3.0898,-3.0898,-3.0898,-3.0898,-3.0898,-3.0898,-3.0762,-3.0645,-3.0157,-2.9313,-2.8259,-2.7159,-2.5928,-2.4718,-2.3837,-2.3837,-2.4085,-2.3837,-2.323,-2.2731,-2.2606,-2.248,-2.248,-2.248,-2.2731,-2.2856,-2.3106,-2.3623,-2.4085,-2.4458,-2.5038,-2.5659,-2.6232,0.0,-2.7124,-2.7635,-2.7638,-2.729,-2.6605,-2.5944,-2.5121,-2.3757,-2.3278,-2.2859,-2.2644,-2.2721,-2.2947,-2.3202,-2.3902,-2.4684,-2.5668,-2.5423,-2.5056,-2.4579,-2.5317,-2.5928,-2.6294,-2.69,-2.7624,-2.8241,-2.86,-2.9076,-2.9922,-3.002,-3.0274,-3.0762,-3.0762,-3.0762,-3.0898,-3.0898,-3.0898,-3.0898,-3.0898,-3.0898,-3.0898,-3.3418,-3.3418,-3.3418,-3.3418,-3.3418,-3.3418,-3.3418,-3.3418,-3.3418,-3.3418,-3.3418,-3.3418,-3.3418,-3.3418,-3.3418,-3.3418,-3.3418,-3.3418,-3.3418,-3.3418,-3.3418,-3.3418,-3.3418,-3.3281,-3.3008,-3.2461,-3.2012,-3.1719,-3.1172,-3.0898,-3.0898,-3.0898,-3.0898,-3.0898,-3.0898,-3.0898,-3.0898,-3.0898,-3.0898,-3.0898,-3.0898,-3.0898,-3.0898,-3.0898,-3.0898,-3.0898,-3.0898,-3.0898,-3.0879,-3.0509,-2.9922,-2.9094,-2.8122,-2.6918,-2.5823,-2.5178,-2.5301,-2.5806,-2.5912,-2.5301,-2.4456,-2.3837,-2.3728,-2.3728,-2.3728,-2.3852,-2.4224,-2.4579,-2.5194,-2.5725,-2.6064,-2.6866,-2.7705,-2.7906,-2.8406,-2.8937,-2.9254,-2.901,-2.8672,-2.8106,-2.7518,-2.6699,-2.5543,-2.5194,-2.4877,-2.4521,-2.4762,-2.482,-2.4916,-2.5781,-2.6537,-2.7383,-2.7624,-2.7366,-2.6399,-2.7142,-2.7624,-2.7744,-2.8462,-2.8957,-2.945,-2.9667,-3.002,-3.0509,-3.0509,-3.0645,-3.0898,-3.0898,-3.0898,-3.0898,-3.0898,-3.0898,-3.0898,-3.0898,-3.0898,-3.0898,-3.3418,-3.3418,-3.3418,-3.3418,-3.3418,-3.3418,-3.3418,-3.3418,-3.3418,-3.3418,-3.3418,-3.3418,-3.3418,-3.3418,-3.3418,-3.3418,-3.3418,-3.3418,-3.3418,-3.3418,-3.3418,-3.3418,-3.3418,-3.3418,-3.3418,-3.2598,-3.2168,-3.2168,-3.1309,-3.0898,-3.0898,-3.0898,-3.0898,-3.0898,-3.0898,-3.0898,-3.0898,-3.0898,-3.0898,-3.0898,-3.0898,-3.0898,-3.0898,-3.0898,-3.0898,-3.0898,-3.0898,-3.0898,-3.0879,-3.0509,-3.0157,-2.9686,-2.8838,-2.7642,-2.6554,-2.69,-2.7021,-2.7142,-2.7864,-2.7984,-2.7504,-2.5562,-2.5071,-2.5071,-2.5071,-2.5071,-2.5439,-2.6779,-2.7021,-2.7263,-2.8361,-2.8737,-2.9083,-2.9276,-2.9546,-2.9736,-2.9648,-2.9366,-2.9029,-2.8785,-2.8201,-2.7746,-2.7422,-2.7061,-2.7107,-2.7516,-2.7552,-2.7712,-2.7966,-2.8361,-2.848,-2.848,-2.9076,-2.9431,-2.9412,-2.8838,-2.8838,-2.9431,-2.9431,-2.9785,-3.0392,-3.0392,-3.0645,-3.0898,-3.0898,-3.0898,-3.0898,-3.0898,-3.0898,-3.0898,-3.0898,-3.0898,-3.0898,-3.0898,-3.0898,-3.0898,-3.3418,-3.3418,-3.3418,-3.3418,-3.3418,-3.3418,-3.3418,-3.3418,-3.3418,-3.3418,-3.3418,-3.3418,-3.3418,-3.3418,-3.3418,-3.3418,-3.3418,-3.3418,-3.3418,-3.3418,-3.3418,-3.3418,-3.3418,-3.3418,-3.3418,-3.2598,-3.2168,-3.2168,-3.1309,-3.0898,-3.0898,-3.0898,-3.0898,-3.0898,-3.0898,-3.0898,-3.0898,-3.0898,-3.0898,-3.0898,-3.0898,-3.0898,-3.0898,-3.0898,-3.0898,-3.0898,-3.0898,-3.0898,-3.0898,-3.0762,-3.0509,-3.0157,-2.9431,-2.8719,-2.8259,-2.8379,-2.86,-2.8701,-2.8938,-2.9194,-2.8957,-2.7486,-2.7125,-2.7125,-2.7125,-2.7383,-2.7624,-2.7984,-2.8343,-2.882,-2.9057,-2.9549,-3.0001,-3.0102,-3.0335,-3.0529,-3.0508,-3.0392,-3.0258,-2.9891,-2.9737,-2.937,-2.8824,-2.8707,-2.8645,-2.8555,-2.8555,-2.8728,-2.8938,-2.9057,-2.9313,-2.9785,-3.002,-3.0274,-3.0411,-3.0039,-2.9903,-3.0138,-3.0392,-3.0528,-3.0762,-3.0762,-3.0762,-3.0898,-3.0898,-3.0898,-3.0898,-3.0898,-3.0898,-3.0898,-3.0898,-3.0898,-3.0898,-3.0898,-3.0898,-3.0898,-3.3164,-3.3301,-3.3418,-3.3418,-3.3418,-3.3418,-3.3418,-3.3418,-3.3418,-3.3418,-3.3418,-3.3418,-3.3418,-3.3418,-3.3418,-3.3418,-3.3418,-3.3418,-3.3418,-3.3418,-3.3418,-3.3418,-3.3262,-3.3164,-3.3164,-3.2519,-3.209,-3.1914,-3.123,-3.0898,-3.0898,-3.0898,-3.0898,-3.0898,-3.0898,-3.0898,-3.0898,-3.0898,-3.0898,-3.0898,-3.0898,-3.0898,-3.0898,-3.0898,-3.0898,-3.0898,-3.0898,-3.0898,-3.0898,-3.0898,-3.0645,-3.0392,-2.9903,-2.9549,-2.9331,-2.945,-2.9686,-2.9785,-2.9922,-3.0157,-3.0157,-2.9313,-2.882,-2.8582,-2.8582,-2.8701,-2.8957,-2.9194,-2.9549,-2.9785,-2.9903,-3.0274,-3.0626,-3.0626,-3.0762,-3.0898,-3.0898,-3.0898,-3.0762,-3.0645,-3.0606,-3.047,-3.0039,-3.002,-2.9922,-2.9823,-2.9705,-2.9804,-3.0039,-3.002,-3.0157,-3.0626,-3.0626,-3.0645,-3.0898,-3.0645,-3.0626,-3.0626,-3.0762,-3.0898,-3.0898,-3.0898,-3.0898,-3.0898,-3.0898,-3.0898,-3.0898,-3.0898,-3.0898,-3.0898,-3.0898,-3.0898,-3.0898,-3.0898,-3.0898,-3.0898,-3.2734,-3.3047,-3.3301,-3.3301,-3.3301,-3.3301,-3.3301,-3.3301,-3.332,-3.3359,-3.3359,-3.3379,-3.3418,-3.3418,-3.3418,-3.3418,-3.3418,-3.3418,-3.3418,-3.3418,-3.3398,-3.3359,-3.3008,-3.2754,-3.2676,-3.2305,-3.1914,-3.1523,-3.1094,-3.0898,-3.0898,-3.0898,-3.0898,-3.0898,-3.0898,-3.0898,-3.0898,-3.0898,-3.0898,-3.0898,-3.0898,-3.0898,-3.0898,-3.0898,-3.0898,-3.0898,-3.0898,-3.0898,-3.0898,-3.0898,-3.0645,-3.0392,-3.0392,-3.0274,-3.0039,-3.0392,-3.0392,-3.0509,-3.0762,-3.0898,-3.0898,-3.0898,-3.0157,-2.9549,-2.9549,-2.9549,-2.9667,-3.0274,-3.0392,-3.0509,-3.0879,-3.0898,-3.0898,-3.0898,-3.0898,-3.0898,-3.0898,-3.0898,-3.0898,-3.0898,-3.0898,-3.0898,-3.0898,-3.0898,-3.0898,-3.0898,-3.0898,-3.0898,-3.0898,-3.0898,-3.0898,-3.0898,-3.0898,-3.0898,-3.0898,-3.0898,-3.0898,-3.0898,-3.0898,-3.0898,-3.0898,-3.0898,-3.0898,-3.0898,-3.0898,-3.0898,-3.0898,-3.0898,-3.0898,-3.0898,-3.0898,-3.0898,-3.0898,-3.0898,-3.0898,-3.0898,-3.2305,-3.2383,-3.2441,-3.2441,-3.2441,-3.2441,-3.2441,-3.2441,-3.2559,-3.2891,-3.293,-3.3066,-3.3379,-3.3418,-3.3418,-3.3418,-3.3418,-3.3418,-3.3418,-3.3418,-3.3281,-3.2949,-3.2851,-3.248,-3.1816,-3.1699,-3.1621,-3.1523,-3.1094,-3.0898,-3.0898,-3.0898,-3.0898,-3.0898,-3.0898,-3.0898,-3.0898,-3.0898,-3.0898,-3.0898,-3.0898,-3.0898,-3.0898,-3.0898,-3.0898,-3.0898,-3.0898,-3.0898,-3.0898,-3.0898,-3.0879,-3.0762,-3.0762,-3.0762,-3.0645,-3.0762,-3.0762,-3.0762,-3.0898,-3.0898,-3.0898,-3.0898,-3.0762,-3.0528,-3.0528,-3.0528,-3.0645,-3.0762,-3.0762,-3.0762,-3.0898,-3.0898,-3.0898,-3.0898,-3.0898,-3.0898,-3.0898,-3.0898,-3.0898,-3.0898,-3.0898,-3.0898,-3.0898,-3.0898,-3.0898,-3.0898,-3.0898,-3.0898,-3.0898,-3.0898,-3.0898,-3.0898,-3.0898,-3.0898,-3.0898,-3.0898,-3.0898,-3.0898,-3.0898,-3.0898,-3.0898,-3.0898,-3.0898,-3.0898,-3.0898,-3.0898,-3.0898,-3.0898,-3.0898,-3.0898,-3.0898,-3.0898,-3.0898,-3.0898,-3.0898,-3.0898,-3.1855,-3.2031,-3.2168,-3.2168,-3.2168,-3.2168,-3.2168,-3.2168,-3.2246,-3.2461,-3.25,-3.2578,-3.2793,-3.2832,-3.2832,-3.2832,-3.2832,-3.2832,-3.2832,-3.2832,-3.2734,-3.25,-3.2305,-3.1973,-3.1523,-3.1328,-3.1211,-3.1211,-3.0996,-3.0898,-3.0898,-3.0898,-3.0898,-3.0898,-3.0898,-3.0898,-3.0898,-3.0898,-3.0898,-3.0898,-3.0898,-3.0898,-3.0898,-3.0898,-3.0898,-3.0898,-3.0898,-3.0898,-3.0898,-3.0898,-3.0898,-3.0898,-3.0898,-3.0898,-3.0898,-3.0898,-3.0898,-3.0898,-3.0898,-3.0898,-3.0898,-3.0898,-3.0898,-3.0898,-3.0898,-3.0898,-3.0898,-3.0898,-3.0898,-3.0898,-3.0898,-3.0898,-3.0898,-3.0898,-3.0898,-3.0898,-3.0898,-3.0898,-3.0898,-3.0898,-3.0898,-3.0898,-3.0898,-3.0898,-3.0898,-3.0898,-3.0898,-3.0898,-3.0898,-3.0898,-3.0898,-3.0898,-3.0898,-3.0898,-3.0898,-3.0898,-3.0898,-3.0898,-3.0898,-3.0898,-3.0898,-3.0898,-3.0898,-3.0898,-3.0898,-3.0898,-3.0898,-3.0898,-3.0898,-3.0898,-3.0898,-3.0898,-3.0898,-3.0898,-3.0898,-3.0898,-3.1406,-3.1699,-3.1953,-3.1953,-3.1953,-3.1953,-3.1953,-3.1953,-3.1973,-3.2051,-3.2051,-3.209,-3.2168,-3.2168,-3.2168,-3.2168,-3.2168,-3.2168,-3.2168,-3.2168,-3.2129,-3.207,-3.1719,-3.1484,-3.1406,-3.1074,-3.0898,-3.0898,-3.0898,-3.0898,-3.0898,-3.0898,-3.0898,-3.0898,-3.0898,-3.0898,-3.0898,-3.0898,-3.0898,-3.0898,-3.0898,-3.0898,-3.0898,-3.0898,-3.0898,-3.0898,-3.0898,-3.0898,-3.0898,-3.0898,-3.0898,-3.0898,-3.0898,-3.0898,-3.0898,-3.0898,-3.0898,-3.0898,-3.0898,-3.0898,-3.0898,-3.0898,-3.0898,-3.0898,-3.0898,-3.0898,-3.0898,-3.0898,-3.0898,-3.0898,-3.0898,-3.0898,-3.0898,-3.0898,-3.0898,-3.0898,-3.0898,-3.0898,-3.0898,-3.0898,-3.0898,-3.0898,-3.0898,-3.0898,-3.0898,-3.0898,-3.0898,-3.0898,-3.0898,-3.0898,-3.0898,-3.0898,-3.0898,-3.0898,-3.0898,-3.0898,-3.0898,-3.0898,-3.0898,-3.0898,-3.0898,-3.0898,-3.0898,-3.0898,-3.0898,-3.0898,-3.0898,-3.0898,-3.0898,-3.0898,-3.0898,-3.0898,-3.0898,-3.0898,-3.0898,-3.0898,-3.0976,-3.1016,-3.1074,-3.1074,-3.1074,-3.1074,-3.1074,-3.1074,-3.1191,-3.1562,-3.1601,-3.1758,-3.2129,-3.2168,-3.2168,-3.2168,-3.2168,-3.2168,-3.2168,-3.2168,-3.2012,-3.1621,-3.1543,-3.1348,-3.0976,-3.0918,-3.0898,-3.0898,-3.0898,-3.0898,-3.0898,-3.0898,-3.0898,-3.0898,-3.0898,-3.0898,-3.0898,-3.0898,-3.0898,-3.0898,-3.0898,-3.0898,-3.0898,-3.0898,-3.0898,-3.0898,-3.0898,-3.0898,-3.0898,-3.0898,-3.0898,-3.0898,-3.0898,-3.0898,-3.0898,-3.0898,-3.0898,-3.0898,-3.0898,-3.0898,-3.0898,-3.0898,-3.0898,-3.0898,-3.0898,-3.0898,-3.0898,-3.0898,-3.0898,-3.0898,-3.0898,-3.0898,-3.0898,-3.0898,-3.0898,-3.0898,-3.0898,-3.0898,-3.0898,-3.0898,-3.0898,-3.0898,-3.0898,-3.0898,-3.0898,-3.0898,-3.0898,-3.0898,-3.0898,-3.0898,-3.0898,-3.0898,-3.0898,-3.0898,-3.0898,-3.0898,-3.0898,-3.0898,-3.0898,-3.0898,-3.0898,-3.0898,-3.0898,-3.0898,-3.0898,-3.0898,-3.0898,-3.0898,-3.0898,-3.0898,-3.0898,-3.0898,-3.0898,-3.0898,-3.0898,-3.0898,-3.0898,-3.0898,-3.0898,-3.0898,-3.0898,-3.0898,-3.0898,-3.0898,-3.0957,-3.1133,-3.1172,-3.125,-3.1445,-3.1445,-3.1445,-3.1445,-3.1445,-3.1445,-3.1445,-3.1445,-3.1367,-3.1172,-3.1172,-3.1074,-3.0898,-3.0898,-3.0898,-3.0898,-3.0898,-3.0898,-3.0898,-3.0898,-3.0898,-3.0898,-3.0898,-3.0898,-3.0898,-3.0898,-3.0898,-3.0898,-3.0898,-3.0898,-3.0898,-3.0898,-3.0898,-3.0898,-3.0898,-3.0898,-3.0898,-3.0898,-3.0898,-3.0898,-3.0898,-3.0898,-3.0898,-3.0898,-3.0898,-3.0898,-3.0898,-3.0898,-3.0898,-3.0898,-3.0898,-3.0898,-3.0898,-3.0898,-3.0898,-3.0898,-3.0898,-3.0898,-3.0898,-3.0898,-3.0898,-3.0898,-3.0898,-3.0898,-3.0898,-3.0898,-3.0898,-3.0898,-3.0898,-3.0898,-3.0898,-3.0898,-3.0898,-3.0898,-3.0898,-3.0898,-3.0898,-3.0898,-3.0898,-3.0898,-3.0898,-3.0898,-3.0898,-3.0898,-3.0898,-3.0898,-3.0898,-3.0898,-3.0898,-3.0898,-3.0898,-3.0898,-3.0898,-3.0898,-3.0898,-3.0898,-3.0898,-3.0898,-3.0898,-3.0898,-3.0898,-3.0898,-3.0898,-3.0898]},{"header":{"parameterUnit":"m.s-1","parameterCategory":1,"la1":30.6,"la2":28.766,"lo1":-90.7593,"lo2":-88.6598,"dy":0.0162,"dx":0.0183,"nx":116,"ny":114,"refTime":"2024-06-26T12:00:00:Z","depth":0,"parameterNumber":3,"parameterNumberName":"V-component_of_WINDS"},"data":[0.0,0.0,0.0,0.0,0.0,0.0,0.0,0.0,0.0,0.0,0.0,0.0,0.0,0.0,0.0,0.0,0.0,0.0,0.0,0.0,0.0,0.0,0.0,0.0,0.0,0.0,0.0,0.0,0.0,0.0,0.0,0.0,0.0,0.0,0.0,0.0,0.0,0.0,0.0,0.0,0.0,0.0,0.0,0.0,0.0,0.0,0.0,0.0,0.0,0.0,0.0,0.0,0.0,0.0,0.0,0.0,0.0,0.0,0.0,0.0,0.0,0.0,0.0,0.0,0.0,0.0,0.0,0.0,0.0,0.0,0.0,0.0,0.0,0.0,0.0,0.0,0.0,0.0,0.0,0.0,0.0,0.0,0.0,0.0,0.0,0.0,0.0,0.0,0.0,0.0,0.0,0.0,0.0,0.0,0.0,0.0,0.0,0.0,0.0,0.0,0.0,0.0,0.0,0.0,0.0,0.0,0.0,0.0,0.0,0.0,0.0,0.0,0.0,0.0,0.0,0.0,0.0,0.0,0.0,0.0,0.0,0.0,0.0,0.0,0.0,0.0,0.0,0.0,0.0,0.0,0.0,0.0,0.0,0.0,0.0,0.0,0.0,0.0,0.0,0.0,0.0,0.0,0.0,0.0,0.0,0.0,0.0,0.0,0.0,0.0,0.0,0.0,0.0,0.0,0.0,0.0,0.0,0.0,0.0,0.0,0.0,0.0,0.0,0.0,0.0,0.0,0.0,0.0,0.0,0.0,0.0,0.0,0.0,0.0,0.0,0.0,0.0,0.0,0.0,0.0,0.0,0.0,0.0,0.0,0.0,0.0,0.0,0.0,0.0,0.0,0.0,0.0,0.0,0.0,0.0,0.0,0.0,0.0,0.0,0.0,0.0,0.0,0.0,0.0,0.0,0.0,0.0,0.0,0.0,0.0,0.0,0.0,0.0,0.0,0.0,0.0,0.0,0.0,0.0,0.0,0.0,0.0,0.0,0.0,0.0,0.0,0.0,0.0,0.0,0.0,0.0,0.0,0.0,0.0,0.0,0.0,0.0,0.0,0.0,0.0,0.0,0.0,0.0,0.0,0.0,0.0,0.0,0.0,0.0,0.0,0.0,0.0,0.0,0.0,0.0,0.0,0.0,0.0,0.0,0.0,0.0,0.0,0.0,0.0,0.0,0.0,0.0,0.0,0.0,0.0,0.0,0.0,0.0,0.0,0.0,0.0,0.0,0.0,0.0,0.0,0.0,0.0,0.0,0.0,0.0,0.0,0.0,0.0,0.0,0.0,0.0,0.0,0.0,0.0,0.0,0.0,0.0,0.0,0.0,0.0,0.0,0.0,0.0,0.0,0.0,0.0,0.0,0.0,0.0,0.0,0.0,0.0,0.0,0.0,0.0,0.0,0.0,0.0,0.0,0.0,0.0,0.0,0.0,0.0,0.0,0.0,0.0,0.0,0.0,0.0,0.0,0.0,0.0,0.0,0.0,0.0,0.0,0.0,0.0,0.0,0.0,0.0,0.0,0.0,0.0,0.0,0.0,0.0,0.0,0.0,0.0,0.0,0.0,0.0,0.0,0.0,0.0,0.0,0.0,0.0,0.0,0.0,0.0,0.0,0.0,0.0,0.0,0.0,0.0,0.0,0.0,0.0,0.0,0.0,0.0,0.0,0.0,0.0,0.0,0.0,0.0,0.0,0.0,0.0,0.0,0.0,0.0,0.0,0.0,0.0,0.0,0.0,0.0,0.0,0.0,0.0,0.0,0.0,0.0,0.0,0.0,0.0,0.0,0.0,0.0,0.0,0.0,0.0,0.0,0.0,0.0,0.0,0.0,0.0,0.0,0.0,0.0,0.0,0.0,0.0,0.0,0.0,0.0,0.0,0.0,0.0,0.0,0.0,0.0,0.0,0.0,0.0,0.0,0.0,0.0,0.0,0.0,0.0,0.0,0.0,0.0,0.0,0.0,0.0,0.0,0.0,0.0,0.0,0.0,0.0,0.0,0.0,0.0,0.0,0.0,0.0,0.0,0.0,0.0,0.0,0.0,0.0,0.0,0.0,0.0,0.0,0.0,0.0,0.0,0.0,0.0,0.0,0.0,0.0,0.0,0.0,0.0,0.0,0.0,0.0,0.0,0.0,0.0,0.0,0.0,0.0,0.0,0.0,0.0,0.0,0.0,0.0,0.0,0.0,0.0,0.0,0.0,0.0,0.0,0.0,0.0,0.0,0.0,0.0,0.0,0.0,0.0,0.0,0.0,0.0,0.0,0.0,0.0,0.0,0.0,0.0,0.0,0.0,0.0,0.0,0.0,0.0,0.0,0.0,0.0,0.0,0.0,0.0,0.0,0.0,0.0,0.0,0.0,0.0,0.0,0.0,0.0,0.0,0.0,0.0,0.0,0.0,0.0,0.0,0.0,0.0,0.0,0.0,0.0,0.0,0.0,0.0,0.0,0.0,0.0,0.0,0.0,0.0,0.0,0.0,0.0,0.0,0.0,0.0,0.0,0.0,0.0,0.0,0.0,0.0,0.0,0.0,0.0,0.0,0.0,0.0,0.0,0.0,0.0,0.0,0.0,0.0,0.0,0.0,0.0,0.0,0.0,0.0,0.0,0.0,0.0,0.0,0.0,0.0,0.0,0.0,0.0,0.0,0.0,0.0,0.0,0.0,0.0,0.0,0.0,0.0,0.0,0.0,0.0,0.0,0.0,0.0,0.0,0.0,0.0,0.0,0.0,0.0,0.0,0.0,0.0,0.0,0.0,0.0,0.0,0.0,0.0,0.0,0.0,0.0,0.0,0.0,0.0,0.0,0.0,0.0,0.0,0.0,0.0,0.0,0.0,0.0,0.0,0.0,0.0,0.0,0.0,0.0,0.0,0.0,0.0,0.0,0.0,0.0,0.0,0.0,0.0,0.0,0.0,0.0,0.0,0.0,0.0,0.0,0.0,0.0,0.0,0.0,0.0,0.0,0.0,0.0,0.0,0.0,0.0,0.0,0.0,0.0,0.0,0.0,0.0,0.0,0.0,0.0,0.0,0.0,0.0,0.0,0.0,0.0,0.0,0.0,0.0,0.0,0.0,0.0,0.0,0.0,0.0,0.0,0.0,0.0,0.0,0.0,0.0,0.0,0.0,0.0,0.0,0.0,0.0,0.0,0.0,0.0,0.0,0.0,0.0,0.0,0.0,0.0,0.0,0.0,0.0,0.0,0.0,0.0,0.0,0.0,0.0,0.0,0.0,0.0,0.0,0.0,0.0,0.0,0.0,0.0,0.0,0.0,0.0,0.0,0.0,0.0,0.0,0.0,0.0,0.0,0.0,0.0,0.0,0.0,0.0,0.0,0.0,0.0,0.0,0.0,0.0,0.0,0.0,0.0,0.0,0.0,0.0,0.0,0.0,0.0,0.0,0.0,0.0,0.0,0.0,0.0,0.0,0.0,0.0,0.0,0.0,0.0,0.0,0.0,0.0,0.0,0.0,0.0,0.0,0.0,0.0,0.0,0.0,0.0,0.0,0.0,0.0,0.0,0.0,0.0,0.0,0.0,0.0,0.0,0.0,0.0,0.0,0.0,0.0,0.0,0.0,0.0,0.0,0.0,0.0,0.0,0.0,0.0,0.0,0.0,0.0,0.0,0.0,0.0,0.0,0.0,0.0,0.0,0.0,0.0,0.0,0.0,0.0,0.0,0.0,0.0,0.0,0.0,0.0,0.0,0.0,0.0,0.0,0.0,0.0,0.0,0.0,0.0,0.0,0.0,0.0,0.0,0.0,0.0,0.0,0.0,0.0,0.0,0.0,0.0,0.0,0.0,0.0,0.0,0.0,0.0,0.0,0.0,0.0,0.0,0.0,0.0,0.0,0.0,0.0,0.0,0.0,0.0,0.0,0.0,0.0,0.0,0.0,0.0,0.0,0.0,0.0,0.0,0.0,0.0,0.0,0.0,0.0,0.0,0.0,0.0,0.0,0.0,0.0,0.0,0.0,0.0,0.0,0.0,0.0,0.0,0.0,0.0,0.0,0.0,0.0,0.0,0.0,0.0,0.0,0.0,0.0,0.0,0.0,0.0,0.0,0.0,0.0,0.0,0.0,0.0,0.0,0.0,0.0,0.0,0.0,0.0,0.0,0.0,0.0,0.0,0.0,0.0,0.0,0.0,0.0,0.0,0.0,0.0,0.0,0.0,0.0,0.0,0.0,0.0,0.0,0.0,0.0,0.0,0.0,0.0,0.0,0.0,0.0,0.0,0.0,0.0,0.0,0.0,0.0,0.0,0.0,0.0,0.0,0.0,0.0,0.0,0.0,0.0,0.0,0.0,0.0,0.0,0.0,0.0,0.0,0.0,0.0,0.0,0.0,0.0,0.0,0.0,0.0,0.0,0.0,0.0,0.0,0.0,0.0,0.0,0.0,0.0,0.0,0.0,0.0,0.0,0.0,0.0,0.0,0.0,0.0,0.0,0.0,0.0,0.0,0.0,0.0,0.0,0.0,0.0,0.0,0.0,0.0,0.0,0.0,0.0,0.0,0.0,0.0,0.0,0.0,0.0,0.0,0.0,0.0,0.0,0.0,0.0,0.0,0.0,0.0,0.0,0.0,0.0,0.0,0.0,0.0,0.0,0.0,0.0,0.0,0.0,0.0,0.0,0.0,0.0,0.0,0.0,0.0,0.0,0.0,0.0,0.0,0.0,0.0,0.0,0.0,0.0,0.0,0.0,0.0,0.0,0.0,0.0,0.0,0.0,0.0,0.0,0.0,0.0,0.0,0.0,0.0,0.0,0.0,0.0,0.0,0.0,0.0,0.0,0.0,0.0,0.0,0.0,0.0,0.0,0.0,0.0,0.0,0.0,0.0,0.0,0.0,0.0,0.0,0.0,0.0,0.0,0.0,0.0,0.0,0.0,0.0,0.0,0.0,0.0,0.0,0.0,0.0,0.0,0.0,0.0,0.0,0.0,0.0,0.0,0.0,0.0,0.0,0.0,0.0,0.0,0.0,0.0,0.0,0.0,0.0,0.0,0.0,0.0,0.0,0.0,0.0,0.0,0.0,0.0,0.0,0.0,0.0,0.0,0.0,0.0,0.0,0.0,0.0,0.0,0.0,0.0,0.0,0.0,0.0,0.0,0.0,0.0,0.0,0.0,0.0,0.0,0.0,0.0,0.0,0.0,0.0,0.0,0.0,0.0,0.0,0.0,0.0,0.0,0.0,0.0,0.0,0.0,0.0,0.0,0.0,0.0,0.0,0.0,0.0,0.0,0.0,0.0,0.0,0.0,0.0,0.0,0.0,0.0,0.0,0.0,0.0,0.0,0.0,0.0,0.0,0.0,0.0,0.0,0.0,0.0,0.0,0.0,0.0,0.0,0.0,0.0,0.0,0.0,0.0,0.0,0.0,0.0,0.0,0.0,0.0,0.0,0.0,0.0,0.0,0.0,0.0,0.0,0.0,0.0,0.0,0.0,0.0,0.0,0.0,0.0,0.0,0.0,0.0,0.0,0.0,0.0,0.0,0.0,0.0,0.0,0.0,0.0,0.0,0.0,0.0,0.0,0.0,0.0,0.0,0.0,0.0,0.0,0.0,0.0,0.0,0.0,0.0,0.0,0.0,0.0,0.0,0.0,0.0,0.0,0.0,0.0,0.0,0.0,0.0,0.0,0.0,0.0,0.0,0.0,0.0,0.0,0.0,0.0,0.0,0.0,0.0,0.0,0.0,0.0,0.0,0.0,0.0,0.0,0.0,0.0,0.0,0.0,0.0,0.0,0.0,0.0,0.0,0.0,0.0,0.0,0.0,0.0,0.0,0.0,0.0,0.0,0.0,0.0,0.0,0.0,0.0,0.0,0.0,0.0,0.0,0.0,0.0,0.0,0.0,0.0,0.0,0.0,0.0,0.0,0.0,0.0,0.0,0.0,0.0,0.0,0.0,0.0,0.0,0.0,0.0,0.0,0.0,0.0,0.0,0.0,0.0,0.0,0.0,0.0,0.0,0.0,0.0,0.0,0.0,0.0,0.0,0.0,0.0,0.0,0.0,0.0,0.0,0.0,0.0,0.0,0.0,0.0,0.0,0.0,0.0,0.0,0.0,0.0,0.0,0.0,0.0,0.0,0.0,0.0,-3.6239,0.0,0.0,0.0,0.0,0.0,0.0,0.0,0.0,0.0,0.0,0.0,0.0,0.0,0.0,0.0,0.0,0.0,0.0,0.0,0.0,0.0,0.0,0.0,0.0,-2.3124,-2.4036,-2.4036,-2.4016,-2.4016,-2.4036,0.0,0.0,0.0,0.0,0.0,-2.3566,-2.3529,-2.4116,-2.5364,-2.6135,-2.7934,-3.065,-3.021,-2.8778,-2.6502,0.0,0.0,0.0,0.0,0.0,0.0,0.0,0.0,0.0,0.0,0.0,0.0,0.0,0.0,0.0,0.0,0.0,0.0,0.0,0.0,0.0,0.0,0.0,0.0,0.0,0.0,0.0,0.0,0.0,0.0,0.0,0.0,0.0,0.0,0.0,0.0,0.0,0.0,0.0,0.0,0.0,0.0,0.0,0.0,0.0,0.0,0.0,0.0,0.0,0.0,0.0,0.0,0.0,0.0,0.0,0.0,0.0,0.0,0.0,0.0,0.0,0.0,0.0,0.0,0.0,0.0,0.0,0.0,0.0,0.0,0.0,-3.9558,0.0,0.0,0.0,0.0,0.0,0.0,0.0,0.0,0.0,0.0,0.0,0.0,0.0,0.0,0.0,0.0,0.0,0.0,0.0,0.0,0.0,-2.1931,-2.2188,-2.3529,-2.452,-2.4814,-2.4704,-2.4667,-2.4814,-2.4557,0.0,0.0,0.0,-2.4263,-2.441,-2.5181,-2.6135,-2.7236,-2.9402,-3.1898,-3.4688,-3.5642,-3.4293,-3.1066,-3.0516,0.0,0.0,0.0,0.0,0.0,0.0,0.0,0.0,0.0,0.0,0.0,0.0,0.0,0.0,0.0,0.0,0.0,0.0,0.0,0.0,0.0,0.0,0.0,0.0,0.0,0.0,0.0,0.0,0.0,0.0,0.0,0.0,0.0,0.0,0.0,0.0,0.0,0.0,0.0,0.0,0.0,0.0,0.0,0.0,0.0,0.0,0.0,0.0,0.0,0.0,0.0,0.0,0.0,0.0,0.0,0.0,0.0,0.0,0.0,0.0,0.0,0.0,0.0,-5.1121,-5.2263,-5.3592,-5.3675,-5.4157,-5.4676,-4.8937,-4.608,-4.5228,0.0,0.0,0.0,0.0,0.0,0.0,0.0,0.0,0.0,0.0,0.0,0.0,0.0,0.0,0.0,0.0,0.0,0.0,0.0,0.0,-2.2318,-2.3712,-2.4704,-2.5825,-2.72,-2.6686,-2.6576,-2.7273,-2.6046,0.0,0.0,-2.4557,-2.452,-2.5237,-2.6025,-2.753,-2.9732,-3.4174,-3.6927,-3.8102,-3.9606,-4.001,-3.9386,-3.6597,-3.4468,-3.2963,0.0,0.0,0.0,0.0,0.0,0.0,0.0,0.0,0.0,0.0,0.0,0.0,0.0,0.0,0.0,0.0,0.0,0.0,0.0,0.0,0.0,0.0,0.0,0.0,0.0,0.0,0.0,0.0,0.0,0.0,0.0,0.0,0.0,0.0,0.0,0.0,0.0,0.0,0.0,0.0,0.0,-3.0723,-3.1825,0.0,0.0,0.0,0.0,0.0,0.0,0.0,0.0,0.0,0.0,0.0,0.0,0.0,0.0,-4.9701,-5.2621,-5.4627,-5.5606,-5.6951,-5.8105,-5.9078,-5.8978,-5.9466,-6.0358,-5.8702,0.0,-5.1266,-4.9597,0.0,0.0,0.0,0.0,0.0,0.0,0.0,0.0,0.0,0.0,0.0,0.0,0.0,0.0,0.0,0.0,0.0,0.0,0.0,0.0,0.0,-2.6392,-2.7897,-2.9035,-2.8815,-2.8594,-2.8484,-2.6979,-2.5878,-2.5421,-2.5054,-2.5254,-2.6062,-2.775,-3.0723,-3.4981,-3.8028,-4.0634,-4.2763,-4.3461,-4.4305,-4.5076,-4.3204,-4.0194,-3.6486,-3.5716,0.0,0.0,0.0,0.0,0.0,0.0,0.0,0.0,0.0,0.0,0.0,0.0,0.0,0.0,0.0,0.0,0.0,0.0,0.0,0.0,0.0,0.0,0.0,0.0,0.0,0.0,0.0,0.0,0.0,0.0,0.0,0.0,0.0,0.0,0.0,0.0,0.0,0.0,0.0,-3.1164,-3.4614,-3.5899,-3.634,-3.645,0.0,0.0,0.0,0.0,0.0,0.0,0.0,0.0,0.0,-5.1279,-5.4069,-5.5757,-5.6198,-5.8427,-6.0213,-6.1495,-6.2581,-6.3518,-6.4339,-6.4286,-6.4558,-6.4992,-6.4589,-6.2618,-5.9408,-5.5487,-5.2747,-5.0707,0.0,0.0,0.0,0.0,-4.6468,-4.826,0.0,0.0,0.0,0.0,0.0,0.0,0.0,0.0,0.0,0.0,0.0,0.0,-2.6098,-2.8117,-2.9989,-3.1604,-3.1384,-3.0944,-3.0552,-2.8631,-2.7163,-2.6355,-2.6098,-2.6465,-2.7493,-3.0723,-3.4761,-3.9606,-4.1662,-4.3975,-4.6507,-4.6948,-4.7792,-4.893,-4.8306,-4.5259,-4.0451,-3.9239,-3.6964,0.0,0.0,0.0,0.0,0.0,0.0,0.0,0.0,0.0,0.0,0.0,0.0,0.0,0.0,0.0,0.0,0.0,0.0,0.0,0.0,0.0,0.0,0.0,0.0,0.0,0.0,0.0,0.0,0.0,0.0,0.0,0.0,0.0,0.0,0.0,0.0,0.0,0.0,-3.4945,-3.8212,-4.001,-4.0598,-4.1001,0.0,0.0,0.0,0.0,0.0,0.0,-5.0325,-5.3408,-5.5794,-5.7373,-5.9612,-6.1153,-6.1961,-6.3576,-6.5007,-6.6256,-6.7026,-6.7724,-6.8311,-6.8365,-6.8365,-6.8365,-6.8436,-6.7663,-6.597,-6.0798,-5.7703,-5.6051,-5.4032,-5.3628,-5.3995,-5.2784,-5.3628,-5.5354,0.0,0.0,0.0,0.0,0.0,0.0,0.0,0.0,0.0,0.0,0.0,-2.5267,-2.8462,-2.9622,-3.1715,-3.5642,-3.4541,-3.3917,0.0,-3.1788,-2.9659,-2.8828,-2.8081,-2.8411,-2.9989,-3.5459,-3.9533,-4.2103,-4.5259,-4.7278,-4.8233,-4.9811,-5.0618,-5.0655,-5.0618,-4.871,-4.5369,-4.3057,-4.0634,-3.8102,0.0,0.0,0.0,0.0,0.0,0.0,0.0,0.0,0.0,0.0,0.0,0.0,0.0,0.0,0.0,0.0,0.0,0.0,0.0,0.0,0.0,0.0,0.0,0.0,0.0,0.0,0.0,0.0,0.0,0.0,0.0,0.0,0.0,0.0,0.0,0.0,0.0,0.0,0.0,-4.4121,-4.5773,0.0,0.0,0.0,0.0,-4.893,-5.1353,-5.3775,-5.6235,-5.8694,-6.0786,-6.2401,-6.4127,-6.5375,-6.6182,-6.7797,-6.8641,-6.8752,-6.9522,-6.9926,-6.9963,-7.0128,-7.0182,-7.0182,-7.0412,-7.0087,-6.8999,-6.5285,-6.2732,-6.1153,-6.0272,-5.9942,-5.9979,-5.9905,-6.0419,-6.119,0.0,0.0,0.0,-1.8714,-1.8714,-1.8714,-1.8697,-1.9467,-2.0584,-2.2037,-2.4169,-2.6745,-3.0063,-3.251,-3.495,-3.7497,-3.7168,-3.6509,-3.5899,-3.3293,-3.1164,-2.9843,-2.9989,-3.1861,-3.5605,-3.968,-4.2983,-4.5406,-4.7609,-4.937,-5.0692,-5.1279,-5.1867,-5.2344,-5.1793,-5.0912,-4.9627,-4.6654,-4.4305,-4.2286,-3.9019,-3.5936,0.0,0.0,0.0,0.0,0.0,0.0,0.0,0.0,0.0,0.0,0.0,0.0,0.0,0.0,0.0,0.0,0.0,0.0,0.0,0.0,0.0,0.0,0.0,0.0,0.0,0.0,0.0,0.0,0.0,0.0,0.0,0.0,0.0,0.0,0.0,0.0,0.0,-4.8343,-5.0068,0.0,0.0,-5.2087,-5.3225,-5.484,-5.6748,-5.8914,-6.1374,-6.3282,-6.5081,-6.6696,-6.8311,-6.9302,-6.9596,-7.1174,-7.1982,-7.1982,-7.2789,-7.3193,-7.3193,-7.3366,-7.3479,-7.3591,-7.3882,-7.3261,-7.1974,-7.0721,-6.8531,-6.5854,-6.5396,-6.5285,-6.5262,-6.4646,-6.4746,-6.5078,-1.8108,-1.835,0.0,-1.8463,-1.8463,-1.8483,-1.8506,-1.9487,-2.08,-2.2252,-2.5095,-2.8164,-3.1465,-3.4467,-3.7112,-3.9319,-3.9097,-3.8396,-3.7436,-3.5117,-3.3166,-3.1847,-3.312,-3.5899,-4.023,-4.3204,-4.5773,-4.7939,-4.9591,-5.1096,-5.2417,-5.2674,-5.3225,-5.3995,-5.3445,-5.3188,-5.3041,-5.0618,-4.8159,-4.5663,-4.2727,-3.9753,-3.6824,0.0,0.0,0.0,0.0,0.0,0.0,0.0,0.0,0.0,0.0,0.0,0.0,0.0,0.0,0.0,0.0,0.0,0.0,0.0,0.0,0.0,0.0,0.0,0.0,0.0,0.0,0.0,0.0,0.0,0.0,0.0,0.0,0.0,0.0,0.0,-4.9664,-5.2123,-5.4106,-5.5537,-5.6345,-5.7152,-5.84,-6.0309,-6.1704,-6.3392,-6.5595,-6.7247,-6.8752,-7.0073,-7.1431,-7.2239,-7.2532,-7.356,-7.4111,-7.4111,-7.4661,-7.4918,-7.4918,-7.519,-7.5326,-7.5495,-7.5841,-7.5431,-7.4574,-7.4611,-7.3193,-7.0909,-6.9377,-6.8815,-6.8867,-6.8173,-6.8107,-6.8173,-1.7197,-1.774,-1.819,-1.819,-1.819,-1.8197,-1.8287,-1.9703,-2.1132,-2.2123,-2.5765,-2.9454,-3.2665,-3.5274,-3.8005,-4.114,-4.0274,-3.9509,-3.9436,-3.7343,-3.582,-3.5089,-3.7491,-4.0341,-4.3534,-4.5993,-4.8012,-4.9664,-5.1279,-5.2454,-5.3261,-5.4069,-5.484,-5.5574,-5.5574,-5.5574,-5.5537,-5.4766,-5.216,-4.8306,-4.5883,-4.3424,-4.0928,0.0,0.0,0.0,0.0,0.0,0.0,0.0,0.0,0.0,0.0,0.0,0.0,0.0,0.0,0.0,0.0,0.0,0.0,0.0,0.0,0.0,0.0,0.0,0.0,0.0,0.0,0.0,0.0,0.0,0.0,0.0,0.0,0.0,-4.5957,-4.9591,-5.3078,-5.5464,-5.7886,-5.9685,-6.0493,-6.13,-6.2805,-6.5228,-6.6182,-6.7357,-6.8935,-7.0513,-7.1762,-7.2569,-7.334,-7.4147,-7.4955,-7.4955,-7.4992,-7.4992,-7.4992,-7.4992,-7.4992,-7.5285,-7.5513,-7.5736,-7.6229,-7.6541,-7.6638,-7.6638,-7.6552,-7.6019,-7.2118,-7.0639,-7.0587,-7.0403,-7.0507,-7.056,-1.6954,-1.7597,-1.8048,-1.8048,-1.8048,-1.807,-1.8121,-1.9529,-2.1336,-2.3372,-2.6639,-2.9981,-3.3166,-3.6185,-3.8358,-3.9367,-3.973,-3.9482,-3.857,-3.7499,-3.74,-3.8475,-4.0891,-4.3424,-4.6067,-4.8526,-5.0288,-5.1316,-5.2931,-5.3849,-5.4106,-5.4876,-5.539,-5.5574,-5.5574,-5.5574,-5.5574,-5.5354,-5.462,-5.3335,-5.0325,-4.7315,-4.4415,0.0,0.0,0.0,0.0,0.0,0.0,0.0,0.0,0.0,0.0,0.0,0.0,0.0,0.0,0.0,0.0,0.0,0.0,0.0,0.0,0.0,0.0,0.0,0.0,0.0,0.0,0.0,0.0,0.0,0.0,0.0,0.0,-4.9187,-4.9407,-5.3445,-5.7042,-5.8841,-6.1263,-6.3062,-6.387,-6.5191,-6.6549,-6.7834,-6.9229,-7.044,-7.1468,-7.2496,-7.3413,-7.4221,-7.5028,-7.5542,-7.5763,-7.635,-7.6644,-7.6644,-7.6644,-7.6644,-7.6644,-7.698,-7.7176,-7.7404,-7.7946,-7.7866,-7.7354,-7.7453,-7.6991,-7.5907,-7.4063,-7.3384,-7.3273,-7.1837,-7.1353,-7.1387,-1.6271,-1.7148,-1.7861,-1.7861,-1.7917,-1.8041,-1.8415,-1.959,-2.1295,-2.3684,-2.6754,-2.9957,-3.3001,-3.5913,-3.7923,-3.8677,-3.9018,-3.9035,-3.8652,-3.8868,-3.9618,-4.1131,-4.3505,-4.5846,-4.8009,-5.0134,-5.1825,-5.3004,-5.3922,-5.473,-5.5427,-5.5868,-5.6271,-5.6602,-5.6602,-5.6602,-5.6602,-5.6602,-5.6418,-5.5941,-5.4069,-5.1353,-4.8233,-4.6434,-4.3864,-4.1148,-4.0451,-3.8762,-3.656,-3.4614,0.0,0.0,0.0,0.0,0.0,0.0,0.0,0.0,0.0,0.0,0.0,0.0,0.0,0.0,0.0,0.0,0.0,0.0,0.0,0.0,0.0,0.0,0.0,0.0,-5.1169,-5.4179,-5.517,-5.774,-6.0126,-6.1741,-6.4127,-6.5778,-6.6256,-6.776,-6.9155,-7.033,-7.1284,-7.2312,-7.345,-7.4258,-7.4918,-7.5395,-7.6203,-7.6607,-7.6607,-7.7084,-7.7304,-7.7304,-7.7304,-7.7304,-7.7304,-7.7584,-7.782,0.0,-7.8404,-7.832,-7.7976,-7.8054,-7.7653,0.0,0.0,0.0,0.0,0.0,-7.2782,-7.2529,-1.5495,-1.6641,-1.7681,-1.7647,-1.7726,-1.8042,-1.8833,-1.9709,-2.1139,-2.3493,-2.6461,-2.9489,-3.2417,-3.4881,-3.6866,-3.8114,-3.8063,-3.831,-3.9282,-4.0681,-4.2039,-4.3175,-4.5533,-4.7688,-4.9533,-5.1219,-5.2761,-5.4356,-5.4539,-5.5346,-5.6777,-5.6895,-5.7336,-5.7997,-5.7997,-5.7997,-5.7997,-5.7997,-5.7593,-5.6932,-5.6859,-5.495,-5.183,-4.8893,-4.6728,-4.5039,-4.3534,-4.2396,-4.1295,-3.8946,0.0,0.0,0.0,0.0,0.0,0.0,0.0,0.0,0.0,0.0,0.0,0.0,0.0,0.0,0.0,0.0,0.0,0.0,0.0,0.0,0.0,0.0,0.0,0.0,-5.5941,-5.9245,-6.1667,-6.2181,-6.2842,-6.431,-6.6476,-6.7907,-6.8091,-6.9486,-7.0991,-7.2532,-7.2789,-7.3523,-7.4955,0.0,0.0,0.0,0.0,-7.7304,-7.7304,-7.7304,-7.7304,-7.7304,-7.7304,-7.7304,-7.7341,-7.7524,-7.7643,-7.782,-7.8034,-7.8257,-7.8329,-7.8357,-7.8288,-7.7942,-7.6347,-7.5531,-7.5322,-7.4809,-7.4323,-7.3752,-1.5999,-1.6749,-1.7392,-1.7439,-1.7509,-1.7823,-1.8559,-1.9504,-2.1155,-2.3973,-2.6582,-2.9076,-3.1507,-3.3842,-3.5118,-3.4898,-3.6069,-3.7335,0.0,0.0,-4.2767,-4.4448,-4.6952,-4.9061,-5.0652,-5.2472,-5.359,-5.3918,-5.546,-5.6356,-5.6685,-5.74,-5.785,-5.7997,-5.7997,-5.7997,-5.7997,-5.7997,-5.7923,-5.7703,-5.7079,-5.528,-5.2894,-5.227,-5.0618,-4.8526,-4.7498,-4.6214,-4.4709,-4.291,-4.0928,-3.8799,-3.656,0.0,0.0,0.0,0.0,0.0,0.0,0.0,0.0,0.0,0.0,0.0,0.0,0.0,0.0,0.0,0.0,0.0,0.0,0.0,0.0,-5.7042,-5.9538,-6.1777,-6.4237,-6.5705,-6.6623,-6.6953,-6.7981,-6.9192,-7.0477,-7.1468,-7.2422,-7.3377,-7.4661,-7.5542,-7.5836,-7.6644,0.0,-7.7084,-7.7231,-7.7304,-7.7304,-7.7304,-7.7304,-7.7304,0.0,0.0,-7.7341,-7.7524,-7.7584,-7.7643,-7.79,-7.8014,-7.7957,-7.7997,-7.792,-7.7592,-7.6749,-7.5916,-7.5138,-7.4842,-7.4709,-7.4611,-1.6148,-1.675,-1.715,-1.7175,-1.7296,-1.778,-1.8934,-1.9613,-2.0955,-2.3553,-2.5639,-2.7573,-2.9442,-3.1346,-3.2508,-3.2554,-3.4844,0.0,0.0,-4.1394,-4.3578,-4.5407,-4.75,-4.9246,-5.0665,-5.239,-5.3592,-5.4218,-5.5607,-5.6551,-5.7131,-5.7674,-5.795,-5.7997,-5.7997,-5.7997,-5.7997,-5.7997,-5.7997,-5.796,-5.7556,-5.6198,-5.4326,-5.3518,-5.194,-5.0068,-4.926,-4.8159,-4.6911,-4.57,-4.3975,-4.1956,-3.9937,-3.7624,-3.5092,0.0,0.0,0.0,0.0,0.0,0.0,0.0,0.0,0.0,0.0,0.0,0.0,0.0,0.0,-4.86,0.0,0.0,-5.6675,-5.9869,-6.2475,-6.464,-6.6256,-6.7871,-6.8752,-6.8348,-6.9376,-7.0587,-7.1798,-7.2642,-7.3597,-7.4808,-7.5652,-7.6276,-7.668,-7.7084,-7.7304,-7.7304,-7.7304,-7.7304,-7.7304,-7.7304,-7.7304,-7.7304,-7.7304,-7.7304,-7.7304,-7.7402,-7.7463,-7.7463,-7.7607,-7.7607,-7.7547,-7.7607,-7.7547,-7.7426,-7.7082,-7.6383,-7.561,-7.5587,-7.5105,-7.4502,-1.6154,-1.6538,-1.6857,-1.6876,-1.7156,-1.7829,-1.9246,-1.977,-2.0772,-2.2902,-2.4435,-2.5848,-2.7197,-2.8583,-2.9871,-3.0925,0.0,0.0,0.0,-4.1829,-4.4138,-4.611,-4.756,-4.9011,-5.0303,-5.2003,-5.3314,-5.4403,-5.5527,-5.6573,-5.7486,-5.7631,-5.781,-5.7904,-5.7904,-5.7904,-5.7904,-5.7904,-5.7904,-5.795,-5.795,-5.7042,-5.5427,-5.3995,-5.2417,-5.0912,-4.9921,-4.904,-4.8159,-4.7205,-4.592,-4.4378,-4.2433,-4.0598,-3.8615,-3.5826,-3.4284,0.0,0.0,0.0,0.0,0.0,0.0,0.0,0.0,0.0,-4.8159,-5.0288,-5.2821,-5.506,-5.6492,-5.8621,-6.075,-6.2511,-6.5007,-6.7063,-6.8017,-6.9265,-6.9853,-6.9229,-7.044,-7.1688,-7.2642,-7.345,-7.4551,-7.5983,-7.624,-7.6644,-7.7304,-7.7304,-7.7304,-7.7304,-7.7304,-7.7304,-7.7304,-7.7304,-7.7304,-7.7304,-7.7304,-7.7304,-7.7304,-7.7304,-7.7304,-7.7304,-7.7304,-7.7304,-7.7304,-7.7304,-7.7304,-7.7304,-7.7304,-7.69,-7.6313,-7.6383,-7.5617,-7.457,-1.6024,-1.6108,-1.6246,-1.6436,-1.7074,-1.7876,-1.8847,-1.9722,-2.0839,-2.2567,-2.3716,-2.4678,-2.5514,-2.6421,-2.7874,-3.0122,-3.3121,0.0,-3.8391,-4.1312,-4.3976,-4.6339,-4.7434,-4.8653,-5.0098,-5.2061,-5.3238,-5.3509,-5.5509,-5.6668,-5.7087,-5.7338,-5.7486,-5.7631,-5.7486,-5.7534,-5.7667,-5.7486,-5.7583,-5.7857,-5.7857,-5.6914,-5.55,-5.462,-5.3261,-5.1646,-5.0141,-4.904,-4.8086,-4.6544,-4.5443,-4.4672,-4.4378,-4.2727,-4.0634,-3.9533,0.0,-3.7074,-3.7588,-3.9827,-4.2249,-4.324,-4.5369,-4.7682,0.0,0.0,-5.3739,-5.4693,-5.7409,-5.9869,-6.075,-6.2365,-6.431,-6.6623,-6.732,-6.8091,-6.9596,-7.0,-7.0073,-6.9963,-7.077,-7.1908,-7.3413,-7.4294,-7.5139,-7.6019,-7.679,-7.7231,-7.7304,-7.7304,-7.7304,-7.7304,-7.7304,-7.7304,-7.7304,-7.7304,-7.7304,-7.7304,-7.7304,-7.7304,-7.7304,-7.7304,-7.7304,-7.7304,-7.7304,-7.7304,-7.7304,-7.7304,-7.7304,-7.7304,-7.7304,-7.7268,-7.7084,-7.6604,-7.6295,-7.5985,-1.597,-1.5942,-1.597,-1.6055,-1.6861,-1.7744,-1.8614,-1.9549,-2.0596,-2.1759,-2.2765,-2.3551,-2.385,-2.5145,-2.6927,-2.9302,-3.1811,-3.4669,-3.7887,-4.0508,-4.2977,-4.5426,-4.6713,-4.7923,-4.9217,-5.0945,-5.2184,-5.2949,-5.4494,-5.5684,-5.6582,-5.6933,-5.7138,-5.7239,-5.7188,-5.7138,-5.7102,-5.7138,-5.7239,-5.7302,-5.6928,-5.5811,-5.4292,-5.3053,-5.1012,-4.8794,-4.8773,-4.7604,0.0,0.0,-4.4307,-4.3318,-4.3864,-4.2983,-4.1735,-4.1405,-4.1148,0.0,-4.2543,-4.4562,0.0,0.0,-5.0765,-5.2968,-5.462,-5.6859,-5.8804,-5.9612,-6.163,-6.3356,-6.3686,-6.4714,-6.5962,0.0,-6.8495,-6.9339,-7.0,-7.0513,-7.0624,-7.0146,-7.0403,-7.1248,-7.2863,-7.4147,-7.5249,-7.6056,-7.6864,-7.7304,-7.7304,-7.7304,-7.7304,-7.7304,-7.7304,-7.7304,-7.7304,-7.7304,-7.7304,-7.7304,-7.7304,-7.7304,-7.7304,-7.7304,-7.7304,-7.7304,-7.7304,-7.7304,-7.7304,-7.7304,-7.7304,-7.7304,-7.7304,-7.7304,-7.7268,-7.7035,-7.6594,-7.6103,-1.597,-1.5856,-1.5858,-1.6009,-1.6877,-1.7728,-1.8345,-1.9404,-2.0353,-2.0991,-2.1762,-2.2341,-2.2562,-2.3911,-2.5681,-2.7875,-3.0277,-3.3186,-3.6738,-3.9242,-4.173,-4.4313,-4.5637,-4.7009,-4.8367,-4.9761,-5.097,-5.2112,-5.323,-5.4323,-5.5395,-5.5883,-5.6241,-5.64,-5.651,-5.6528,-5.6438,-5.6313,-5.6348,-5.6433,-5.5707,-5.4543,-5.3002,-5.1457,-4.8844,-4.6096,-4.6782,-4.5475,0.0,0.0,-4.241,-4.1567,-4.2255,-4.2362,-4.2326,-4.258,-4.3681,-4.5112,-4.6544,0.0,0.0,-5.2747,-5.5133,-5.7336,-5.8951,-6.0676,-6.2144,-6.2989,-6.4127,-6.4971,-6.4971,-6.5815,0.0,-6.7871,-6.9192,-7.0183,-7.0403,-7.0734,-7.066,-6.9853,-6.9779,-7.0293,-7.1688,-7.3303,-7.4771,-7.6019,-7.6644,-7.7084,-7.7304,-7.7304,-7.7304,-7.7304,-7.7304,-7.7304,-7.7304,-7.7304,-7.7304,-7.7304,-7.7304,-7.7304,-7.7304,-7.7304,-7.7304,-7.7304,-7.7304,-7.7304,-7.7304,-7.7304,-7.7304,-7.7304,-7.7304,-7.7304,-7.7304,-7.7304,-7.6937,-7.6313,-1.6111,-1.5942,-1.5979,-1.6577,-1.7329,-1.7908,-1.8003,-1.9295,-2.0357,-2.0426,-2.0761,-2.1183,-2.1771,-2.2585,-2.3806,-2.5542,-2.845,-3.1427,-3.4404,-3.7381,-4.0392,-4.3335,-4.4215,-4.5669,-4.7868,-4.8829,-4.9759,-5.0659,-5.1899,-5.2695,-5.3019,-5.4099,-5.4641,-5.4788,-5.5226,-5.5636,-5.5865,-5.4803,-5.4712,-5.5187,-5.4366,-5.3268,-5.197,-5.0351,-4.7671,-4.4707,-4.4361,0.0,-4.0634,-3.987,-3.9613,-3.9644,-3.9812,-4.0976,0.0,-4.324,-4.57,0.0,0.0,0.0,-5.462,-5.6271,-5.8474,-6.0676,-6.2291,-6.2732,-6.3025,-6.387,-6.409,-6.4127,-6.4127,-6.5411,-6.7026,-6.8605,-6.9559,-7.0367,-7.1174,-7.0624,-6.9853,-6.9045,-6.8935,-6.9265,0.0,-7.1615,-7.356,-7.5909,-7.613,-7.6497,-7.7268,-7.7304,-7.7304,-7.7304,-7.7304,-7.7304,-7.7304,-7.7304,-7.7304,-7.7304,-7.7304,-7.7304,-7.7304,-7.7304,-7.7304,-7.7304,-7.7304,-7.7304,-7.7304,-7.7304,-7.7304,-7.7304,-7.7304,-7.7304,-7.7304,-7.7304,-7.7304,-7.7157,-1.6108,-1.6245,-1.6458,-1.6667,-1.7719,-1.857,-1.8573,-1.9501,-2.0185,-2.022,-2.0597,0.0,0.0,0.0,0.0,0.0,-2.7435,-2.9837,-3.2814,-3.5385,-3.7855,-4.0358,-4.2151,-4.3639,-4.4925,-4.6235,-4.7335,-4.8226,-4.9272,-5.0183,-5.0991,-5.1986,-5.245,-5.2542,-5.3195,-5.3485,-5.3415,-5.2648,-5.2507,-5.2502,-5.084,-4.9607,-4.8423,-4.5847,-4.3225,-4.075,0.0,0.0,-3.7756,-3.7711,-3.7377,-3.7225,-3.8574,0.0,0.0,-4.5003,-4.7425,-4.9664,0.0,0.0,-5.6638,-5.9318,-6.1006,-6.2291,-6.3392,-6.409,-6.4237,-6.3429,-6.3686,-6.3906,-6.3356,-6.4163,-6.5411,-6.7063,-6.8421,-6.9596,-7.0403,-7.0257,-7.0,-6.9743,-6.9229,0.0,0.0,0.0,0.0,-7.5175,-7.5799,-7.646,-7.7268,-7.7304,-7.7304,-7.7304,-7.7304,-7.7304,-7.7304,-7.7304,-7.7304,-7.7304,-7.7304,-7.7304,-7.7304,-7.7304,-7.7304,-7.7304,-7.7304,-7.7304,-7.7304,-7.7304,-7.7304,-7.7304,-7.7304,-7.7304,-7.7304,-7.7304,-7.7304,-7.7194,-1.6499,-1.6696,-1.6969,-1.7482,-1.8331,0.0,0.0,0.0,0.0,0.0,0.0,0.0,0.0,0.0,0.0,0.0,0.0,-2.8078,-3.0514,-3.3017,-3.5419,-3.7686,-3.9681,-4.1305,-4.2591,-4.3572,-4.4609,-4.5705,-4.6385,-4.717,-4.8151,-4.9114,-4.9516,-4.9551,-5.0252,-5.0504,-5.041,-4.9711,-4.9481,-4.9422,-4.7488,-4.6308,-4.5335,-4.2519,-4.0224,0.0,0.0,0.0,-3.5403,-3.6036,-3.6167,-3.6338,0.0,0.0,-4.3428,-4.691,-4.9554,-5.1867,-5.4546,-5.6859,-5.9098,-6.1447,-6.2879,-6.3833,-6.4383,-6.4457,-6.4016,-6.2658,-6.2365,-6.2108,-6.1263,-6.1998,-6.3392,-6.5338,-6.7247,-6.8862,-6.9963,-7.033,-7.0403,-7.011,-6.9633,0.0,0.0,0.0,0.0,-7.4808,-7.5652,-7.646,-7.7268,-7.7304,-7.7304,-7.7304,-7.7304,-7.7304,-7.7304,-7.7304,-7.7304,-7.7304,-7.7304,-7.7304,-7.7304,-7.7304,-7.7304,-7.7304,-7.7304,-7.7304,-7.7304,-7.7304,-7.7304,-7.7304,-7.7304,-7.7304,-7.7304,-7.7304,-7.7304,-7.7268,-1.7197,-1.7179,-1.7486,0.0,0.0,0.0,0.0,0.0,0.0,0.0,0.0,0.0,0.0,0.0,0.0,0.0,0.0,0.0,-2.7637,-3.048,0.0,-3.5351,-3.6874,-3.87,-4.0865,-4.0967,-4.1677,-4.3064,-4.3328,-4.3844,-4.4504,-4.5486,-4.5917,-4.5952,-4.6556,-4.6862,-4.6977,-4.6022,-4.5849,-4.602,-4.4439,-4.3425,-4.2679,-4.04,0.0,0.0,0.0,0.0,0.0,0.0,0.0,0.0,0.0,0.0,0.0,-4.8967,-5.1977,-5.4876,-5.6602,-5.9318,-6.1851,-6.2732,-6.409,-6.5228,-6.5154,-6.3833,-6.2365,-6.1484,-6.0015,-5.8657,0.0,0.0,-6.097,-6.3429,-6.5962,-6.8201,-6.9816,-7.0807,-7.1101,0.0,0.0,0.0,0.0,0.0,0.0,-7.4845,0.0,-7.646,-7.7268,-7.7304,-7.7304,-7.7304,-7.7304,-7.7304,-7.7304,-7.7304,-7.7304,-7.7304,-7.7304,-7.7304,-7.7304,-7.7304,-7.7304,-7.7304,-7.7304,-7.7304,-7.7304,-7.7304,-7.7304,-7.7304,-7.7304,-7.7304,-7.7304,-7.7304,-7.7304,-7.7304,0.0,0.0,0.0,0.0,0.0,0.0,0.0,0.0,0.0,0.0,0.0,0.0,0.0,0.0,0.0,0.0,0.0,0.0,-2.6894,0.0,0.0,0.0,0.0,-3.5351,-3.7009,-3.7618,0.0,0.0,0.0,-4.0273,-4.0477,-4.185,-4.246,-4.2494,-4.3206,-4.3545,-4.3532,-4.2765,-4.246,-4.2362,0.0,-3.9404,-3.901,0.0,0.0,0.0,0.0,0.0,0.0,0.0,0.0,0.0,0.0,0.0,-4.9114,0.0,0.0,-5.6822,-5.9612,-6.141,-6.2842,-6.431,-6.453,-6.409,-6.2842,-6.13,-5.9575,-5.7519,-5.5868,-5.4693,-5.4473,0.0,0.0,-6.0052,-6.4016,0.0,-6.8972,-7.0917,0.0,0.0,0.0,-7.3193,-7.4184,-7.4845,0.0,0.0,-7.5983,-7.646,-7.7268,-7.7304,-7.7304,-7.7304,-7.7304,-7.7304,-7.7304,-7.7304,-7.7304,-7.7304,-7.7304,-7.7304,-7.7304,-7.7304,-7.7304,-7.7304,-7.7304,-7.7304,-7.7304,-7.7304,-7.7304,-7.7304,-7.7304,-7.7304,-7.7304,-7.7304,-7.7304,-7.7304,0.0,0.0,0.0,0.0,0.0,0.0,0.0,0.0,0.0,0.0,0.0,0.0,0.0,0.0,0.0,0.0,0.0,0.0,0.0,0.0,0.0,0.0,0.0,-3.2645,-3.4134,-3.4573,-3.5115,0.0,0.0,0.0,0.0,-3.8362,-3.8768,-3.8768,-3.9174,-3.9377,-3.9343,-3.8937,0.0,0.0,0.0,0.0,0.0,0.0,0.0,0.0,0.0,0.0,0.0,0.0,0.0,-4.4748,-4.7126,-4.9658,-5.2087,-5.4179,0.0,-5.8951,-6.1447,-6.2732,-6.3686,-6.5007,-6.442,-6.3099,-6.1447,-5.9281,-5.6859,-5.4069,-5.2197,0.0,-5.0618,0.0,0.0,0.0,0.0,0.0,-6.8531,-7.0991,-7.2789,0.0,-7.4001,0.0,-7.5359,-7.5836,-7.624,0.0,-7.6644,-7.6827,-7.7304,-7.7304,-7.7304,-7.7304,-7.7304,-7.7304,-7.7304,-7.7304,-7.7304,-7.7304,-7.7304,-7.7304,-7.7304,-7.7304,-7.7304,-7.7304,0.0,-7.7304,-7.7304,-7.7304,-7.7304,-7.7304,-7.7304,-7.7304,-7.7304,-7.7304,-7.7304,-7.7304,0.0,0.0,0.0,0.0,0.0,0.0,0.0,0.0,0.0,0.0,0.0,0.0,0.0,0.0,0.0,0.0,0.0,0.0,0.0,0.0,0.0,0.0,0.0,-3.0446,0.0,0.0,0.0,0.0,0.0,0.0,0.0,0.0,0.0,0.0,0.0,0.0,0.0,0.0,0.0,0.0,0.0,0.0,0.0,0.0,0.0,0.0,0.0,0.0,0.0,0.0,-4.5656,-4.7897,-5.02,-5.2736,-5.517,-5.6675,-5.8767,-6.0896,-6.2548,-6.3503,-6.4237,-6.4824,-6.3723,-6.1998,-6.0052,-5.7116,-5.3922,-5.0802,0.0,-4.7352,-4.6874,0.0,-5.161,-5.5537,0.0,-6.387,-6.7871,-7.077,-7.2826,-7.3744,-7.4661,-7.5506,-7.6203,-7.6276,-7.657,-7.7268,-7.7304,-7.7304,-7.7304,-7.7304,-7.7304,-7.7304,-7.7304,-7.7304,-7.7304,-7.7304,-7.7304,-7.7304,-7.7304,-7.7304,-7.7304,-7.7304,-7.7304,-7.7304,0.0,0.0,-7.7304,-7.7304,-7.7304,-7.7304,-7.7304,-7.7304,-7.7304,-7.7304,-7.7304,-7.7304,0.0,0.0,0.0,0.0,0.0,0.0,0.0,-2.3727,-2.4103,-2.4766,-2.3337,0.0,0.0,0.0,0.0,0.0,0.0,0.0,0.0,0.0,0.0,0.0,0.0,0.0,0.0,0.0,0.0,0.0,0.0,0.0,0.0,0.0,0.0,0.0,0.0,0.0,0.0,0.0,0.0,0.0,0.0,0.0,0.0,0.0,0.0,0.0,0.0,0.0,0.0,0.0,-4.659,-5.0273,-5.2029,-5.4789,-5.7556,-5.851,-6.0015,-6.1741,-6.3429,-6.398,-6.3943,-6.3392,-6.2034,-5.9869,-5.6271,-5.2931,0.0,0.0,0.0,-4.3718,-4.4892,-4.6581,0.0,-5.227,0.0,0.0,0.0,0.0,-7.3046,0.0,0.0,0.0,0.0,0.0,0.0,0.0,0.0,0.0,-7.7304,-7.7304,-7.7304,-7.7304,-7.7304,-7.7304,-7.7304,-7.7304,-7.7304,-7.7304,-7.7304,-7.7304,-7.7304,-7.7304,-7.7304,-7.7304,0.0,0.0,-7.7304,-7.7304,-7.7304,-7.7304,-7.7304,-7.7304,-7.7304,-7.7304,-7.7304,-7.7304,0.0,0.0,0.0,0.0,0.0,0.0,0.0,-2.4721,-2.5506,-2.6694,-2.5973,-2.5115,-2.4587,-2.3784,-2.3261,0.0,0.0,0.0,0.0,0.0,0.0,0.0,0.0,0.0,0.0,0.0,0.0,0.0,0.0,0.0,0.0,0.0,0.0,0.0,0.0,0.0,0.0,0.0,0.0,0.0,0.0,0.0,0.0,0.0,0.0,0.0,0.0,0.0,0.0,0.0,-4.4839,-4.872,-5.1762,-5.503,-5.7825,-5.8665,-6.0115,-6.1862,-6.3511,-6.3709,-6.3319,-6.2915,-6.097,-5.8217,-5.462,0.0,0.0,0.0,0.0,-4.0671,-4.1442,0.0,0.0,0.0,0.0,0.0,0.0,0.0,0.0,0.0,0.0,0.0,0.0,0.0,0.0,0.0,0.0,0.0,-7.7304,-7.7304,-7.7304,-7.7304,-7.7304,-7.7304,-7.7304,-7.7304,-7.7304,-7.7304,-7.7304,-7.7304,-7.7304,-7.7304,-7.7304,-7.7304,-7.7304,0.0,-7.7304,-7.7304,-7.7304,-7.7304,-7.7304,-7.7304,-7.7304,-7.7304,-7.7304,-7.7304,0.0,0.0,0.0,0.0,0.0,0.0,0.0,-2.5575,-2.6673,-2.8144,-2.8472,-2.7926,-2.6262,-2.5038,-2.4178,0.0,0.0,0.0,0.0,0.0,0.0,0.0,0.0,0.0,0.0,0.0,0.0,0.0,0.0,0.0,0.0,0.0,0.0,0.0,0.0,0.0,0.0,0.0,0.0,0.0,0.0,0.0,0.0,0.0,0.0,0.0,0.0,0.0,0.0,0.0,-4.2143,-4.5356,-4.9323,-5.3327,-5.6721,-5.7738,-5.9466,-6.1332,-6.2844,-6.2874,-6.2425,-6.2144,-5.9758,-5.6528,-5.2968,-4.8636,0.0,0.0,-3.9313,-3.8285,-3.8652,0.0,0.0,0.0,0.0,0.0,0.0,0.0,0.0,0.0,0.0,0.0,0.0,0.0,0.0,0.0,0.0,0.0,0.0,-7.7304,-7.7304,-7.7304,-7.7304,-7.7304,-7.7304,-7.7304,-7.7304,-7.7304,-7.7304,-7.7304,-7.7304,-7.7304,-7.7304,-7.7304,-7.7304,0.0,0.0,-7.7304,-7.7304,-7.7304,-7.7304,-7.7304,-7.7304,-7.7304,-7.7304,-7.7304,0.0,0.0,0.0,0.0,0.0,0.0,0.0,-2.6381,-2.7451,-2.8984,-2.9656,-2.9642,-2.877,-2.6613,-2.496,0.0,0.0,0.0,0.0,0.0,0.0,0.0,0.0,0.0,0.0,0.0,0.0,0.0,0.0,0.0,0.0,0.0,0.0,0.0,0.0,0.0,0.0,0.0,0.0,0.0,0.0,0.0,0.0,0.0,0.0,0.0,0.0,0.0,0.0,0.0,0.0,-4.1165,-4.3664,-4.8674,-5.4025,-5.5677,0.0,0.0,-6.1157,-6.1441,-6.1226,-5.9858,-5.7666,-5.4583,-4.9848,0.0,0.0,-3.957,-3.7624,-3.6964,-3.8432,-4.0157,-4.2139,0.0,0.0,0.0,0.0,0.0,0.0,0.0,0.0,0.0,0.0,0.0,0.0,0.0,0.0,0.0,0.0,-7.7304,-7.7304,-7.7304,-7.7304,-7.7304,-7.7304,-7.7304,-7.7304,-7.7304,-7.7304,-7.7304,-7.7304,-7.7304,-7.7304,-7.7304,0.0,0.0,0.0,-7.7304,-7.7304,-7.7304,-7.7304,-7.7304,-7.7304,-7.7304,-7.7304,-7.7304,0.0,0.0,0.0,0.0,0.0,0.0,-2.5394,-2.6453,-2.7504,-2.8888,-3.0074,-3.0261,-2.8844,-2.7809,-2.6532,-2.4802,0.0,0.0,0.0,0.0,0.0,0.0,0.0,0.0,0.0,0.0,0.0,0.0,0.0,0.0,0.0,0.0,0.0,0.0,0.0,0.0,0.0,0.0,0.0,0.0,0.0,0.0,0.0,0.0,0.0,0.0,0.0,0.0,0.0,0.0,0.0,0.0,-3.9282,-4.238,0.0,0.0,-5.4712,-5.6993,-5.8972,-6.0099,-6.0347,-5.8831,-5.6675,-5.3702,-4.9297,0.0,-4.1295,-3.8542,-3.667,-3.5862,-3.7037,-3.8579,-4.0451,-4.2873,-4.6544,-5.0655,0.0,0.0,0.0,0.0,0.0,0.0,0.0,0.0,0.0,0.0,0.0,0.0,0.0,-7.7304,-7.7304,-7.7304,-7.7304,-7.7304,-7.7304,-7.7304,-7.7304,-7.7304,-7.7304,-7.7304,-7.7304,-7.7304,-7.7304,-7.7304,0.0,0.0,0.0,-7.7304,-7.7304,-7.7304,-7.7304,-7.7304,-7.7304,-7.7304,-7.7304,-7.7304,0.0,0.0,0.0,0.0,0.0,-2.2551,-2.4786,-2.5773,-2.6704,-2.7831,-2.9303,-2.9657,-2.8178,-2.7734,-2.6842,-2.4991,-2.4228,0.0,0.0,0.0,0.0,0.0,0.0,0.0,0.0,0.0,0.0,0.0,0.0,0.0,0.0,0.0,0.0,0.0,0.0,0.0,0.0,0.0,0.0,0.0,0.0,0.0,0.0,0.0,0.0,0.0,0.0,0.0,0.0,0.0,0.0,0.0,0.0,0.0,0.0,0.0,-5.0895,-5.3518,-5.6183,-5.7619,-5.8139,-5.718,-5.495,-5.1977,0.0,0.0,-4.0047,-3.7624,-3.5826,-3.4981,-3.6083,-3.7624,-3.9423,-4.1589,-4.4856,-4.8563,-5.2747,0.0,0.0,0.0,0.0,0.0,0.0,0.0,0.0,0.0,0.0,0.0,0.0,-7.7304,-7.7304,-7.7304,-7.7304,-7.7304,-7.7304,-7.7304,-7.7304,-7.7304,-7.7304,-7.7304,-7.7304,-7.7304,-7.7304,-7.7304,0.0,0.0,0.0,-7.7304,-7.7304,-7.7304,-7.7304,-7.7304,-7.7304,-7.7304,-7.7304,-7.7304,0.0,0.0,0.0,0.0,0.0,0.0,-2.3371,-2.4218,-2.4944,-2.5726,-2.7062,-2.764,-2.6894,-2.6114,-2.5336,-2.4591,-2.4554,0.0,0.0,0.0,0.0,0.0,0.0,0.0,0.0,0.0,0.0,0.0,0.0,0.0,0.0,0.0,0.0,0.0,0.0,0.0,0.0,0.0,0.0,0.0,0.0,0.0,-3.119,0.0,0.0,0.0,0.0,0.0,0.0,0.0,0.0,0.0,0.0,0.0,0.0,0.0,-4.6472,-4.9865,-5.275,-5.3816,-5.4127,-5.4393,-5.2013,-4.8783,0.0,-4.2249,-3.9239,-3.6817,-3.4981,-3.4321,-3.5973,-3.7624,-3.9239,-4.0855,-4.4488,-4.7976,-5.0472,0.0,0.0,0.0,0.0,0.0,0.0,0.0,0.0,0.0,0.0,0.0,0.0,0.0,-7.7304,-7.7304,-7.7304,-7.7304,-7.7304,-7.7304,-7.7304,-7.7304,-7.7304,-7.7304,-7.7304,-7.7304,-7.7304,0.0,0.0,0.0,0.0,-7.7304,-7.7304,-7.7304,-7.7304,-7.7304,-7.7304,-7.7304,-7.7304,-7.7304,0.0,0.0,0.0,0.0,0.0,0.0,0.0,-2.3085,-2.3768,-2.4475,-2.548,-2.5816,-2.5111,-2.531,-2.5038,-2.3789,-2.3308,0.0,0.0,0.0,0.0,0.0,0.0,0.0,0.0,0.0,-2.8795,-2.9066,-3.0984,0.0,0.0,0.0,0.0,0.0,0.0,0.0,0.0,0.0,0.0,0.0,0.0,-3.001,-3.0378,0.0,0.0,0.0,0.0,0.0,0.0,0.0,0.0,0.0,0.0,0.0,0.0,-3.5723,-4.0694,-4.574,-4.8596,-5.0431,-5.1463,-5.1202,-4.9481,-4.7205,-4.4488,-4.1405,-3.8542,-3.667,-3.4981,-3.4321,-3.5973,-3.7147,-3.8579,-4.0744,-4.4011,0.0,0.0,0.0,0.0,0.0,0.0,0.0,0.0,0.0,0.0,0.0,0.0,0.0,0.0,0.0,-7.7304,-7.7304,-7.7304,-7.7304,-7.7304,-7.7304,-7.7304,-7.7304,-7.7304,-7.7304,-7.7304,-7.7304,0.0,0.0,0.0,0.0,0.0,-7.7304,-7.7304,-7.7304,-7.7304,-7.7304,-7.7304,-7.7304,-7.7304,-7.7304,0.0,0.0,0.0,0.0,0.0,0.0,0.0,-2.1552,-2.2079,-2.2834,-2.3687,-2.4083,-2.3685,-2.421,-2.4236,-2.3328,-2.2676,0.0,0.0,0.0,0.0,0.0,0.0,0.0,0.0,-2.8116,-2.924,-2.9513,-3.1751,-3.2926,-3.3201,-3.2596,0.0,0.0,0.0,0.0,0.0,0.0,0.0,0.0,-2.9,-2.9336,-2.9634,0.0,0.0,0.0,0.0,0.0,0.0,0.0,0.0,0.0,0.0,0.0,0.0,0.0,-3.6001,-4.0503,0.0,-4.6045,-4.7268,-4.7277,-4.6287,-4.4745,-4.2616,-4.012,-3.7771,-3.6156,-3.4981,-3.4688,-3.6046,-3.7441,-3.9093,-4.1222,-4.4268,0.0,0.0,0.0,0.0,0.0,0.0,0.0,0.0,0.0,0.0,0.0,0.0,0.0,0.0,0.0,-7.7304,-7.7304,-7.7304,-7.7304,-7.7304,-7.7304,-7.7304,-7.7304,-7.7304,-7.7304,-7.7304,-7.7304,0.0,0.0,0.0,0.0,0.0,-7.7304,-7.7304,-7.7304,-7.7304,-7.7304,-7.7304,-7.7304,-7.7304,-7.7304,0.0,0.0,0.0,0.0,0.0,0.0,0.0,-1.9781,-2.0099,-2.0927,-2.1859,-2.2508,-2.2637,-2.2886,-2.3036,-2.3036,-2.2579,0.0,0.0,0.0,0.0,0.0,0.0,0.0,0.0,-2.7844,-2.9411,-3.0231,-3.2063,-3.3348,-3.4105,-3.3575,-3.2958,-3.216,0.0,0.0,0.0,0.0,0.0,0.0,-2.873,-2.8929,0.0,0.0,0.0,0.0,0.0,0.0,0.0,0.0,0.0,0.0,0.0,0.0,0.0,0.0,0.0,0.0,0.0,-4.0921,-4.2114,-4.302,-4.2653,-4.1662,-4.0157,-3.8505,0.0,-3.532,-3.499,-3.5284,-3.6193,-3.8358,-4.0487,-4.2103,0.0,0.0,0.0,0.0,0.0,0.0,0.0,0.0,0.0,0.0,0.0,0.0,0.0,0.0,0.0,0.0,-7.7304,-7.7304,-7.7304,-7.7304,-7.7304,-7.7304,-7.7304,-7.7304,-7.7304,-7.7304,-7.7304,-7.7304,0.0,0.0,0.0,0.0,0.0,-7.7304,-7.7304,-7.7304,-7.7304,-7.7304,-7.7304,-7.7304,-7.7304,-7.7304,0.0,0.0,0.0,0.0,0.0,0.0,0.0,0.0,0.0,0.0,-2.1207,-2.1849,-2.2002,-2.2274,-2.2421,0.0,0.0,0.0,0.0,0.0,0.0,0.0,0.0,0.0,0.0,-2.7402,-2.9041,-3.0482,-3.2919,-3.4923,-3.6408,-3.5823,-3.519,-3.4512,-3.2303,-3.0112,0.0,0.0,0.0,0.0,-2.7708,-2.7743,0.0,0.0,0.0,0.0,-2.7232,-2.7335,0.0,0.0,0.0,0.0,0.0,0.0,0.0,0.0,-3.0154,-3.1253,-3.3655,0.0,-4.0321,-4.0639,-4.012,-3.946,0.0,-3.7221,-3.5495,-3.5064,0.0,-3.5459,-3.6927,-3.9203,-4.1332,0.0,0.0,0.0,0.0,0.0,0.0,0.0,0.0,0.0,0.0,0.0,0.0,0.0,0.0,0.0,0.0,0.0,-7.7304,-7.7304,-7.7304,-7.7304,-7.7304,-7.7304,-7.7304,-7.7304,-7.7304,-7.7304,-7.7304,-7.7304,0.0,0.0,0.0,0.0,-7.7304,-7.7304,-7.7304,-7.7304,-7.7304,-7.7304,-7.7304,-7.7304,-7.7304,-7.7304,0.0,0.0,0.0,0.0,0.0,0.0,0.0,0.0,0.0,0.0,0.0,-2.1678,-2.1857,-2.2065,0.0,0.0,0.0,0.0,0.0,0.0,0.0,0.0,0.0,0.0,-2.513,-2.7094,-2.911,-3.1143,-3.3415,-3.5601,-3.7658,-3.6753,-3.6185,-3.5751,-3.2639,-3.0018,0.0,0.0,0.0,0.0,-2.7128,0.0,0.0,0.0,0.0,0.0,-2.6184,-2.6283,0.0,-2.6822,-2.7089,-2.7215,0.0,0.0,0.0,0.0,-2.9132,-3.0107,-3.1919,-3.4914,-3.7674,-3.8138,-3.8469,-3.8615,-3.8212,0.0,0.0,0.0,0.0,-3.711,-3.8358,0.0,0.0,0.0,0.0,0.0,0.0,0.0,0.0,0.0,0.0,0.0,0.0,0.0,0.0,0.0,0.0,0.0,0.0,0.0,-7.7304,-7.7304,-7.7304,-7.7304,-7.7304,-7.7304,-7.7304,-7.7304,-7.7304,-7.7304,-7.7304,-7.7304,0.0,0.0,0.0,0.0,-7.7304,-7.7304,-7.7304,-7.7304,-7.7304,-7.7304,-7.7304,-7.7304,-7.7304,-7.7268,0.0,0.0,0.0,0.0,0.0,0.0,0.0,0.0,0.0,0.0,0.0,0.0,0.0,0.0,0.0,0.0,0.0,0.0,0.0,0.0,0.0,0.0,0.0,-2.3778,-2.4581,-2.6922,-2.9351,-3.1875,-3.3803,-3.6063,-3.8589,-3.7397,-3.654,-3.5856,-3.2215,-2.9632,0.0,0.0,0.0,-2.7085,-2.6925,0.0,0.0,0.0,0.0,0.0,0.0,0.0,0.0,-2.655,-2.692,-2.7184,-2.7213,0.0,0.0,0.0,0.0,0.0,-3.1919,-3.3771,-3.5459,-3.656,-3.7881,-3.8726,-3.8175,0.0,0.0,0.0,0.0,0.0,0.0,0.0,0.0,0.0,0.0,0.0,0.0,0.0,0.0,0.0,0.0,0.0,0.0,0.0,0.0,0.0,0.0,0.0,0.0,0.0,0.0,-7.7304,-7.7304,-7.7304,-7.7304,-7.7304,-7.7304,-7.7304,-7.7304,-7.7304,-7.7304,-7.7304,-7.7304,0.0,0.0,0.0,-7.7304,-7.7304,-7.7304,-7.7304,-7.7304,-7.7304,-7.7304,-7.7304,-7.7231,-7.7011,0.0,0.0,0.0,0.0,0.0,0.0,0.0,0.0,0.0,0.0,0.0,0.0,0.0,0.0,0.0,0.0,0.0,0.0,0.0,0.0,0.0,0.0,-2.3342,-2.3778,-2.4581,-2.6987,-2.9556,-3.2197,-3.4729,-3.7324,-3.9982,-3.9158,-3.6994,-3.3677,-3.1583,-2.9654,-2.7897,-2.7647,-2.7373,-2.7085,0.0,0.0,0.0,0.0,0.0,0.0,0.0,0.0,0.0,-2.6124,-2.673,-2.7376,-2.7496,0.0,0.0,0.0,0.0,0.0,-3.2025,-3.4266,-3.6633,-3.8799,-3.9533,-3.9863,-4.0414,0.0,0.0,0.0,0.0,0.0,0.0,0.0,0.0,0.0,0.0,0.0,0.0,0.0,0.0,0.0,0.0,0.0,0.0,0.0,0.0,0.0,0.0,0.0,0.0,0.0,0.0,-7.7304,-7.7304,-7.7304,-7.7304,-7.7304,-7.7304,-7.7304,-7.7304,-7.7304,-7.7304,-7.7304,-7.7304,0.0,0.0,-7.7304,-7.7304,-7.7304,-7.7304,-7.7304,-7.7304,-7.7304,-7.7304,-7.7304,-7.69,-7.6056,0.0,0.0,0.0,0.0,0.0,0.0,0.0,0.0,0.0,0.0,0.0,0.0,0.0,0.0,0.0,0.0,0.0,0.0,0.0,0.0,0.0,-2.3376,-2.4215,-2.5088,-2.5994,-2.7941,-3.035,-3.3106,-3.5652,-3.7826,-3.9553,-3.8295,-3.6034,-3.2957,-3.1102,-2.9294,-2.7672,-2.7373,-2.712,-2.699,0.0,0.0,0.0,0.0,0.0,0.0,0.0,0.0,0.0,0.0,-2.6442,-2.6969,-2.7537,0.0,0.0,0.0,0.0,0.0,-3.2574,-3.4999,-3.7734,-4.1001,-4.1515,-4.1405,-4.2213,0.0,0.0,0.0,0.0,0.0,0.0,0.0,0.0,0.0,0.0,0.0,0.0,0.0,0.0,0.0,0.0,0.0,0.0,0.0,0.0,0.0,0.0,0.0,0.0,0.0,0.0,0.0,-7.7304,-7.7304,-7.7304,-7.7304,-7.7304,-7.7304,-7.7304,-7.7304,-7.7304,-7.7304,-7.7304,-7.7304,0.0,-7.7304,-7.7304,-7.7304,-7.7304,-7.7304,-7.7304,-7.7304,-7.7268,-7.6827,-7.5873,-7.4698,0.0,0.0,0.0,0.0,0.0,0.0,0.0,0.0,0.0,0.0,0.0,0.0,0.0,0.0,0.0,0.0,0.0,0.0,0.0,0.0,-2.2699,-2.3613,-2.5057,-2.6307,-2.7425,-2.9246,-3.1462,-3.4125,-3.6399,-3.7899,-3.8618,-3.6863,-3.4727,-3.232,-3.0407,-2.8746,-2.7404,-2.7087,-2.6959,-2.6893,0.0,0.0,0.0,0.0,0.0,0.0,0.0,0.0,0.0,0.0,0.0,0.0,0.0,0.0,0.0,-2.8536,-2.9257,-3.0538,-3.282,-3.543,-3.8395,-4.2249,-4.302,-4.3167,-4.4342,0.0,0.0,0.0,0.0,0.0,0.0,0.0,0.0,0.0,0.0,0.0,0.0,0.0,0.0,0.0,0.0,0.0,0.0,0.0,0.0,0.0,0.0,0.0,0.0,0.0,0.0,0.0,-7.7047,-7.7047,-7.7047,-7.7047,-7.7121,-7.7304,-7.7304,-7.7304,-7.7304,-7.7304,-7.7304,-7.7304,-7.7304,-7.7304,-7.7304,-7.7121,-7.7047,-7.7011,-7.6803,-7.6754,-7.6644,-7.5836,-7.4771,-7.367,0.0,0.0,0.0,0.0,0.0,0.0,0.0,0.0,0.0,0.0,0.0,0.0,0.0,0.0,0.0,0.0,0.0,0.0,0.0,0.0,-2.2936,-2.4388,-2.5329,-2.6546,-2.8182,-3.0664,-3.2932,-3.501,-3.672,-3.7649,-3.7685,-3.5865,-3.367,-3.1144,-2.931,-2.7971,-2.7117,-2.6957,-2.6893,-2.6893,-2.6893,0.0,0.0,0.0,0.0,0.0,0.0,0.0,0.0,0.0,0.0,0.0,0.0,0.0,-2.8612,-2.8737,-2.9381,-3.0467,-3.2203,-3.5055,-3.8285,-4.1552,-4.3461,0.0,-4.7425,-4.8012,0.0,-4.9077,0.0,0.0,0.0,0.0,0.0,0.0,0.0,0.0,0.0,0.0,0.0,0.0,0.0,0.0,0.0,0.0,0.0,0.0,0.0,0.0,0.0,0.0,0.0,0.0,0.0,-7.6203,-7.6203,-7.6203,-7.657,-7.7304,-7.7304,-7.7304,-7.7304,-7.7304,-7.7304,-7.7304,-7.7304,-7.7304,-7.7268,-7.646,-7.6166,-7.613,-7.5372,-7.5042,-7.4978,-7.4147,-7.378,-7.3597,0.0,0.0,0.0,0.0,0.0,0.0,0.0,0.0,0.0,0.0,0.0,0.0,0.0,0.0,0.0,0.0,0.0,0.0,0.0,0.0,-2.2767,-2.3748,-2.5122,-2.6644,-2.825,-3.1289,-3.3564,-3.5082,-3.6221,-3.6895,-3.7094,-3.4443,-3.2336,-3.0768,-2.9142,-2.7937,-2.7149,-2.712,-2.7087,-2.7087,-2.7087,-2.6193,0.0,0.0,0.0,0.0,0.0,0.0,0.0,0.0,-2.541,-2.6572,-2.7224,-2.8034,-2.881,-2.8858,-2.9844,-3.1249,-3.2926,-3.5752,-3.9019,-4.2249,-4.4635,0.0,0.0,-5.1022,-5.2344,-5.3151,-5.462,0.0,0.0,0.0,0.0,0.0,0.0,0.0,0.0,0.0,0.0,0.0,0.0,0.0,0.0,0.0,0.0,0.0,0.0,0.0,0.0,0.0,0.0,0.0,0.0,-7.5359,-7.5359,-7.5359,-7.5506,-7.5836,-7.5836,-7.5836,-7.5836,-7.5836,-7.5836,-7.5836,-7.5836,-7.5836,-7.5799,-7.5469,-7.5359,-7.5322,-7.5005,-7.4625,-7.4111,-7.3817,-7.3413,-7.2899,0.0,0.0,0.0,0.0,0.0,0.0,0.0,0.0,0.0,0.0,0.0,0.0,0.0,0.0,0.0,0.0,0.0,0.0,-2.2327,-2.2327,-2.2632,-2.3376,-2.4747,-2.627,-2.7841,-3.0629,-3.2896,-3.4623,-3.512,-3.5363,-3.5308,-3.2543,-3.0838,-2.9938,-2.866,-2.7794,-2.7276,-2.7276,-2.7276,-2.7276,-2.7338,-2.6497,0.0,0.0,0.0,0.0,0.0,0.0,0.0,0.0,-2.5104,-2.6014,-2.6941,-2.7835,-2.8636,-2.9148,-3.0112,-3.1494,-3.3587,-3.6413,-3.9533,0.0,0.0,0.0,-5.1683,-5.3592,-5.506,-5.6124,0.0,0.0,0.0,0.0,0.0,0.0,0.0,0.0,0.0,0.0,0.0,0.0,0.0,0.0,0.0,0.0,0.0,0.0,0.0,0.0,0.0,0.0,0.0,0.0,0.0,-7.4515,-7.4515,-7.4515,-7.4404,-7.4147,-7.4147,-7.4404,-7.4918,-7.4918,-7.4918,-7.4918,-7.4918,-7.4918,-7.4882,-7.4625,-7.4368,-7.4147,-7.4147,-7.3817,-7.3318,-7.3318,-7.301,-7.2496,0.0,0.0,0.0,0.0,0.0,0.0,0.0,0.0,0.0,0.0,0.0,0.0,0.0,0.0,0.0,0.0,0.0,0.0,-2.2327,-2.2327,-2.2632,-2.3342,-2.4211,-2.5391,-2.6954,-2.8527,-3.0734,-3.36,-3.3459,-3.2931,-3.1949,-3.0283,-2.9142,-2.8479,-2.775,-2.7434,-2.7496,-2.7496,-2.7496,-2.7526,-2.7642,-2.6788,-2.5446,0.0,0.0,0.0,0.0,0.0,0.0,0.0,-2.4584,-2.545,-2.6334,-2.7163,-2.8117,-2.9732,-3.021,-3.0907,-3.4147,-3.6853,-3.9717,0.0,0.0,0.0,0.0,0.0,0.0,0.0,0.0,0.0,0.0,0.0,0.0,0.0,0.0,0.0,0.0,0.0,0.0,0.0,0.0,0.0,0.0,0.0,0.0,0.0,0.0,0.0,0.0,0.0,0.0,0.0,0.0,0.0,-7.367,-7.367,-7.3303,-7.2496,-7.2496,-7.334,-7.4882,-7.4882,-7.4882,-7.4882,-7.4882,-7.4882,-7.4845,-7.4001,-7.323,-7.2496,-7.2496,-7.2496,-7.2496,-7.2496,-7.2496,-7.2496,0.0,0.0,0.0,0.0,0.0,0.0,0.0,0.0,0.0,0.0,0.0,0.0,0.0,0.0,0.0,0.0,0.0,0.0,-2.2327,-2.2327,-2.2395,-2.2632,-2.343,-2.4066,-2.4539,-2.6099,-2.8698,-3.2258,-3.1702,-3.125,-3.0864,-3.0007,-2.9554,-2.9375,-2.889,-2.8718,-2.8734,-2.8287,-2.8128,-2.8128,-2.8183,-2.7602,-2.6688,0.0,0.0,0.0,0.0,0.0,0.0,0.0,0.0,0.0,-2.6334,-2.7163,-2.8117,-2.9732,-3.1017,-3.2485,-3.5202,-3.8505,0.0,0.0,0.0,0.0,0.0,0.0,0.0,0.0,0.0,0.0,0.0,0.0,0.0,0.0,0.0,0.0,0.0,0.0,0.0,0.0,0.0,0.0,0.0,0.0,0.0,0.0,0.0,0.0,0.0,0.0,0.0,0.0,0.0,0.0,-7.2863,-7.2863,-7.2753,-7.2496,-7.2496,-7.2753,-7.323,-7.323,-7.323,-7.323,-7.323,-7.323,-7.3193,-7.2936,-7.2716,-7.2496,-7.2496,-7.2496,-7.2496,-7.2496,-7.2496,-7.2496,0.0,0.0,0.0,0.0,0.0,0.0,0.0,0.0,0.0,0.0,0.0,-2.3102,0.0,0.0,0.0,0.0,0.0,0.0,0.0,-2.2327,-2.2327,-2.2327,-2.2762,-2.3163,-2.3435,-2.4713,-2.6546,-2.8905,-2.8768,-2.887,-2.9076,-2.8966,-2.9155,-2.9589,-2.9431,-2.9239,-2.899,-2.8278,-2.7799,-2.7547,-2.7897,-2.7405,-2.6416,0.0,0.0,0.0,0.0,0.0,0.0,0.0,0.0,0.0,-2.6224,-2.6943,-2.775,-3.0026,-3.1604,-3.3366,-3.6817,0.0,0.0,0.0,0.0,0.0,0.0,0.0,0.0,0.0,0.0,0.0,0.0,0.0,0.0,0.0,0.0,0.0,0.0,0.0,0.0,0.0,0.0,0.0,0.0,0.0,0.0,0.0,0.0,0.0,0.0,0.0,0.0,0.0,0.0,0.0,-7.2496,-7.2496,-7.2496,-7.2496,-7.2496,-7.2496,-7.2496,-7.2496,-7.2496,-7.2496,-7.2496,-7.2496,-7.2496,-7.2496,-7.2496,-7.2496,-7.2496,-7.2496,-7.2496,-7.2496,-7.2496,-7.2496,0.0,0.0,-1.9355,-2.0167,0.0,0.0,0.0,0.0,0.0,0.0,-2.3077,-2.2876,0.0,0.0,0.0,-2.2405,-2.2321,-2.2327,0.0,0.0,-2.2327,-2.2327,-2.2327,-2.2665,-2.3405,-2.4045,-2.4448,-2.4547,-2.5456,-2.6267,-2.7014,-2.7561,-2.8411,-2.9447,-2.9645,-2.934,-2.871,-2.7804,-2.697,-2.6294,-2.709,-2.6531,-2.5339,-2.6103,0.0,0.0,0.0,0.0,0.0,0.0,0.0,0.0,-2.6025,-2.6539,-2.7236,-3.0356,-3.1971,-3.377,-3.8579,0.0,0.0,0.0,0.0,0.0,0.0,0.0,0.0,0.0,0.0,0.0,0.0,0.0,0.0,0.0,0.0,0.0,0.0,0.0,0.0,0.0,0.0,0.0,0.0,0.0,0.0,0.0,0.0,0.0,0.0,0.0,0.0,0.0,0.0,0.0,-7.2275,-7.2275,-7.2275,0.0,-7.2275,-7.2275,-7.2275,-7.2422,-7.2496,-7.2496,-7.2496,-7.2496,-7.2496,-7.2496,-7.2496,-7.2496,-7.2496,-7.2496,-7.2496,-7.2496,-7.2496,-7.2496,0.0,0.0,-1.917,-1.9486,0.0,0.0,0.0,0.0,-2.3458,-2.3175,-2.2902,-2.2729,-2.2569,-2.246,0.0,-2.2405,-2.2321,-2.2327,-2.2327,0.0,-2.2327,-2.2327,-2.2327,-2.2694,-2.3464,-2.3113,-2.3294,-2.399,-2.5335,-2.6117,-2.6442,-2.8618,-2.9905,-3.0406,-3.0667,-3.042,-2.9673,-2.832,-2.7259,-2.6527,-2.6731,-2.6585,-2.6219,-2.5784,-2.5438,0.0,0.0,0.0,0.0,0.0,0.0,0.0,-2.5328,-2.6098,-2.7126,-2.9696,-3.1935,-3.4468,0.0,0.0,0.0,0.0,0.0,0.0,0.0,0.0,0.0,0.0,0.0,0.0,0.0,0.0,0.0,0.0,0.0,0.0,0.0,0.0,0.0,0.0,0.0,0.0,0.0,0.0,0.0,0.0,0.0,0.0,0.0,0.0,0.0,0.0,0.0,-7.0624,-7.0624,-7.0604,-7.0604,0.0,-7.0606,-7.0606,-7.066,-7.1908,-7.2496,-7.2496,-7.2496,-7.2496,-7.2496,-7.2496,-7.2496,-7.2496,-7.2496,-7.2496,-7.2496,-7.2496,-7.2496,-7.2496,0.0,0.0,0.0,0.0,0.0,0.0,0.0,0.0,-2.3319,-2.2977,-2.2773,-2.2596,-2.2405,-2.2377,0.0,0.0,-2.2293,-2.2327,-2.2327,-2.2327,-2.2327,-2.2327,-2.2327,-2.2525,-2.2983,-2.2747,-2.2848,-2.3361,-2.5052,-2.6079,-2.6492,-2.8841,-3.0449,-3.1433,-3.1256,-3.0611,-2.9478,-2.7875,-2.6539,-2.5474,-2.5878,-2.5805,-2.5438,-2.5401,-2.5164,-2.4777,-2.4337,0.0,0.0,0.0,0.0,0.0,0.0,0.0,-2.6502,-2.8925,-3.1054,-3.3623,0.0,0.0,0.0,0.0,0.0,0.0,0.0,0.0,0.0,0.0,0.0,0.0,0.0,0.0,0.0,0.0,0.0,0.0,0.0,0.0,0.0,0.0,0.0,0.0,0.0,0.0,0.0,0.0,0.0,0.0,0.0,0.0,0.0,0.0,-7.011,-7.011,-7.011,-7.011,-7.011,-7.011,-7.0092,-7.0092,-7.0146,-7.1358,-7.1945,-7.1945,-7.2349,-7.2496,-7.2496,-7.2496,-7.2496,-7.2496,-7.2496,-7.2496,-7.2496,-7.2496,-7.2496,-7.2496,0.0,0.0,0.0,0.0,0.0,0.0,0.0,0.0,0.0,-2.2825,-2.2676,-2.2515,-2.2293,-2.2327,-2.2327,0.0,0.0,0.0,-2.2327,-2.2327,-2.2327,-2.2327,-2.2293,-2.2349,-2.2432,-2.2615,-2.2825,-2.2977,-2.4878,0.0,0.0,0.0,-3.0839,-3.221,-3.1717,-3.0576,-2.8865,-2.7273,-2.5658,-2.4263,-2.4924,-2.4777,-2.4263,-2.4944,-2.4777,-2.419,-2.419,-2.419,-2.419,-2.419,0.0,0.0,0.0,0.0,-2.5825,-2.797,-2.9843,-3.2228,0.0,0.0,0.0,0.0,0.0,0.0,0.0,0.0,0.0,0.0,0.0,0.0,0.0,0.0,0.0,0.0,0.0,0.0,0.0,0.0,0.0,0.0,0.0,0.0,0.0,0.0,0.0,0.0,0.0,0.0,0.0,0.0,-6.9669,-6.9669,-6.9669,-6.9669,-6.9669,-6.9688,-6.9688,-6.9669,-6.9688,-6.9688,-6.9706,-7.0513,-7.0991,-7.1138,-7.1798,-7.2092,-7.2092,-7.2092,-7.2092,-7.2092,-7.2092,-7.2092,-7.2092,-7.2092,-7.2092,-7.2092,0.0,0.0,0.0,0.0,0.0,0.0,0.0,0.0,0.0,0.0,-2.2542,-2.2377,-2.2293,-2.2327,-2.2327,-2.2327,-2.2327,-2.2327,-2.2327,0.0,0.0,-2.2327,-2.2349,-2.2432,-2.2569,-2.2825,-2.3077,-2.3319,-2.5171,0.0,0.0,0.0,0.0,-3.2383,0.0,-3.1089,-2.8865,-2.7273,-2.5658,-2.419,-2.43,-2.43,-2.419,-2.43,-2.43,-2.419,-2.419,-2.419,-2.419,-2.419,-2.419,0.0,0.0,0.0,0.0,0.0,-2.8558,-3.1274,0.0,0.0,0.0,0.0,0.0,0.0,0.0,0.0,0.0,0.0,0.0,0.0,0.0,0.0,0.0,0.0,0.0,0.0,0.0,0.0,0.0,0.0,0.0,0.0,0.0,0.0,0.0,0.0,0.0,0.0,0.0,-6.7944,-6.8017,-6.8017,-6.8017,-6.8017,-6.8017,-6.7981,-6.7981,-6.8017,-6.7981,-6.7981,-6.8054,-6.8862,-6.9596,-7.0257,-7.0367,-7.0403,-7.0403,-7.0403,-7.0403,-7.0403,-7.0403,-7.0403,-7.0403,-7.0403,-7.0403,-7.0403,0.0,0.0,0.0,0.0,0.0,0.0,0.0,0.0,0.0,0.0,0.0,-2.2377,-2.2327,-2.2327,-2.2327,-2.2327,-2.2327,-2.2327,-2.2327,-2.2327,0.0,0.0,-2.2349,-2.2487,-2.2676,-2.2902,-2.3199,-2.3504,0.0,0.0,0.0,-3.2411,-3.3789,0.0,0.0,0.0,-3.0246,-2.8631,-2.6759,-2.4887,-2.5364,-2.5548,-2.5585,-2.6062,-2.6209,-2.6172,-2.5695,-2.5254,-2.4777,-2.4337,-2.419,-2.419,-2.419,0.0,0.0,0.0,0.0,0.0,0.0,0.0,0.0,0.0,0.0,0.0,0.0,0.0,0.0,0.0,0.0,0.0,0.0,0.0,0.0,0.0,0.0,0.0,0.0,0.0,0.0,0.0,0.0,0.0,0.0,0.0,0.0,0.0,0.0,0.0,-6.6366,-6.6769,-6.7026,-6.7026,-6.7467,-6.7687,-6.7687,-6.7687,-6.7687,-6.7687,-6.7687,-6.7687,-6.7687,-6.8054,-6.8678,-6.9449,-6.9889,-7.011,-7.011,-7.011,-7.011,-7.011,-7.011,-7.011,-7.011,-7.011,-7.011,-7.011,0.0,0.0,0.0,0.0,0.0,0.0,0.0,0.0,0.0,0.0,0.0,-2.2349,-2.2327,0.0,0.0,0.0,-2.2327,-2.2327,-2.2327,0.0,0.0,0.0,0.0,-2.2569,-2.2747,-2.3052,-2.3342,0.0,0.0,0.0,-2.9881,-3.3156,-3.4917,0.0,-3.488,-3.3623,0.0,0.0,-2.8044,-2.6082,-2.6906,-2.7236,-2.731,-2.8338,-2.8705,-2.8594,-2.7787,-2.7016,0.0,0.0,0.0,0.0,0.0,0.0,0.0,0.0,0.0,0.0,0.0,0.0,0.0,0.0,0.0,0.0,0.0,0.0,0.0,0.0,0.0,0.0,0.0,0.0,0.0,0.0,0.0,0.0,0.0,0.0,0.0,0.0,0.0,0.0,0.0,0.0,0.0,0.0,0.0,0.0,-6.5301,-6.5888,-6.6219,-6.6219,-6.6769,-6.71,-6.71,-6.71,-6.7173,-6.7393,-6.7393,-6.7504,-6.7687,-6.7687,-6.8017,-6.8641,-6.9229,-6.9486,-6.9486,-6.9486,-6.9486,-6.9486,-6.9486,-6.9486,-6.9486,-6.9486,-6.9486,-6.9486,0.0,0.0,0.0,0.0,0.0,0.0,0.0,0.0,0.0,0.0,0.0,-2.2293,-2.2327,-2.2327,-2.2327,-2.2327,-2.2327,-2.2327,-2.2327,0.0,0.0,0.0,0.0,0.0,-2.2977,-2.3319,0.0,0.0,0.0,0.0,-2.9122,-3.2339,-3.4724,-3.6266,-3.6964,-3.5532,-3.2449,0.0,0.0,-2.775,-2.8558,-2.8865,-2.9049,-3.0613,-3.1201,-3.1091,-3.0283,0.0,0.0,0.0,0.0,0.0,0.0,0.0,-2.419,0.0,0.0,0.0,0.0,0.0,0.0,0.0,0.0,0.0,0.0,0.0,0.0,0.0,0.0,0.0,0.0,0.0,0.0,0.0,0.0,0.0,0.0,0.0,0.0,0.0,0.0,0.0,0.0,0.0,0.0,0.0,0.0,0.0,-6.5301,-6.5338,-6.5375,-6.5375,-6.5411,-6.5411,-6.5411,-6.5411,-6.5815,-6.6549,-6.6549,-6.6953,-6.7687,-6.7687,-6.7724,-6.776,-6.7797,-6.7797,-6.7797,-6.7797,-6.7797,-6.7797,-6.7797,-6.7797,-6.7797,-6.7797,-6.7797,-6.7797,0.0,0.0,0.0,0.0,0.0,0.0,0.0,0.0,0.0,0.0,0.0,0.0,0.0,-2.2349,-2.2377,-2.2432,-2.2432,0.0,0.0,0.0,0.0,0.0,0.0,0.0,0.0,0.0,0.0,0.0,0.0,-2.6863,-2.9049,-3.1788,-3.3917,-3.5532,-3.689,-3.656,-3.4871,-3.322,0.0,-3.0173,-3.098,-3.1641,-3.2339,-3.4468,-3.534,-3.5275,0.0,0.0,0.0,0.0,0.0,0.0,-2.6502,-2.5621,-2.485,-2.4337,-2.5364,0.0,0.0,0.0,0.0,0.0,0.0,0.0,0.0,0.0,0.0,0.0,0.0,0.0,0.0,0.0,0.0,0.0,0.0,0.0,0.0,0.0,0.0,0.0,0.0,0.0,0.0,0.0,0.0,0.0,0.0,0.0,-6.3723,-6.4237,-6.453,-6.453,-6.5044,-6.5301,-6.5301,-6.5286,-6.5433,-6.5726,-6.5726,-6.5873,-6.6166,-6.6696,-6.6916,-6.6953,-6.7467,-6.7687,-6.7687,-6.7687,-6.7687,-6.7687,-6.7687,-6.7687,-6.7687,-6.7687,-6.7687,-6.7687,0.0,0.0,0.0,-2.2649,0.0,-2.125,-2.0662,-2.0917,-2.1027,-2.0492,0.0,0.0,0.0,0.0,-2.2487,-2.2569,-2.2596,-2.2569,-2.2487,-2.246,0.0,0.0,0.0,0.0,0.0,0.0,0.0,0.0,0.0,0.0,0.0,-3.0687,-3.2522,-3.388,-3.5532,-3.6119,0.0,0.0,0.0,-3.2339,0.0,-3.4724,-3.5716,-3.8175,-3.9276,0.0,0.0,0.0,0.0,0.0,0.0,0.0,-2.8705,-2.6906,-2.5311,-2.474,-2.5181,0.0,-2.8425,0.0,0.0,0.0,0.0,0.0,0.0,0.0,0.0,0.0,0.0,0.0,0.0,0.0,0.0,0.0,0.0,0.0,0.0,0.0,0.0,0.0,0.0,0.0,0.0,0.0,0.0,0.0,0.0,0.0,-6.2401,-6.3209,-6.3649,-6.3649,-6.42,-6.4457,-6.4457,-6.4442,-6.4626,-6.4919,-6.4934,-6.5044,-6.5338,-6.5852,-6.6109,-6.6145,-6.6953,-6.743,-6.7687,-6.7687,-6.7687,-6.7687,-6.7687,-6.7687,-6.7687,-6.7687,-6.7687,-6.7687,-2.2755,-2.2729,-2.2703,-2.2623,-2.19,-2.1343,-2.1309,-2.1264,-2.1264,-2.1283,0.0,0.0,0.0,0.0,0.0,-2.2763,-2.2808,-2.2747,-2.2623,-2.2623,0.0,0.0,0.0,0.0,0.0,0.0,0.0,0.0,0.0,0.0,0.0,0.0,-3.0503,-3.1347,-3.2963,-3.41,-3.4844,0.0,-3.4541,-3.41,0.0,-3.7991,-3.9056,0.0,0.0,0.0,-4.2763,-4.1992,0.0,-3.9423,0.0,0.0,0.0,-2.8668,-2.5495,-2.5495,-2.6025,-2.6979,0.0,0.0,0.0,0.0,0.0,0.0,0.0,0.0,0.0,0.0,0.0,0.0,0.0,0.0,0.0,0.0,0.0,0.0,0.0,0.0,0.0,0.0,0.0,0.0,0.0,0.0,0.0,0.0,0.0,-6.1557,-6.1557,-6.2291,-6.2768,-6.2768,-6.2768,-6.2805,-6.2805,-6.2805,-6.3195,-6.4075,-6.403,-6.4448,-6.5257,-6.5228,-6.5264,-6.5301,-6.6109,-6.6916,-6.7614,-6.765,-6.7687,-6.7687,-6.7687,-6.7687,-6.7687,-6.7687,-6.7687,-6.7687,-2.2729,-2.2721,-2.2755,-2.2623,-2.2371,-2.1949,-2.1377,-2.1705,-2.1813,0.0,0.0,0.0,-2.3649,-2.3867,-2.396,-2.402,-2.3443,-2.3028,-2.2876,-2.2825,-2.2825,-2.2825,-2.3028,-2.3271,-2.3571,0.0,0.0,0.0,0.0,0.0,0.0,-2.7016,-2.8044,0.0,-2.9879,-3.0797,-3.1641,-3.3403,0.0,0.0,-3.6964,-3.8689,0.0,0.0,0.0,0.0,0.0,-4.6654,-4.5223,0.0,-4.1295,-3.8285,0.0,-2.9916,-2.7236,-2.7824,-2.7346,-2.709,-2.9292,0.0,0.0,0.0,0.0,0.0,0.0,0.0,0.0,0.0,0.0,0.0,0.0,0.0,0.0,0.0,0.0,0.0,0.0,0.0,0.0,0.0,0.0,0.0,0.0,0.0,0.0,0.0,-6.0603,-6.075,-6.075,-6.0933,-6.1337,-6.1924,-6.1924,-6.2218,-6.2805,-6.2805,-6.2952,-6.3172,-6.3135,-6.3246,-6.3503,-6.4127,-6.442,-6.4494,-6.5301,-6.5778,-6.6035,-6.721,-6.7687,-6.7687,-6.7687,-6.7687,-6.7687,-6.7687,-6.7687,-6.7687,-2.2808,-2.285,-2.298,-2.3249,-2.3204,-2.3089,-2.2897,-2.3192,-2.3328,0.0,0.0,0.0,-2.58,-2.5786,-2.5707,-2.5647,-2.4599,-2.3863,-2.3717,-2.3327,-2.3102,-2.3102,-2.3295,-2.3445,-2.3703,-2.3894,-2.4036,0.0,-2.417,-2.4447,-2.4924,-2.5731,-2.6355,-2.6833,-2.764,-2.8631,-2.9806,-3.1568,0.0,0.0,-3.8138,0.0,0.0,-4.581,-4.7645,0.0,0.0,0.0,-4.8526,-4.7572,-4.4745,0.0,0.0,-3.2375,-3.032,-3.0467,-2.9843,-2.9475,-3.1237,-3.1356,0.0,0.0,0.0,0.0,0.0,0.0,0.0,0.0,0.0,0.0,0.0,0.0,0.0,0.0,0.0,0.0,0.0,0.0,0.0,0.0,0.0,0.0,0.0,0.0,0.0,0.0,-5.9722,-6.0052,-6.0382,-6.0419,-6.0603,-6.108,-6.108,-6.1337,-6.1801,-6.2132,-6.2315,-6.2315,-6.2608,-6.2805,-6.2842,-6.3319,-6.3576,-6.3613,-6.4457,-6.4787,-6.4897,-6.6182,-6.688,-6.7173,-6.7173,-6.7393,-6.7687,-6.7687,-6.7687,-6.7687,0.0,-2.3098,-2.3453,-2.4103,-2.4296,-2.453,-2.5038,-2.5224,-2.5294,0.0,-2.6304,-2.7409,-2.8586,-2.816,-2.7755,-2.7488,-2.5997,-2.4954,-2.473,-2.3945,-2.3412,-2.3412,-2.3558,-2.3674,-2.3816,-2.3996,-2.4132,-2.419,-2.419,-2.419,-2.4226,-2.4924,-2.5274,-2.5311,-2.6098,-2.731,-2.8792,-2.9769,0.0,-3.521,-3.935,-4.2543,0.0,0.0,-4.9554,0.0,-5.1977,-5.1867,-5.1279,-5.1022,-4.7278,0.0,0.0,-3.5899,-3.4211,-3.3587,-3.322,-3.322,-3.41,-3.3652,-3.3113,-3.3669,0.0,0.0,-3.4623,-3.6482,0.0,0.0,0.0,0.0,0.0,0.0,0.0,0.0,0.0,0.0,0.0,0.0,0.0,0.0,0.0,0.0,0.0,0.0,-5.7997,-5.7997,-5.8657,-5.9391,-6.0089,-6.0126,-6.0162,-6.0272,-6.0272,-6.0298,-6.0396,-6.1129,-6.1446,-6.1482,-6.2278,-6.2695,-6.2695,-6.2768,-6.2805,-6.2842,-6.3613,-6.3943,-6.4016,-6.4751,-6.5558,-6.6366,-6.6366,-6.6843,-6.7577,-6.7577,-6.7614,-6.7687,-2.3003,-2.3653,-2.4247,-2.4286,-2.5279,-2.591,-2.5345,-2.633,-2.6918,-2.6395,-2.8457,-3.0312,-3.1261,-3.0803,-2.9951,-2.8615,-2.7004,-2.5701,-2.4996,-2.4122,-2.3646,-2.3646,-2.3732,-2.3816,-2.3976,-2.4036,-2.4132,-2.419,-2.419,-2.419,-2.419,-2.4373,-2.441,-2.4447,-2.5254,-2.6172,-2.72,-2.9329,0.0,-3.4394,-3.8505,0.0,-4.5957,-4.8416,-5.0765,-5.2858,-5.3628,-5.4252,-5.4363,0.0,-4.882,-4.4966,0.0,0.0,-3.7845,-3.8322,-3.711,-3.5899,-3.7367,-3.7088,-3.6383,-3.6313,0.0,0.0,0.0,-3.6173,0.0,0.0,0.0,0.0,0.0,0.0,0.0,0.0,0.0,0.0,0.0,0.0,0.0,0.0,0.0,0.0,0.0,0.0,-5.7997,-5.7997,-5.8143,-5.829,-5.8474,-5.8474,-5.8767,-5.9428,-5.9428,-5.9758,-6.0371,-6.0554,-6.0628,-6.0628,-6.1447,-6.1814,-6.1851,-6.2511,-6.2805,-6.2805,-6.2989,-6.3062,-6.3062,-6.3246,-6.42,-6.5521,-6.5521,-6.6035,-6.6733,-6.6733,-6.7136,-6.7687,-2.3077,-2.3834,-2.463,-2.4933,-2.6357,-2.7441,-2.7414,-2.8408,-2.9212,-2.9354,-3.1751,-3.3619,-3.4047,-3.3899,-3.3103,-3.1455,-2.9759,-2.8286,-2.7036,-2.5732,-2.4874,-2.4454,-2.4153,-2.3976,-2.4036,-2.4132,-2.417,-2.419,-2.419,-2.419,-2.419,-2.4593,-2.4777,-2.485,-2.6062,-2.7053,-2.797,0.0,-3.3036,-3.5936,-3.9203,0.0,-4.5663,-4.893,-5.1463,-5.3371,-5.4583,-5.5244,-5.528,-5.3261,-5.0435,0.0,0.0,-4.3975,-4.1699,0.0,-4.0561,-3.957,-4.0781,-3.9868,-3.8674,-3.8879,0.0,0.0,0.0,0.0,0.0,0.0,0.0,0.0,0.0,0.0,0.0,0.0,0.0,0.0,0.0,0.0,0.0,0.0,0.0,0.0,0.0,0.0,-5.674,-5.6785,-5.7152,-5.7409,-5.7409,-5.7776,-5.818,-5.8584,-5.8621,-5.8804,-5.9208,-5.9612,-5.9832,-5.9784,-6.0639,-6.1006,-6.1043,-6.1814,-6.2218,-6.2218,-6.2658,-6.2805,-6.2805,-6.2805,-6.3319,-6.4127,-6.453,-6.5191,-6.5888,-6.5888,-6.6145,-6.6549,-2.3052,-2.3859,-2.4786,-2.5506,-2.7094,-2.8551,-2.9366,-3.0463,-3.173,-3.311,-3.5205,-3.6632,-3.6808,-3.6905,-3.6303,-3.4651,-3.2973,-3.1309,-2.9734,-2.7894,-2.6556,-2.5731,-2.499,-2.4498,-2.4351,-2.439,-2.4373,-2.419,-2.419,-2.419,-2.4226,-2.5017,-2.5495,-2.5715,-2.7457,0.0,0.0,0.0,0.0,-3.7698,0.0,-4.2873,-4.559,-4.937,-5.1903,-5.3665,-5.5427,-5.5868,-5.539,-5.4106,0.0,-4.9627,-4.8416,-4.6728,0.0,0.0,0.0,0.0,0.0,0.0,0.0,0.0,0.0,-3.7675,0.0,0.0,0.0,-3.6098,0.0,0.0,0.0,0.0,0.0,0.0,0.0,0.0,0.0,0.0,0.0,0.0,0.0,0.0,0.0,0.0,-5.4928,-5.5089,-5.5868,-5.6381,-5.6565,-5.7336,-5.785,-5.7997,-5.7997,-5.7997,-5.7997,-5.8657,-5.8988,-5.8977,-5.9795,-6.0162,-6.0199,-6.1006,-6.1447,-6.163,-6.2291,-6.2658,-6.2805,-6.2805,-6.2805,-6.2879,-6.3576,-6.4347,-6.5081,-6.5081,-6.5191,-6.5411,-2.2825,-2.3683,-2.4645,-2.5332,-2.6906,-2.8386,-2.929,-3.1309,-3.3872,-3.7087,-3.8,-3.8601,-3.9296,0.0,0.0,-3.725,0.0,0.0,-3.2276,0.0,-2.8352,-2.7545,-2.6738,-2.5988,-2.5254,-2.5274,-2.4887,-2.419,-2.419,-2.419,-2.4226,-2.5017,-2.5768,-2.6576,-2.8888,0.0,0.0,0.0,-3.5789,0.0,-4.0891,-4.4048,0.0,-4.9811,-5.2234,-5.4583,-5.6895,-5.6785,-5.5574,0.0,-5.3261,-5.0765,0.0,-4.9334,-4.6985,0.0,0.0,0.0,0.0,0.0,0.0,0.0,-4.223,0.0,0.0,0.0,-3.7026,-3.6949,0.0,0.0,0.0,0.0,0.0,0.0,0.0,0.0,0.0,0.0,0.0,0.0,0.0,0.0,0.0,0.0,0.0,-5.3316,-5.4142,-5.5,-5.5684,-5.6492,-5.7262,-5.796,-5.7997,-5.7997,-5.7997,-5.8107,-5.8143,-5.8143,-5.8951,-5.9355,-5.9391,-6.0162,-6.0933,-6.1594,-6.1704,-6.2144,-6.2805,-6.2805,-6.2805,-6.2805,-6.2915,-6.3466,-6.4237,-6.4237,-6.4677,-6.5301,-2.2642,-2.3502,-2.4454,-2.5189,-2.6879,-2.8556,-2.9955,-3.3136,-3.6168,-3.8113,-4.0174,0.0,0.0,0.0,0.0,0.0,0.0,-3.8175,0.0,0.0,-3.1715,-2.9953,-2.9108,-2.8081,-2.6796,-2.6319,-2.5695,-2.4907,-2.441,-2.419,-2.4226,-2.5511,-2.6539,-2.742,-3.032,0.0,-3.3616,0.0,0.0,0.0,0.0,0.0,0.0,-4.9951,-5.2559,-5.5265,-5.7208,-5.7125,-5.5971,0.0,-5.3895,0.0,0.0,0.0,0.0,0.0,0.0,0.0,0.0,0.0,0.0,0.0,0.0,0.0,-4.0344,0.0,-3.7829,0.0,0.0,0.0,0.0,0.0,0.0,0.0,0.0,0.0,0.0,0.0,0.0,0.0,0.0,0.0,0.0,0.0,0.0,0.0,0.0,-5.2864,-5.3186,-5.5259,-5.6703,-5.7171,-5.7647,-5.7904,-5.7997,-5.7997,-5.7997,-5.7997,-5.8327,-5.851,-5.8547,-5.9355,-5.9905,-6.0272,-6.119,-6.1777,-6.2144,-6.2622,-6.2805,-6.2805,-6.2805,-6.3025,-6.3356,-6.3356,-6.3576,-6.3943,-2.3061,-2.3453,-2.3996,-2.499,-2.65,-2.8528,-3.1408,-3.497,-3.7903,-3.9462,0.0,0.0,-4.3609,-4.559,0.0,0.0,-4.3938,-4.2653,0.0,0.0,-3.5605,-3.3183,-3.2082,-3.065,-2.8815,-2.8007,-2.709,-2.6082,-2.5254,-2.474,-2.4557,-2.6151,-2.7325,-2.8242,0.0,-3.4146,-3.6024,0.0,0.0,-4.2592,-4.5345,-4.7482,-4.9198,-5.0994,-5.32,-5.5524,-5.7083,-5.7061,-5.6164,-5.5629,-5.4483,0.0,-5.2608,0.0,0.0,0.0,0.0,0.0,-5.0472,0.0,0.0,0.0,0.0,0.0,0.0,0.0,0.0,0.0,0.0,0.0,0.0,0.0,0.0,0.0,0.0,0.0,0.0,0.0,0.0,0.0,0.0,0.0,0.0,0.0,0.0,0.0,0.0,0.0,-5.102,-5.3889,-5.5848,-5.652,-5.7371,-5.7857,-5.7997,-5.7997,-5.7997,-5.7997,-5.7997,-5.7997,-5.8033,-5.8621,-5.8988,-5.9281,-6.0456,-6.119,-6.163,-6.2218,-6.2622,-6.2805,-6.2805,-6.2805,-6.2805,-6.2805,-6.2805,-6.2915,-2.4286,-2.3477,0.0,-2.4643,-2.5656,-2.8188,-3.3812,-3.6435,-3.8942,0.0,0.0,0.0,0.0,0.0,0.0,0.0,0.0,-4.7058,-4.4635,0.0,-3.9827,-3.7404,-3.5752,-3.3733,0.0,-3.0503,-2.9329,-2.7714,-2.6906,-2.6135,-2.5421,-2.6951,-2.8077,-2.9028,-3.2847,-3.5877,-3.8241,-4.0492,-4.2366,-4.3953,-4.5408,-4.8434,-5.2196,0.0,-5.4355,-5.5207,-5.6659,0.0,0.0,-5.5993,-5.5087,0.0,0.0,0.0,0.0,0.0,0.0,0.0,0.0,0.0,0.0,-4.7498,0.0,0.0,0.0,0.0,-3.9652,0.0,0.0,0.0,0.0,0.0,-3.9434,-3.9434,0.0,0.0,0.0,0.0,0.0,0.0,0.0,0.0,0.0,0.0,0.0,0.0,0.0,0.0,-4.9812,-5.2371,-5.4589,-5.6343,-5.7324,-5.7857,-5.7997,-5.7997,-5.7997,-5.7997,-5.7997,-5.7997,-5.7997,-5.8033,-5.8474,-5.9208,-5.9281,-6.0162,-6.1594,-6.163,-6.2108,-6.2805,-6.2805,-6.2805,-6.2805,-6.2805,-6.2805,-6.2805,0.0,0.0,0.0,0.0,0.0,-2.8587,-3.3915,-3.7251,0.0,0.0,0.0,0.0,0.0,0.0,-5.1867,0.0,0.0,-4.9958,-4.8049,-4.5626,0.0,0.0,0.0,-3.7918,0.0,-3.355,-3.1788,-3.0173,-2.8256,-2.7207,-2.6915,0.0,-2.8227,0.0,0.0,-3.5447,0.0,0.0,0.0,0.0,0.0,-4.9933,-5.2303,0.0,0.0,-5.5491,-5.6433,-5.6491,0.0,-5.5597,-5.5281,-5.4954,-5.4771,-5.4537,-5.4276,-5.4363,-5.3812,0.0,0.0,0.0,-5.0912,-4.9811,0.0,0.0,0.0,0.0,0.0,0.0,0.0,0.0,0.0,0.0,-4.0178,-3.9049,-3.7794,0.0,0.0,0.0,0.0,0.0,0.0,0.0,0.0,0.0,0.0,0.0,0.0,0.0,0.0,-4.9936,-5.2844,-5.4589,-5.5993,-5.7167,-5.7997,-5.7997,-5.7997,-5.7997,-5.7997,-5.7997,-5.7997,-5.7997,-5.8143,-5.8437,-5.8988,-5.9538,-6.0089,-6.1153,-6.1741,-6.2071,-6.2585,-6.2805,-6.2805,-6.2805,-6.2805,-6.2805,-2.6047,0.0,0.0,0.0,0.0,0.0,0.0,0.0,0.0,0.0,-4.7669,0.0,-5.1615,0.0,-5.4363,0.0,-5.3849,-5.2894,-5.0986,-4.9114,0.0,-4.5296,-4.3938,0.0,0.0,0.0,-3.5255,-3.3083,-3.083,-2.9174,-2.802,0.0,0.0,0.0,0.0,0.0,0.0,0.0,-4.4249,0.0,0.0,-5.0869,0.0,0.0,-5.4434,-5.533,0.0,-5.6035,-5.583,-5.5446,-5.5508,-5.5702,-5.5388,-5.5473,-5.5716,-5.5558,-5.52,-5.495,-5.5464,-5.4252,0.0,-5.1499,-4.9187,0.0,-4.5149,0.0,0.0,0.0,0.0,0.0,0.0,0.0,-4.1372,-3.9694,-3.8045,-3.5905,0.0,0.0,0.0,0.0,0.0,0.0,0.0,0.0,-3.6816,-3.693,0.0,0.0,0.0,0.0,-5.1522,-5.3519,-5.5257,-5.6733,-5.795,-5.795,-5.795,-5.7997,-5.7997,-5.7997,-5.7997,-5.7997,-5.7997,-5.8033,-5.8547,-5.8951,-5.9318,-6.0639,-6.1337,-6.1667,-6.2511,-6.2805,-6.2805,-6.2805,-6.2805,-6.2805,0.0,0.0,0.0,0.0,-3.0912,0.0,0.0,0.0,-4.4289,0.0,-5.0173,-5.2199,-5.3936,-5.5733,-5.6528,-5.5757,-5.6381,0.0,-5.3555,-5.2601,0.0,0.0,-4.7755,-4.6177,-4.3791,0.0,0.0,0.0,-3.4411,-3.19,-2.8742,0.0,0.0,0.0,-3.2227,0.0,-3.9231,-4.1337,-4.3954,-4.6999,-4.9451,-5.1315,-5.2764,-5.3824,-5.4429,-5.4762,-5.518,-5.5437,-5.5413,-5.5402,-5.5751,-5.6204,-5.5913,-5.6151,-5.6343,-5.5679,-5.5595,-5.5721,-5.5721,-5.5133,-5.4142,-5.2564,0.0,0.0,0.0,0.0,-4.614,0.0,0.0,0.0,0.0,0.0,0.0,-4.1342,-3.87,-3.5522,0.0,0.0,0.0,0.0,0.0,0.0,0.0,0.0,-3.4831,-3.6496,-3.8257,0.0,0.0,0.0,-5.0378,-5.3243,-5.5003,-5.6515,-5.7737,-5.7774,-5.7857,-5.7997,-5.7997,-5.7997,-5.7997,-5.7997,-5.7997,-5.7997,-5.7997,-5.8437,-5.9208,-6.0015,-6.0823,-6.163,-6.2438,-6.2768,-6.2805,-6.2805,-6.2805,-6.2805,-2.9807,-3.1292,-3.3085,0.0,-3.4823,-3.5728,0.0,0.0,0.0,0.0,-5.0818,-5.3034,-5.5541,-5.63,-5.6878,-5.7336,-5.7042,0.0,0.0,0.0,0.0,-5.2858,-5.0912,-4.8964,-4.7018,-4.409,0.0,-3.8492,0.0,0.0,-3.0879,0.0,0.0,0.0,0.0,0.0,-3.7939,-4.0754,-4.4129,-4.7899,-4.9786,-5.1236,0.0,0.0,-5.4131,-5.4591,-5.4826,-5.4738,-5.4586,-5.4834,-5.5224,-5.5716,-5.617,-5.6711,-5.7158,-5.7178,-5.7281,-5.7373,-5.7373,-5.6785,-5.5941,-5.4913,-5.3482,-5.1867,0.0,0.0,0.0,0.0,0.0,0.0,0.0,0.0,0.0,-4.2118,-3.7851,-3.4217,0.0,0.0,0.0,0.0,0.0,0.0,0.0,-3.2483,-3.3467,-3.4077,-3.7143,0.0,0.0,0.0,0.0,-5.0685,-5.3568,-5.562,-5.6895,-5.7481,-5.7857,-5.7997,-5.7997,-5.7997,-5.7997,-5.7997,-5.7997,-5.7997,-5.7997,-5.8107,-5.8364,-5.9208,-5.9979,-6.0786,-6.1594,-6.2291,-6.2805,-6.2805,-6.2805,-6.2805,-3.2076,0.0,0.0,-3.9309,0.0,0.0,-4.1388,0.0,0.0,-5.036,-5.2171,0.0,-5.6479,-5.6879,-5.7156,-5.7737,-5.7371,0.0,-5.6593,0.0,0.0,-5.4602,-5.3288,-5.1784,-5.0059,-4.7098,0.0,-4.0671,0.0,0.0,-3.1335,0.0,0.0,0.0,0.0,-3.3665,0.0,-4.1699,-4.5273,-4.8218,-5.0298,0.0,0.0,-5.3563,-5.4115,-5.4303,-5.4367,-5.4269,-5.4141,-5.4397,-5.4861,-5.5461,-5.609,-5.6793,-5.7338,-5.7631,-5.7857,-5.7997,-5.7997,-5.7666,-5.7116,-5.6308,-5.5427,-5.4363,-5.2747,-5.238,-5.216,0.0,0.0,0.0,0.0,0.0,0.0,0.0,0.0,0.0,0.0,0.0,0.0,0.0,0.0,0.0,0.0,-3.1591,-3.215,-3.2682,-3.5405,0.0,0.0,0.0,0.0,-4.9647,-5.2558,-5.4822,-5.6332,-5.7229,-5.781,-5.7904,-5.7997,-5.7997,-5.7997,-5.7997,-5.7997,-5.7997,-5.7997,-5.7997,-5.807,-5.8877,-5.9501,-6.0015,-6.1153,-6.2108,-6.2805,-6.2805,-6.2805,-6.2805,0.0,0.0,0.0,0.0,0.0,0.0,0.0,-4.6378,0.0,-5.2289,0.0,-5.4968,-5.6855,-5.7188,-5.7338,-5.7486,0.0,-5.7146,-5.6358,-5.6273,-5.5897,-5.5111,-5.4967,-5.4122,-5.2485,-4.9883,-4.6542,0.0,0.0,-3.5181,-3.1045,0.0,0.0,0.0,0.0,0.0,0.0,-4.322,-4.6481,0.0,-5.0837,-5.233,-5.3083,-5.4155,-5.4367,-5.4045,-5.4045,-5.398,-5.398,-5.4141,-5.4614,-5.5284,-5.5922,-5.6582,-5.7239,-5.7534,-5.781,-5.7997,-5.7997,-5.7997,-5.7813,-5.7152,-5.6969,-5.6565,-5.506,-5.473,-5.4509,-5.3702,-5.2858,-5.183,0.0,0.0,0.0,0.0,0.0,0.0,0.0,0.0,0.0,0.0,0.0,0.0,0.0,-3.1218,-3.1079,-3.1881,0.0,0.0,0.0,0.0,0.0,-4.8959,-5.1754,0.0,-5.5763,0.0,-5.7631,-5.781,-5.7904,-5.7997,-5.7997,-5.7997,-5.7997,-5.7997,-5.7997,-5.7997,-5.8033,-5.8767,-5.9171,-5.9538,-6.1006,-6.2108,-6.2805,-6.2805,-6.2805,-6.2805,0.0,0.0,0.0,0.0,0.0,-4.6737,-4.8333,-4.8631,-4.9756,-5.2649,-5.3858,-5.495,-5.6313,-5.6582,-5.6793,-5.7087,-5.7087,0.0,0.0,0.0,0.0,-5.6361,-5.5713,-5.4532,-5.2788,-5.0281,-4.6909,0.0,-3.9215,-3.5521,-3.1558,0.0,0.0,0.0,0.0,0.0,-3.9749,-4.343,0.0,-4.8439,-5.1262,-5.2727,-5.3425,-5.4618,-5.471,-5.4141,-5.4141,-5.3915,-5.3618,-5.4076,-5.4551,-5.5104,-5.5978,-5.6724,-5.7289,-5.7631,-5.7904,-5.7997,-5.7997,-5.7997,-5.796,-5.7813,-5.7776,-5.7556,-5.6602,-5.6381,-5.6161,-5.5354,-5.4546,-5.3702,-5.2747,0.0,0.0,0.0,0.0,0.0,0.0,0.0,0.0,0.0,0.0,0.0,0.0,0.0,-3.0837,0.0,0.0,0.0,0.0,0.0,0.0,0.0,0.0,0.0,0.0,0.0,-5.7388,-5.7667,-5.781,-5.7904,-5.7997,-5.7997,-5.7997,-5.7997,-5.7997,-5.7997,-5.7997,-5.8143,-5.8988,-6.0272,-6.1227,-6.2108,-6.2805,-6.2805,-6.2805,-6.2805,0.0,0.0,0.0,0.0,0.0,0.0,0.0,-5.1548,0.0,-5.3112,-5.3707,-5.4466,-5.5702,-5.5887,-5.609,-5.6402,-5.6456,-5.6347,-5.6201,-5.6055,-5.5943,-5.5738,-5.5384,0.0,-5.3359,-5.0892,-4.7805,-4.4034,-3.9986,-3.6191,-3.2627,-3.0564,-2.981,-3.0319,0.0,-3.711,0.0,0.0,0.0,-4.9649,-5.2071,-5.3498,-5.4164,-5.4818,-5.471,-5.4205,-5.4141,-5.3849,-5.3551,-5.398,-5.4425,-5.5044,-5.5808,-5.6582,-5.7239,-5.7583,-5.7857,-5.7997,-5.7997,-5.7997,-5.7997,-5.7997,-5.7997,-5.7886,-5.7519,-5.7409,-5.7189,-5.6381,-5.5574,-5.4509,-5.2894,-4.9881,0.0,0.0,0.0,0.0,0.0,0.0,0.0,0.0,0.0,0.0,0.0,0.0,0.0,0.0,0.0,0.0,0.0,0.0,0.0,0.0,0.0,0.0,0.0,0.0,0.0,-5.7486,-5.7679,-5.7904,-5.7997,-5.7997,-5.7997,-5.7997,-5.7997,-5.7997,-5.7997,-5.7997,-5.8694,-5.9869,-6.0676,-6.1484,-6.2218,-6.2658,-6.2805,-6.2805,0.0,-4.6752,0.0,0.0,-4.9729,0.0,-5.3311,-5.3922,-5.4088,-5.408,-5.4074,-5.4433,-5.5279,-5.5409,-5.5459,-5.5613,-5.5671,-5.5555,-5.5284,-5.5224,-5.5104,-5.4799,-5.4799,-5.4452,-5.3662,-5.1395,-4.8687,0.0,-4.1131,0.0,0.0,-3.1975,-3.1529,-3.2544,0.0,0.0,0.0,0.0,-4.8694,-5.1062,-5.2952,-5.414,-5.4772,-5.4992,-5.471,-5.4205,-5.4076,-5.3817,-5.3551,-5.3849,-5.4333,-5.4983,-5.5729,-5.651,-5.7188,-5.7486,-5.7763,-5.795,-5.7997,-5.7997,-5.7997,-5.7997,-5.7997,-5.7997,-5.7997,-5.7886,-5.7556,-5.6932,-5.6014,-5.4656,-5.2417,-5.0251,0.0,0.0,0.0,0.0,0.0,0.0,0.0,0.0,0.0,0.0,0.0,0.0,0.0,0.0,0.0,0.0,0.0,0.0,0.0,0.0,0.0,-5.0211,-5.2695,0.0,-5.6342,0.0,-5.7631,-5.7857,-5.7997,-5.7997,-5.7997,-5.7997,-5.7997,-5.7997,-5.7997,-5.7997,-5.8474,-5.9281,-6.0089,-6.0896,-6.1704,-6.2511,-6.2755,-6.2755,0.0,0.0,0.0,0.0,0.0,0.0,0.0,-5.4634,-5.5619,-5.5894,-5.5961,-5.5788,-5.5369,-5.5495,-5.5346,-5.4842,-5.4834,-5.4772,-5.4772,-5.4683,-5.4557,-5.4557,-5.4557,-5.4149,-5.3169,-5.1588,-4.911,0.0,0.0,0.0,0.0,-3.4506,-3.4844,-3.6366,0.0,0.0,0.0,-4.7135,-4.9658,-5.2001,-5.3495,-5.4416,-5.4992,-5.5329,-5.493,-5.4205,-5.4205,-5.3915,-5.3484,-5.3651,-5.4141,-5.4896,-5.5751,-5.6456,-5.6933,-5.7437,-5.7679,-5.7857,-5.795,-5.7997,-5.7997,-5.7997,-5.7997,-5.7997,-5.7997,-5.7446,-5.6895,-5.6822,-5.5574,-5.3995,-5.2307,-5.1206,-5.0068,0.0,0.0,0.0,0.0,0.0,0.0,0.0,0.0,0.0,0.0,0.0,0.0,0.0,0.0,0.0,0.0,0.0,0.0,-4.2405,0.0,-5.0161,-5.2695,-5.4645,0.0,-5.7388,-5.7534,-5.7763,-5.7997,-5.7997,-5.7997,-5.7997,-5.7997,-5.7997,-5.7997,-5.7997,-5.8474,-5.9281,-6.0089,-6.0896,-6.1704,-6.2511,-6.2705,-6.2603,0.0,0.0,0.0,0.0,0.0,0.0,0.0,-5.5987,-5.6599,-5.7148,-5.6435,-5.5859,-5.5758,-5.5347,-5.5104,-5.4926,-5.4544,-5.4239,-5.4076,-5.4045,-5.398,-5.3883,-5.3883,-5.3747,-5.3375,-5.2286,-5.0419,0.0,0.0,0.0,0.0,-3.7313,-3.7584,0.0,0.0,-4.4621,-4.6718,-4.9316,-5.1302,-5.2791,-5.4105,-5.4713,-5.4834,-5.4992,-5.4586,-5.4076,-5.3946,-5.3717,-5.3484,-5.3651,-5.411,-5.4648,-5.5378,-5.6035,-5.6688,-5.7138,-5.7486,-5.781,-5.7857,-5.795,-5.7997,-5.7904,-5.7904,-5.7857,-5.781,-5.7188,-5.6539,-5.6071,-5.4759,-5.3482,-5.2858,-5.1683,-5.0582,0.0,0.0,0.0,0.0,0.0,0.0,0.0,0.0,0.0,0.0,0.0,0.0,0.0,0.0,-3.0518,-3.162,0.0,0.0,-4.1695,0.0,-4.9052,-5.2201,-5.408,-5.5871,-5.7486,-5.7667,-5.781,-5.7997,-5.7997,-5.7997,-5.7997,-5.7997,-5.7997,-5.7997,-5.7997,-5.818,-5.8547,-5.926,-6.0066,-6.0823,-6.1478,-6.1995,-6.2291,-5.301,0.0,-5.3653,0.0,-5.5108,-5.5581,-5.663,-5.6968,-5.7306,-5.7814,-5.7002,-5.6362,-5.6265,-5.5756,-5.5315,-5.5281,-5.4633,-5.4124,-5.399,-5.3787,-5.3618,-5.3518,-5.3518,0.0,-5.3518,-5.2706,-5.142,-4.9661,-4.6921,0.0,0.0,-4.0696,0.0,0.0,-4.5635,-4.7496,-4.9018,-5.1128,-5.2575,-5.3484,-5.4378,-5.4648,-5.4586,-5.4586,-5.4269,-5.3915,-5.3783,-5.3618,-5.3484,-5.3618,-5.398,-5.4431,-5.4957,-5.5694,-5.642,-5.6829,-5.7239,-5.7631,-5.7715,-5.781,-5.7857,-5.7726,-5.7763,-5.7715,-5.7583,-5.6864,-5.5898,-5.492,-5.3909,-5.3225,-5.3225,-5.1903,-5.0802,-5.0802,0.0,0.0,0.0,0.0,0.0,0.0,-3.995,-3.8293,0.0,0.0,0.0,0.0,0.0,-3.2296,-3.257,0.0,0.0,0.0,0.0,0.0,0.0,-5.3966,-5.5692,-5.7631,-5.7763,-5.7857,-5.7997,-5.7997,-5.7997,-5.7997,-5.7997,-5.7997,-5.7997,-5.795,-5.795,-5.8024,-5.864,-5.92,-5.9771,-6.0586,-6.11,-6.1479,-5.5378,-5.5683,-5.5683,-5.5683,-5.6292,-5.6799,-5.6799,-5.7408,-5.7881,-5.7881,-5.7881,-5.7577,-5.6867,-5.6765,-5.6494,-5.5784,-5.5006,-5.4566,-5.4566,-5.389,-5.3518,0.0,0.0,-5.3518,-5.3518,-5.2706,-5.1928,-5.1183,0.0,0.0,-4.5635,-4.4857,-4.5703,-4.7868,-4.8612,-4.9796,-5.1217,-5.2191,-5.3168,-5.398,-5.4141,-5.4205,-5.4205,-5.4205,-5.4011,-5.3717,-5.3717,-5.3618,-5.3518,-5.3518,-5.3751,-5.411,-5.4807,-5.5378,-5.6014,-5.6617,-5.6984,-5.7239,-5.7534,-5.7583,-5.7583,-5.7583,-5.7583,-5.7583,-5.7583,-5.6343,-5.4821,-5.3346,-5.3103,-5.3225,-5.3225,-5.1903,-5.0802,-5.0802,0.0,0.0,0.0,0.0,0.0,0.0,-4.0705,-3.9292,-3.772,0.0,0.0,0.0,0.0,0.0,-3.4727,0.0,0.0,-4.455,-4.7255,0.0,-5.365,-5.4542,-5.5968,-5.781,-5.7799,-5.7894,-5.7997,-5.7997,-5.7997,-5.7997,-5.7997,-5.7997,-5.7997,-5.7857,-5.781,-5.7883,-5.8396,-5.8537,-5.8565,-5.9962,-6.0208,-5.9916,-5.6258,-5.6461,-5.663,-5.7103,-5.7374,-5.7543,-5.7543,-5.7746,-5.7881,-5.7881,-5.7881,-5.7814,-5.7577,-5.7103,-5.6697,0.0,-5.5784,-5.5344,0.0,-5.4668,-5.4262,-5.4262,-5.3788,-5.3518,-5.3518,-5.3247,-5.2739,-5.1961,0.0,0.0,0.0,-4.8206,-4.8714,-4.9458,-5.071,-5.1522,-5.1995,-5.2972,-5.3479,-5.3849,-5.398,-5.3946,-5.3881,-5.3881,-5.3717,-5.3551,-5.3551,-5.3551,-5.3484,-5.3618,-5.3783,-5.4045,-5.4494,-5.5079,-5.5636,-5.5957,-5.6456,-5.6969,-5.7138,-5.7338,-5.7437,-5.7437,-5.7437,-5.7437,-5.7338,-5.62,-5.4784,-5.331,-5.3103,-5.3225,-5.3225,-5.1903,-5.0802,-5.0802,-4.893,0.0,0.0,0.0,0.0,0.0,-4.147,-4.0491,0.0,-3.8906,0.0,0.0,0.0,0.0,0.0,0.0,0.0,0.0,-4.8424,0.0,-5.4018,-5.5368,-5.6703,-5.795,-5.795,-5.795,-5.7997,-5.7997,-5.7997,-5.7997,-5.7904,-5.7857,-5.7857,-5.7583,-5.7486,-5.7375,-5.7237,-5.7406,-5.7782,-5.7854,-5.8414,-5.9126,-5.707,-5.7205,-5.734,-5.7814,-5.7881,-5.7881,-5.7881,-5.7881,-5.7881,-5.7881,-5.7881,-5.7881,-5.7881,-5.7476,0.0,-5.7205,-5.6562,-5.6122,-5.6122,-5.5412,-5.4871,-5.46,-5.416,-5.3788,-5.3518,0.0,0.0,-5.2739,-5.1995,-5.115,-5.027,-5.071,-5.1082,-5.142,-5.2334,-5.2739,-5.2773,-5.3381,-5.3584,-5.3685,-5.3751,-5.3751,-5.3584,-5.3584,-5.3551,-5.3518,-5.3518,-5.3518,-5.3484,-5.3651,-5.3915,-5.411,-5.4431,-5.4834,-5.5284,-5.5496,-5.6014,-5.651,-5.6671,-5.6933,-5.7188,-5.7239,-5.7289,-5.7216,-5.6876,-5.5934,-5.4848,-5.3624,-5.328,-5.3115,-5.2821,-5.1683,-5.0692,-5.0398,-4.8526,-4.6838,-4.5993,0.0,0.0,0.0,0.0,0.0,0.0,-4.06,0.0,0.0,0.0,0.0,0.0,0.0,0.0,-4.7425,-5.0028,0.0,-5.4715,-5.6035,-5.7143,-5.7997,-5.7997,-5.7997,-5.7997,-5.7997,-5.7997,-5.7904,-5.781,-5.7631,-5.7534,-5.7202,-5.6948,-5.6793,-5.6276,-5.6319,-5.6609,-5.6385,-5.6877,-5.7602,-5.7746,-5.7881,0.0,0.0,-5.7881,0.0,-5.7881,-5.7881,-5.7881,-5.7881,-5.7881,-5.7881,-5.7881,-5.7881,-5.7881,-5.7881,0.0,0.0,0.0,-5.619,-5.548,-5.4769,-5.4634,-5.4262,-5.3585,-5.3518,-5.3518,-5.3518,-5.2739,-5.2367,-5.2367,-5.2367,-5.2773,-5.3518,-5.3518,-5.3518,-5.3518,-5.3518,-5.3518,-5.3518,-5.3518,-5.3518,-5.3518,-5.3518,-5.3518,-5.3518,-5.3518,-5.3518,-5.3551,-5.3651,-5.3946,-5.4269,-5.4494,-5.4745,-5.5113,-5.5284,-5.5613,-5.5957,-5.6201,-5.6564,-5.6865,-5.6984,-5.7138,-5.7021,-5.6224,-5.5618,-5.4994,-5.4191,-5.3566,-5.2968,-5.216,-5.1353,-5.0508,-4.9627,-4.8122,-4.6727,-4.592,0.0,0.0,0.0,0.0,0.0,0.0,-4.1976,-4.1722,0.0,0.0,0.0,0.0,0.0,-4.7161,-4.9541,-5.2009,-5.4069,-5.5647,-5.6492,-5.7262,-5.7997,-5.7997,-5.7997,-5.7997,-5.7997,-5.795,-5.781,-5.7631,-5.7388,-5.7138,-5.6635,-5.6366,-5.6146,-5.5578,-5.5224,-5.5209,-5.5583,-5.5554,-5.5512,0.0,0.0,-5.7881,-5.7881,-5.7881,-5.7881,-5.7881,-5.7881,-5.7881,-5.7881,-5.7881,-5.7881,-5.7881,-5.7881,-5.7881,-5.7881,-5.7712,-5.7645,-5.7645,-5.6934,-5.6461,-5.6292,-5.5175,-5.4499,-5.4329,-5.3788,-5.3518,-5.3518,-5.3315,-5.3213,-5.3213,-5.3213,-5.3315,-5.3518,-5.3518,-5.3518,-5.3518,-5.3518,-5.3518,-5.3518,-5.3518,-5.3518,-5.3518,-5.3518,-5.3518,-5.3518,-5.3518,-5.3551,-5.3717,-5.4011,-5.4333,-5.4648,-5.4957,-5.5199,-5.5354,-5.5139,-5.5378,-5.5822,-5.607,-5.6564,-5.6984,-5.7239,-5.7388,-5.7267,-5.6466,-5.5806,-5.5131,-5.4326,-5.3609,-5.2968,-5.216,-5.1353,-5.0325,-4.8857,-4.7203,-4.5846,-4.5041,-4.4638,0.0,0.0,-4.4638,-4.5004,-4.5224,-4.4894,-4.5114,0.0,0.0,0.0,0.0,-4.9368,-5.0391,-5.2066,-5.3439,-5.4876,-5.6492,-5.7299,-5.7813,-5.7997,-5.7997,-5.7997,-5.7997,-5.7997,-5.795,-5.781,-5.7437,-5.7102,-5.6793,-5.6111,-5.5658,-5.5402,-5.4896,-5.4586,-5.4397,-5.4312,-5.4561,-5.5008,-5.7881,-5.7881,-5.7881,-5.7881,-5.7881,-5.7881,-5.7881,-5.7881,-5.7881,-5.7881,-5.7881,-5.7881,-5.7881,-5.7881,-5.7881,-5.7881,-5.7881,-5.7881,-5.7881,-5.7509,-5.7137,-5.6799,-5.6021,-5.5277,-5.46,-5.4194,-5.3822,-5.3518,-5.3518,-5.3518,-5.3518,-5.3518,-5.3518,-5.3518,-5.3518,-5.3518,-5.3518,-5.3518,-5.3518,-5.3518,-5.3518,-5.3518,-5.3518,-5.3518,-5.3518,-5.3518,-5.3518,-5.3618,-5.3783,-5.4076,-5.4488,-5.5018,-5.5319,-5.5555,-5.5729,-5.5555,-5.5613,-5.5879,-5.607,-5.6564,-5.7087,-5.7388,-5.7534,-5.7473,-5.7036,-5.6437,-5.5725,-5.492,-5.4202,-5.3408,-5.2197,-5.1353,-5.0251,-4.8522,-4.6834,-4.5551,-4.5038,-4.4562,0.0,-4.5439,-4.5951,-4.6576,-4.7423,-4.7167,-4.7498,-4.871,-4.8453,0.0,-5.0622,-5.1463,-5.2265,-5.3066,-5.4283,-5.5537,-5.6785,-5.7593,-5.7997,-5.7997,-5.7997,-5.795,-5.7904,-5.7904,-5.7763,-5.7388,-5.7036,-5.6582,-5.6055,-5.5426,-5.5044,-5.4676,-5.4269,-5.411,-5.3946,-5.3717,-5.3855,-5.4262,-5.7881,-5.7881,-5.7881,-5.7881,-5.7881,-5.7881,-5.7881,-5.7881,-5.7881,-5.7881,-5.7881,-5.7881,-5.7881,-5.7881,-5.7881,-5.7881,-5.7881,-5.7881,-5.7881,-5.7881,-5.7611,-5.7002,-5.6867,-5.6156,-5.4803,-5.4532,-5.4126,-5.3518,-5.3518,-5.3518,-5.3518,-5.3518,-5.3518,-5.3518,-5.3518,-5.3518,-5.3518,-5.3518,-5.3518,-5.3518,-5.3518,-5.3518,-5.3518,-5.3518,-5.3518,-5.3518,-5.3518,-5.3618,-5.3783,-5.4141,-5.4676,-5.5319,-5.5671,-5.6014,-5.6237,-5.6292,-5.6237,-5.6126,-5.6146,-5.6671,-5.7188,-5.7583,-5.7631,-5.7631,-5.7631,-5.7141,-5.642,-5.577,-5.4935,-5.3959,-5.2454,-5.1385,-5.0171,-4.8404,-4.6752,-4.5615,-4.5352,0.0,-4.5084,-4.6509,-4.707,-4.7882,-4.9427,-4.9035,-4.9334,-5.0875,-5.0325,-5.0695,-5.2275,-5.3004,-5.3482,-5.3739,-5.506,-5.6161,-5.6969,-5.7666,-5.7997,-5.795,-5.795,-5.7904,-5.7763,-5.7715,-5.7437,-5.6933,-5.6582,-5.5999,-5.5284,-5.4834,-5.446,-5.4076,-5.3783,-5.3651,-5.3651,-5.3551,-5.3518,-5.3619,-5.7881,-5.7881,-5.7881,-5.7881,-5.7881,-5.7881,-5.7881,-5.7881,-5.7881,-5.7881,-5.7881,-5.7881,-5.7881,-5.7881,-5.7881,-5.7881,-5.7881,-5.7881,-5.7881,-5.7881,-5.7848,-5.7712,-5.7137,-5.6393,-5.5547,-5.4329,-5.3619,-5.3518,-5.3518,-5.3518,-5.3518,-5.3518,-5.3518,-5.3518,-5.3518,-5.3518,-5.3518,-5.3518,-5.3518,-5.3518,-5.3518,-5.3518,-5.3518,-5.3518,-5.3518,-5.3518,-5.3518,-5.3685,-5.398,-5.4367,-5.4957,-5.5671,-5.609,-5.651,-5.6881,-5.6984,-5.7087,-5.7087,-5.674,-5.7152,-5.7715,-5.7904,-5.795,-5.795,-5.795,-5.7327,-5.6703,-5.6593,-5.5427,-5.4063,-5.3023,-5.1632,-5.0012,-4.8166,-4.6944,-4.5869,-4.4935,0.0,-4.6632,-4.7147,-4.8555,-4.9755,-5.0341,-5.0391,-5.0802,-5.172,-5.1683,-5.2307,-5.3922,-5.4142,-5.484,-5.6198,-5.6492,-5.7005,-5.7813,-5.7923,-5.795,-5.7857,-5.7857,-5.7679,-5.7437,-5.7338,-5.7,-5.6582,-5.6146,-5.5578,-5.4922,-5.4488,-5.4076,-5.3783,-5.3618,-5.3551,-5.3484,-5.3518,-5.3518,-5.3518,-5.7881,-5.7881,-5.7881,-5.7881,-5.7881,-5.7881,-5.7881,-5.7881,-5.7881,-5.7881,-5.7881,-5.7881,-5.7881,-5.7881,-5.7881,-5.7881,-5.7881,-5.7881,-5.7881,-5.7881,-5.7881,-5.7881,-5.7577,-5.6867,-5.575,-5.4634,-5.389,-5.3518,-5.3518,-5.3518,-5.3518,-5.3518,-5.3518,-5.3518,-5.3518,-5.3518,-5.3518,-5.3518,-5.3518,-5.3518,-5.3518,-5.3518,-5.3518,-5.3518,-5.3518,-5.3518,-5.3518,-5.3618,-5.3915,-5.4239,-5.4896,-5.5578,-5.6035,-5.6582,-5.7138,-5.7239,-5.7338,-5.7388,-5.7302,-5.7534,-5.7857,-5.795,-5.7997,-5.7997,-5.7997,-5.7703,-5.7336,-5.6895,-5.6153,-5.5184,-5.377,-5.2477,-5.0947,-4.9009,-4.7806,0.0,0.0,-4.6684,-4.751,-4.8615,-4.9697,-5.0715,-5.1595,-5.184,-5.215,-5.2601,-5.3041,-5.3628,-5.4363,-5.5119,-5.5916,-5.6666,-5.7125,-5.7537,-5.7904,-5.7763,-5.7667,-5.7583,-5.7437,-5.7239,-5.6897,-5.6793,-5.6366,-5.5808,-5.5461,-5.4983,-5.4397,-5.4076,-5.3783,-5.3618,-5.3484,-5.3518,-5.3518,-5.3518,-5.3518,-5.3518,-5.7881,-5.7881,-5.7881,-5.7881,-5.7881,-5.7881,-5.7881,-5.7881,-5.7881,-5.7881,-5.7881,-5.7881,-5.7881,-5.7881,-5.7881,-5.7881,-5.7881,-5.7881,-5.7881,-5.7881,-5.7881,-5.7881,-5.7712,-5.7103,-5.5987,-5.5074,-5.4329,-5.3754,-5.3585,-5.3518,-5.3518,-5.3518,-5.3518,-5.3518,-5.3518,-5.3518,-5.3518,-5.3518,-5.3518,-5.3518,-5.3518,-5.3518,-5.3518,-5.3518,-5.3518,-5.3518,-5.3518,-5.3618,-5.3783,-5.4076,-5.4738,-5.5461,-5.5922,-5.6582,-5.7188,-5.7338,-5.7388,-5.7437,-5.7763,-5.781,-5.781,-5.7904,-5.795,-5.795,-5.795,-5.795,-5.7767,-5.7052,-5.6703,-5.6098,-5.4636,-5.3349,-5.191,-5.0079,0.0,0.0,0.0,-4.7491,-4.8207,-4.9677,-5.0453,-5.1287,-5.2371,-5.2717,-5.2967,-5.3273,-5.3859,-5.4371,-5.4728,-5.5852,-5.6562,-5.6709,-5.7328,-5.7715,-5.7583,-5.7388,-5.7239,-5.7138,-5.6933,-5.6635,-5.6221,-5.609,-5.5694,-5.5018,-5.4799,-5.4425,-5.3915,-5.3783,-5.3584,-5.3518,-5.3518,-5.3518,-5.3518,-5.3518,-5.3518,-5.3518,-5.7881,-5.7881,-5.7881,-5.7881,-5.7881,-5.7881,-5.7881,-5.7881,-5.7881,-5.7881,-5.7881,-5.7881,-5.7881,-5.7881,-5.7881,-5.7881,-5.7881,-5.7881,-5.7881,-5.7881,-5.7881,-5.7881,-5.7239,-5.6833,-5.6731,-5.531,-5.4566,-5.4499,-5.3822,-5.3518,-5.3518,-5.3518,-5.3518,-5.3518,-5.3518,-5.3518,-5.3518,-5.3518,-5.3518,-5.3518,-5.3518,-5.3518,-5.3518,-5.3518,-5.3518,-5.3518,-5.3518,-5.3618,-5.3783,-5.4076,-5.4614,-5.5319,-5.5922,-5.651,-5.7036,-5.7338,-5.7388,-5.7437,-5.7763,-5.7715,-5.7631,-5.781,-5.781,-5.781,-5.781,-5.781,-5.7726,-5.7413,-5.6782,-5.6091,-5.5599,-5.4051,-5.2422,-5.1087,0.0,0.0,-4.7686,-4.8349,-4.9,-4.9396,-5.0558,-5.1565,-5.2066,-5.2351,-5.278,-5.3505,-5.365,-5.4302,-5.5825,-5.6006,-5.6305,-5.6964,-5.7289,-5.7289,-5.7036,-5.7036,-5.6829,-5.6366,-5.6366,-5.6035,-5.5519,-5.5343,-5.5018,-5.4557,-5.4333,-5.4076,-5.3717,-5.3717,-5.3584,-5.3518,-5.3518,-5.3518,-5.3518,-5.3518,-5.3518,-5.3518,-5.7881,-5.7881,-5.7881,-5.7881,-5.7881,-5.7881,-5.7881,-5.7881,-5.7881,-5.7881,-5.7881,-5.7881,-5.7881,-5.7881,-5.7881,-5.7881,-5.7881,-5.7881,-5.7881,-5.7881,-5.7881,-5.7881,-5.7611,-5.7273,-5.6799,-5.5818,-5.5074,-5.46,-5.3856,-5.3518,-5.3518,-5.3518,-5.3518,-5.3518,-5.3518,-5.3518,-5.3518,-5.3518,-5.3518,-5.3518,-5.3518,-5.3518,-5.3518,-5.3518,-5.3518,-5.3518,-5.3518,-5.3551,-5.3618,-5.3849,-5.4269,-5.4869,-5.5378,-5.5922,-5.651,-5.6845,-5.6845,-5.674,-5.6845,-5.7138,-5.7338,-5.7388,-5.7437,-5.7437,-5.7437,-5.7338,-5.7289,-5.7188,-5.668,-5.606,-5.5259,-5.4311,-5.3197,-5.2044,0.0,-5.0745,-5.0112,-5.0377,-5.0789,-5.1107,-5.1752,-5.2373,-5.3048,-5.3218,-5.3526,-5.3999,-5.4517,-5.5058,-5.5671,-5.5969,-5.6098,-5.5999,-5.6111,-5.6276,-5.6528,-5.6201,-5.5922,-5.5751,-5.5461,-5.5104,-5.4834,-5.4648,-5.4397,-5.398,-5.3881,-5.3783,-5.3551,-5.3551,-5.3551,-5.3518,-5.3518,-5.3518,-5.3518,-5.3518,-5.3518,-5.3518,-5.7881,-5.7881,-5.7881,-5.7881,-5.7881,-5.7881,-5.7881,-5.7881,-5.7881,-5.7881,-5.7881,-5.7881,-5.7881,-5.7881,-5.7881,-5.7881,-5.7881,-5.7881,-5.7881,-5.7881,-5.7881,-5.7881,-5.7881,-5.7645,-5.7171,-5.6224,-5.5446,-5.4938,-5.3991,-5.3518,-5.3518,-5.3518,-5.3518,-5.3518,-5.3518,-5.3518,-5.3518,-5.3518,-5.3518,-5.3518,-5.3518,-5.3518,-5.3518,-5.3518,-5.3518,-5.3518,-5.3518,-5.3518,-5.3484,-5.3651,-5.398,-5.4431,-5.4896,-5.5496,-5.6014,-5.6221,-5.6166,-5.5978,-5.5887,-5.6166,-5.6582,-5.6845,-5.6933,-5.6933,-5.6933,-5.6881,-5.6724,-5.6528,-5.6257,-5.5801,-5.4952,-5.4478,-5.3792,-5.2762,-5.2317,-5.1936,-5.1444,-5.1537,-5.1725,-5.2035,-5.2304,-5.2683,-5.3253,-5.3419,-5.3654,-5.4118,-5.4652,-5.5097,-5.5311,-5.5603,-5.5636,-5.5224,-5.5104,-5.5189,-5.5658,-5.5343,-5.5104,-5.5044,-5.4676,-5.446,-5.4239,-5.4076,-5.3881,-5.3651,-5.3651,-5.3618,-5.3518,-5.3518,-5.3518,-5.3518,-5.3518,-5.3518,-5.3518,-5.3518,-5.3518,-5.3518,-5.7881,-5.7881,-5.7881,-5.7881,-5.7881,-5.7881,-5.7881,-5.7881,-5.7881,-5.7881,-5.7881,-5.7881,-5.7881,-5.7881,-5.7881,-5.7881,-5.7881,-5.7881,-5.7881,-5.7881,-5.7881,-5.7881,-5.7881,-5.7881,-5.7881,-5.6461,-5.5716,-5.5716,-5.4228,-5.3518,-5.3518,-5.3518,-5.3518,-5.3518,-5.3518,-5.3518,-5.3518,-5.3518,-5.3518,-5.3518,-5.3518,-5.3518,-5.3518,-5.3518,-5.3518,-5.3518,-5.3518,-5.3518,-5.3484,-5.3651,-5.3849,-5.411,-5.4523,-5.5139,-5.5671,-5.5461,-5.5402,-5.5343,-5.4983,-5.4922,-5.5164,-5.609,-5.6311,-5.6311,-5.6311,-5.6311,-5.6146,-5.5519,-5.5402,-5.5284,-5.4772,-5.462,-5.4126,-5.3088,-5.2759,-5.2292,-5.1352,-5.138,-5.1571,-5.1663,-5.1939,-5.2183,-5.2399,-5.2542,-5.2914,-5.3714,-5.3783,-5.4096,-5.4887,-5.4772,-5.471,-5.471,-5.4397,-5.4205,-5.4171,-5.4523,-5.4523,-5.4205,-5.4205,-5.4011,-5.3717,-5.3717,-5.3618,-5.3518,-5.3518,-5.3518,-5.3518,-5.3518,-5.3518,-5.3518,-5.3518,-5.3518,-5.3518,-5.3518,-5.3518,-5.3518,-5.7881,-5.7881,-5.7881,-5.7881,-5.7881,-5.7881,-5.7881,-5.7881,-5.7881,-5.7881,-5.7881,-5.7881,-5.7881,-5.7881,-5.7881,-5.7881,-5.7881,-5.7881,-5.7881,-5.7881,-5.7881,-5.7881,-5.7881,-5.7881,-5.7881,-5.6461,-5.5716,-5.5716,-5.4228,-5.3518,-5.3518,-5.3518,-5.3518,-5.3518,-5.3518,-5.3518,-5.3518,-5.3518,-5.3518,-5.3518,-5.3518,-5.3518,-5.3518,-5.3518,-5.3518,-5.3518,-5.3518,-5.3518,-5.3518,-5.3551,-5.3651,-5.3849,-5.4205,-5.4586,-5.4869,-5.4807,-5.4648,-5.4551,-5.4425,-5.4333,-5.446,-5.5129,-5.5308,-5.5308,-5.5308,-5.5224,-5.5104,-5.4922,-5.4738,-5.4488,-5.4362,-5.4141,-5.3847,-5.3477,-5.3345,-5.3144,-5.2841,-5.2907,-5.294,-5.3103,-5.3099,-5.3259,-5.3645,-5.3708,-5.3873,-5.4275,-5.4275,-5.4316,-5.4425,-5.4362,-5.4269,-5.4011,-5.3881,-5.3783,-5.3751,-5.3915,-5.3946,-5.3815,-5.3717,-5.3685,-5.3551,-5.3551,-5.3551,-5.3518,-5.3518,-5.3518,-5.3518,-5.3518,-5.3518,-5.3518,-5.3518,-5.3518,-5.3518,-5.3518,-5.3518,-5.3518,-5.7442,-5.7679,-5.7881,-5.7881,-5.7881,-5.7881,-5.7881,-5.7881,-5.7881,-5.7881,-5.7881,-5.7881,-5.7881,-5.7881,-5.7881,-5.7881,-5.7881,-5.7881,-5.7881,-5.7881,-5.7881,-5.7881,-5.7611,-5.7442,-5.7442,-5.6325,-5.5581,-5.5277,-5.4093,-5.3518,-5.3518,-5.3518,-5.3518,-5.3518,-5.3518,-5.3518,-5.3518,-5.3518,-5.3518,-5.3518,-5.3518,-5.3518,-5.3518,-5.3518,-5.3518,-5.3518,-5.3518,-5.3518,-5.3518,-5.3518,-5.3618,-5.3717,-5.3946,-5.4141,-5.4303,-5.4239,-5.411,-5.4011,-5.398,-5.3849,-5.3849,-5.4269,-5.4488,-5.4614,-5.4614,-5.4551,-5.446,-5.4333,-5.4141,-5.4011,-5.3946,-5.3783,-5.3584,-5.3584,-5.3551,-5.3518,-5.3518,-5.3518,-5.3551,-5.3618,-5.355,-5.3583,-5.3915,-5.3881,-5.398,-5.408,-5.4145,-5.4045,-5.3915,-5.3881,-5.3849,-5.3584,-5.3584,-5.3618,-5.3518,-5.3618,-5.3584,-5.3584,-5.3551,-5.3518,-5.3518,-5.3518,-5.3518,-5.3518,-5.3518,-5.3518,-5.3518,-5.3518,-5.3518,-5.3518,-5.3518,-5.3518,-5.3518,-5.3518,-5.3518,-5.3518,-5.6697,-5.7239,-5.7679,-5.7679,-5.7679,-5.7679,-5.7679,-5.7679,-5.7712,-5.778,-5.778,-5.7814,-5.7881,-5.7881,-5.7881,-5.7881,-5.7881,-5.7881,-5.7881,-5.7881,-5.7848,-5.778,-5.7171,-5.6731,-5.6596,-5.5953,-5.5277,-5.46,-5.3856,-5.3518,-5.3518,-5.3518,-5.3518,-5.3518,-5.3518,-5.3518,-5.3518,-5.3518,-5.3518,-5.3518,-5.3518,-5.3518,-5.3518,-5.3518,-5.3518,-5.3518,-5.3518,-5.3518,-5.3518,-5.3518,-5.3618,-5.3717,-5.3717,-5.3783,-5.3915,-5.3717,-5.3717,-5.3651,-5.3551,-5.3518,-5.3518,-5.3518,-5.3849,-5.4141,-5.4141,-5.4141,-5.4076,-5.3783,-5.3717,-5.3651,-5.3484,-5.3518,-5.3518,-5.3518,-5.3518,-5.3518,-5.3518,-5.3518,-5.3518,-5.3518,-5.3518,-5.3518,-5.3518,-5.3518,-5.3518,-5.3518,-5.3518,-5.3518,-5.3518,-5.3518,-5.3518,-5.3518,-5.3518,-5.3518,-5.3518,-5.3518,-5.3518,-5.3518,-5.3518,-5.3518,-5.3518,-5.3518,-5.3518,-5.3518,-5.3518,-5.3518,-5.3518,-5.3518,-5.3518,-5.3518,-5.3518,-5.3518,-5.3518,-5.3518,-5.3518,-5.3518,-5.5953,-5.6089,-5.619,-5.619,-5.619,-5.619,-5.619,-5.619,-5.6393,-5.6968,-5.7036,-5.7273,-5.7814,-5.7881,-5.7881,-5.7881,-5.7881,-5.7881,-5.7881,-5.7881,-5.7645,-5.707,-5.69,-5.6258,-5.5108,-5.4905,-5.4769,-5.46,-5.3856,-5.3518,-5.3518,-5.3518,-5.3518,-5.3518,-5.3518,-5.3518,-5.3518,-5.3518,-5.3518,-5.3518,-5.3518,-5.3518,-5.3518,-5.3518,-5.3518,-5.3518,-5.3518,-5.3518,-5.3518,-5.3518,-5.3484,-5.3551,-5.3551,-5.3551,-5.3618,-5.3551,-5.3551,-5.3551,-5.3518,-5.3518,-5.3518,-5.3518,-5.3551,-5.3685,-5.3685,-5.3685,-5.3618,-5.3551,-5.3551,-5.3551,-5.3518,-5.3518,-5.3518,-5.3518,-5.3518,-5.3518,-5.3518,-5.3518,-5.3518,-5.3518,-5.3518,-5.3518,-5.3518,-5.3518,-5.3518,-5.3518,-5.3518,-5.3518,-5.3518,-5.3518,-5.3518,-5.3518,-5.3518,-5.3518,-5.3518,-5.3518,-5.3518,-5.3518,-5.3518,-5.3518,-5.3518,-5.3518,-5.3518,-5.3518,-5.3518,-5.3518,-5.3518,-5.3518,-5.3518,-5.3518,-5.3518,-5.3518,-5.3518,-5.3518,-5.3518,-5.3518,-5.5175,-5.548,-5.5716,-5.5716,-5.5716,-5.5716,-5.5716,-5.5716,-5.5852,-5.6224,-5.6292,-5.6427,-5.6799,-5.6867,-5.6867,-5.6867,-5.6867,-5.6867,-5.6867,-5.6867,-5.6697,-5.6292,-5.5953,-5.5378,-5.46,-5.4262,-5.4059,-5.4059,-5.3687,-5.3518,-5.3518,-5.3518,-5.3518,-5.3518,-5.3518,-5.3518,-5.3518,-5.3518,-5.3518,-5.3518,-5.3518,-5.3518,-5.3518,-5.3518,-5.3518,-5.3518,-5.3518,-5.3518,-5.3518,-5.3518,-5.3518,-5.3518,-5.3518,-5.3518,-5.3518,-5.3518,-5.3518,-5.3518,-5.3518,-5.3518,-5.3518,-5.3518,-5.3518,-5.3518,-5.3518,-5.3518,-5.3518,-5.3518,-5.3518,-5.3518,-5.3518,-5.3518,-5.3518,-5.3518,-5.3518,-5.3518,-5.3518,-5.3518,-5.3518,-5.3518,-5.3518,-5.3518,-5.3518,-5.3518,-5.3518,-5.3518,-5.3518,-5.3518,-5.3518,-5.3518,-5.3518,-5.3518,-5.3518,-5.3518,-5.3518,-5.3518,-5.3518,-5.3518,-5.3518,-5.3518,-5.3518,-5.3518,-5.3518,-5.3518,-5.3518,-5.3518,-5.3518,-5.3518,-5.3518,-5.3518,-5.3518,-5.3518,-5.3518,-5.3518,-5.3518,-5.3518,-5.4397,-5.4905,-5.5344,-5.5344,-5.5344,-5.5344,-5.5344,-5.5344,-5.5378,-5.5513,-5.5513,-5.5581,-5.5716,-5.5716,-5.5716,-5.5716,-5.5716,-5.5716,-5.5716,-5.5716,-5.5649,-5.5547,-5.4938,-5.4532,-5.4397,-5.3822,-5.3518,-5.3518,-5.3518,-5.3518,-5.3518,-5.3518,-5.3518,-5.3518,-5.3518,-5.3518,-5.3518,-5.3518,-5.3518,-5.3518,-5.3518,-5.3518,-5.3518,-5.3518,-5.3518,-5.3518,-5.3518,-5.3518,-5.3518,-5.3518,-5.3518,-5.3518,-5.3518,-5.3518,-5.3518,-5.3518,-5.3518,-5.3518,-5.3518,-5.3518,-5.3518,-5.3518,-5.3518,-5.3518,-5.3518,-5.3518,-5.3518,-5.3518,-5.3518,-5.3518,-5.3518,-5.3518,-5.3518,-5.3518,-5.3518,-5.3518,-5.3518,-5.3518,-5.3518,-5.3518,-5.3518,-5.3518,-5.3518,-5.3518,-5.3518,-5.3518,-5.3518,-5.3518,-5.3518,-5.3518,-5.3518,-5.3518,-5.3518,-5.3518,-5.3518,-5.3518,-5.3518,-5.3518,-5.3518,-5.3518,-5.3518,-5.3518,-5.3518,-5.3518,-5.3518,-5.3518,-5.3518,-5.3518,-5.3518,-5.3518,-5.3518,-5.3518,-5.3518,-5.3518,-5.3518,-5.3518,-5.3653,-5.3721,-5.3822,-5.3822,-5.3822,-5.3822,-5.3822,-5.3822,-5.4025,-5.4668,-5.4735,-5.5006,-5.5649,-5.5716,-5.5716,-5.5716,-5.5716,-5.5716,-5.5716,-5.5716,-5.5446,-5.4769,-5.4634,-5.4296,-5.3653,-5.3551,-5.3518,-5.3518,-5.3518,-5.3518,-5.3518,-5.3518,-5.3518,-5.3518,-5.3518,-5.3518,-5.3518,-5.3518,-5.3518,-5.3518,-5.3518,-5.3518,-5.3518,-5.3518,-5.3518,-5.3518,-5.3518,-5.3518,-5.3518,-5.3518,-5.3518,-5.3518,-5.3518,-5.3518,-5.3518,-5.3518,-5.3518,-5.3518,-5.3518,-5.3518,-5.3518,-5.3518,-5.3518,-5.3518,-5.3518,-5.3518,-5.3518,-5.3518,-5.3518,-5.3518,-5.3518,-5.3518,-5.3518,-5.3518,-5.3518,-5.3518,-5.3518,-5.3518,-5.3518,-5.3518,-5.3518,-5.3518,-5.3518,-5.3518,-5.3518,-5.3518,-5.3518,-5.3518,-5.3518,-5.3518,-5.3518,-5.3518,-5.3518,-5.3518,-5.3518,-5.3518,-5.3518,-5.3518,-5.3518,-5.3518,-5.3518,-5.3518,-5.3518,-5.3518,-5.3518,-5.3518,-5.3518,-5.3518,-5.3518,-5.3518,-5.3518,-5.3518,-5.3518,-5.3518,-5.3518,-5.3518,-5.3518,-5.3518,-5.3518,-5.3518,-5.3518,-5.3518,-5.3518,-5.3518,-5.3619,-5.3923,-5.3991,-5.4126,-5.4465,-5.4465,-5.4465,-5.4465,-5.4465,-5.4465,-5.4465,-5.4465,-5.4329,-5.3991,-5.3991,-5.3822,-5.3518,-5.3518,-5.3518,-5.3518,-5.3518,-5.3518,-5.3518,-5.3518,-5.3518,-5.3518,-5.3518,-5.3518,-5.3518,-5.3518,-5.3518,-5.3518,-5.3518,-5.3518,-5.3518,-5.3518,-5.3518,-5.3518,-5.3518,-5.3518,-5.3518,-5.3518,-5.3518,-5.3518,-5.3518,-5.3518,-5.3518,-5.3518,-5.3518,-5.3518,-5.3518,-5.3518,-5.3518,-5.3518,-5.3518,-5.3518,-5.3518,-5.3518,-5.3518,-5.3518,-5.3518,-5.3518,-5.3518,-5.3518,-5.3518,-5.3518,-5.3518,-5.3518,-5.3518,-5.3518,-5.3518,-5.3518,-5.3518,-5.3518,-5.3518,-5.3518,-5.3518,-5.3518,-5.3518,-5.3518,-5.3518,-5.3518,-5.3518,-5.3518,-5.3518,-5.3518,-5.3518,-5.3518,-5.3518,-5.3518,-5.3518,-5.3518,-5.3518,-5.3518,-5.3518,-5.3518,-5.3518,-5.3518,-5.3518,-5.3518,-5.3518,-5.3518,-5.3518,-5.3518,-5.3518,-5.3518,-5.3518,-5.3518]}]]